     2              OBSERVATION DATA    GPS                 RINEX VERSION / TYPE
ASHTORIN USGS 12 - MAY - 93 14:37                           PGM / RUN BY / DATE
                                                            COMMENT
Original Marker Name: ctwd Cottonwood_USC&GS                COMMENT
Campaign Name: USGS Parkfield                               COMMENT
4-Character Station Name: COTT                              COMMENT
6-Character Antenna Code: ASHL12                            COMMENT
Vertical Measurement Point: BBE                             COMMENT
Vertical Offset to Rinex Ref. Point: 0.0595                 COMMENT
Radial Measurement Point: EGP                               COMMENT
Radial Offset to Rinex Ref. Point: 0.1424                   COMMENT
Antenna Height from Field Measurement: 1.3200 m             COMMENT
Additional Antenna Identification Info.:                    COMMENT
Original Ashtech L1/L2 (700228ABC)                          COMMENT
Original XYZ: -2633208.4300 -4478668.6400 3688054.0000      COMMENT
New XYZ position is based on association with SCEC monument COMMENT
E1F1F6Q3+0011. Position of that monument is believed to be  COMMENT
valid to within 1 m horizontally; vertical accuracy         COMMENT
should be no worse than 3-times this value.                 COMMENT
                                                            COMMENT
Revised Rinex header created by UCSD GPS archive for        COMMENT
GSAC on 11-Jul-2000 (2000:193) 00:28:23 GMT                 COMMENT
For assistance contact dagnew@ucsd.edu                      COMMENT
or anderson@python.ucsd.edu                                 COMMENT
                                                            COMMENT
COTTONWOOD 1932                                             MARKER NAME
                                                            MARKER NUMBER
GDH US GEOLOGICAL SURVEY                                    OBSERVER / AGENCY
764 ASHTECH L-XII 6M24                                      REC # / TYPE / VERS
598 ASHTECH GEODETIC L                                      ANT # / TYPE
 -2607601.0357 -4476269.9183  3709544.1781                  APPROX POSITION XYZ
        1.2528        0.0000        0.0000                  ANTENNA: DELTA H/E/N
     1     2     0                                          WAVELENGTH FACT L1/2
     4    L1    L2    C1    D1                              # / TYPES OF OBSERV
    30                                                      INTERVAL
  1993     5     8     3     0   30.000000                  TIME OF FIRST OBS
  1993     5     8    13    31    0.000000                  TIME OF LAST OBS
    18                                                      # OF SATELLITES
           1   741   741   741   741                        PRN / # OF OBS
           3   579   579   579   579                        PRN / # OF OBS
          12   208   208   208   208                        PRN / # OF OBS
          14   360   360   360   360                        PRN / # OF OBS
          15   549   549   549   549                        PRN / # OF OBS
          16   243   243   243   243                        PRN / # OF OBS
          17   720   720   720   720                        PRN / # OF OBS
          18    74    74    74    74                        PRN / # OF OBS
          20   251   251   251   251                        PRN / # OF OBS
          21   807   807   807   807                        PRN / # OF OBS
          22   584   584   584   584                        PRN / # OF OBS
          23   783   783   783   783                        PRN / # OF OBS
          24    62    62    62    62                        PRN / # OF OBS
          25   555   555   555   555                        PRN / # OF OBS
          26   442   442   442   442                        PRN / # OF OBS
          28   558   558   558   558                        PRN / # OF OBS
          29   308   308   308   308                        PRN / # OF OBS
                                                            END OF HEADER
 93  5  8  3  0 30.0000000  0  5  3 16 20 24 17                      0.000218140
  -4215573.38817  -3283983.80116  22546663.410        -730.357
  -4543349.85218  -3541325.20818  21411270.106        1814.565
   1082739.01218    781894.28519  20659195.867        2478.144
  27459751.91316  21792507.78715  23815457.333        3953.098
  -4805345.76616  -3607130.31115  22637126.735       -1381.662
 93  5  8  3  1  0.0000000  0  5  3 16 20 24 17                      0.000240060
  -4237475.397 7  -3301050.280 6  22542495.666        -729.961
  -4488649.566 7  -3498701.626 8  21421679.280        1832.087
   1157344.976 8    840028.766 9  20673392.900        2495.559
  27578341.087 6  21884914.831 5  23838024.193        3952.549
  -4846696.834 6  -3639351.874 5  22629257.959       -1375.125
 93  5  8  3  1 30.0000000  0  5  3 16 20 24 17                      0.000261940
  -4259361.512 7  -3318104.374 6  22538330.997        -729.333
  -4433420.205 7  -3455665.757 8  21432188.962        1850.004
   1232475.880 8    898572.309 9  20687689.951        2513.140
  27696901.740 5  21977299.689 5  23860585.803        3951.422
  -4887852.681 6  -3671421.322 5  22621426.245       -1368.643
 93  5  8  3  2  0.0000000  0  5  3 16 20 24 17                      0.000283760
  -4281235.480 7  -3335149.009 6  22534168.450        -729.112
  -4377655.467 8  -3412212.717 8  21442800.790        1867.635
   1308126.130 8    957520.529 9  20702085.634        2530.257
  27815410.205 5  22069643.844 5  23883136.932        3949.077
  -4928819.788 6  -3703343.711 6  22613630.118       -1362.611
 93  5  8  3  2 30.0000000  0  5  3 16 20 24 17                      0.000305500
  -4303101.166 7  -3352187.174 6  22530007.290        -728.745
  -4321364.123 7  -3368349.329 8  21453512.754        1885.400
   1384290.019 8   1016869.008 9  20716579.021        2547.466
  27933845.813 6  22161931.271 5  23905674.703        3946.803
  -4969611.493 6  -3735129.383 6  22605867.982       -1356.497
 93  5  8  3  3  0.0000000  0  5  3 16 20 24 17                      0.000327170
  -4324959.780 7  -3369219.832 6  22525847.691        -728.540
  -4264540.070 8  -3324070.851 8  21464325.986        1903.023
   1460965.342 8   1076615.972 9  20731169.930        2564.451
  28052207.823 6  22254161.332 5  23928198.471        3944.304
  -5010208.731 6  -3766763.536 6  22598142.931       -1349.769
 93  5  8  3  3 30.0000000  0  5  3 16 20 24 17                      0.000348790
  -4346807.947 7  -3386244.356 6  22521690.117        -728.421
  -4207184.959 7  -3279378.545 8  21475240.400        1920.572
   1538153.846 8   1136762.850 9  20745858.600        2581.290
  28170509.295 6  22346344.225 5  23950710.729        3942.582
  -5050599.362 6  -3798236.715 6  22590456.852       -1343.001
 93  5  8  3  4  0.0000000  0  5  3 16 20 24 17                      0.000370390
  -4368647.982 7  -3403262.553 6  22517534.234        -728.049
  -4149300.517 7  -3234273.791 8  21486255.506        1938.182
   1615851.462 8   1197306.412 9  20760643.957        2598.352
  28288773.468 6  22438498.023 5  23973215.330        3941.560
  -5090778.043 6  -3829544.726 6  22582810.849       -1335.671
 93  5  8  3  4 30.0000000  0  5  3 16 20 24 17                      0.000391980
  -4390481.121 7  -3420275.374 6  22513379.653        -727.848
  -4090893.895 8  -3188762.146 8  21497369.858        1955.544
   1694055.464 8   1258244.566 9  20775525.723        2615.153
  28407006.847 6  22530627.837 5  23995714.491        3940.518
  -5130730.259 6  -3860676.272 6  22575208.375       -1327.731
 93  5  8  3  5  0.0000000  0  5  3 16 20 24 17                      0.000413590
  -4412302.726 7  -3437279.221 6  22509227.335        -727.210
  -4031960.252 7  -3142839.839 8  21508584.486        1973.351
   1772768.363 8   1319579.281 9  20790504.454        2632.304
  28525214.687 6  22622737.787 5  24018208.679        3939.965
  -5170439.694 6  -3891618.647 6  22567652.499       -1319.807
 93  5  8  3  5 30.0000000  0  5  3 16 20 24 17                      0.000435190
  -4434107.544 7  -3454269.992 6  22505078.108        -726.875
  -3972487.550 8  -3096497.467 8  21519901.762        1991.279
   1851993.930 8   1381313.465 9  20805580.466        2649.171
  28643409.097 6  22714837.181 5  24040700.479        3939.346
  -5209918.662 6  -3922381.433 6  22560139.066       -1312.399
 93  5  8  3  6  0.0000000  0  5  3 16 20 24 17                      0.000456780
  -4455897.929 7  -3471249.487 6  22500931.499        -726.119
  -3912475.266 8  -3049734.662 8  21531321.696        2009.431
   1931728.079 8   1443443.947 9  20820753.242        2666.331
  28761579.377 6  22806917.844 5  24063187.984        3938.472
  -5249173.050 6  -3952969.213 6  22552669.139       -1304.776
 93  5  8  3  6 30.0000000  0  5  3 16 20 24 17                      0.000478350
  -4477665.815 7  -3488211.484 6  22496789.167        -725.365
  -3851917.551 7  -3002546.824 8  21542845.360        2027.609
   2011976.843 8   1505975.425 9  20836024.120        2683.458
  28879721.641 6  22898976.675 5  24085669.707        3937.472
  -5288208.683 6  -3983386.537 6  22545239.924       -1297.788
 93  5  8  3  7  0.0000000  0  5  3 16 20 24 17                      0.000499880
  -4499409.828 7  -3505154.850 6  22492651.214        -724.372
  -3790820.075 7  -2954938.408 8  21554471.868        2045.580
   2092739.673 8   1568907.476 9  20851392.762        2700.721
  28997836.062 6  22991013.795 5  24108146.446        3936.818
  -5327042.222 6  -4013646.396 6  22537850.277       -1290.995
 93  5  8  3  7 30.0000000  0  5  3 16 20 24 17                      0.000521380
  -4521129.833 7  -3522079.517 6  22488517.753        -723.787
  -3729189.274 7  -2906914.401 8  21566199.658        2063.038
   2174015.078 8   1632238.925 9  20866858.945        2717.616
  29115925.566 6  23083031.494 5  24130618.560        3935.613
  -5365667.319 6  -4043743.817 6  22530500.185       -1283.976
 93  5  8  3  8  0.0000000  0  5  3 16 20 24 17                      0.000542860
  -4542831.667 7  -3538990.029 6  22484388.351        -723.029
  -3667038.502 7  -2858485.253 8  21578026.535        2080.560
   2255795.220 8   1695963.693 9  20882421.251        2734.584
  29233972.354 6  23175015.905 5  24153081.920        3934.281
  -5404081.092 6  -4073676.595 6  22523190.759       -1276.705
 93  5  8  3  8 30.0000000  0  5  3 16 20 24 17                      0.000564300
  -4564507.704 7  -3555880.433 6  22480263.336        -722.232
  -3604358.966 7  -2809644.034 8  21589954.145        2098.057
   2338085.447 8   1760085.920 9  20898080.630        2751.495
  29351974.008 6  23266965.163 5  24175536.827        3932.590
  -5442273.729 6  -4103437.048 6  22515922.611       -1269.366
 93  5  8  3  9  0.0000000  0  5  3 16 20 24 17                      0.000585700
  -4586159.644 7  -3572752.062 7  22476143.202        -721.487
  -3541154.130 7  -2760393.528 8  21601981.917        2115.681
   2420882.771 8   1824603.285 9  20913836.603        2768.343
  29469917.611 6  23358869.185 5  24197980.727        3930.231
  -5480239.920 6  -4133021.028 6  22508697.995       -1261.655
 93  5  8  3  9 30.0000000  0  5  3 16 20 24 17                      0.000607060
  -4607785.656 7  -3589603.492 7  22472027.838        -720.490
  -3477410.209 7  -2710722.926 8  21614112.001        2133.978
   2504186.582 8   1889515.322 9  20929688.588        2785.283
  29587789.435 6  23450717.292 5  24220410.930        3927.784
  -5517968.452 6  -4162419.820 6  22501519.003       -1253.640
 93  5  8  3 10  0.0000000  0  5  3 16 20 24 17                      0.000628360
  -4629380.877 7  -3606430.917 7  22467918.473        -719.507
  -3413116.177 7  -2660623.675 8  21626346.644        2152.154
   2587999.280 8   1954823.900 9  20945637.816        2802.162
  29705587.106 6  23542507.584 5  24242827.025        3925.313
  -5555461.064 6  -4191634.805 6  22494384.401       -1245.891
 93  5  8  3 10 30.0000000  0  5  3 16 20 24 17                      0.000649620
  -4650948.768 7  -3623237.068 7  22463814.234        -718.835
  -3348289.669 7  -2610109.526 8  21638682.771        2169.267
   2672315.860 8   2020525.097 9  20961682.859        2818.726
  29823312.021 6  23634241.190 5  24265229.364        3922.858
  -5592722.503 6  -4220669.647 6  22487294.278       -1238.403
 93  5  8  3 11  0.0000000  0  5  3 16 20 24 17                      0.000670840
  -4672493.719 7  -3640025.331 7  22459714.154        -717.756
  -3282952.936 7  -2559197.774 8  21651115.834        2186.480
   2757129.660 8   2086613.745 9  20977822.156        2835.515
  29940972.651 6  23725924.769 5  24287619.132        3921.111
  -5629749.295 6  -4249521.616 6  22480248.389       -1230.218
 93  5  8  3 11 30.0000000  0  5  3 16 20 24 17                      0.000692060
  -4694010.393 7  -3656791.553 7  22455619.779        -717.017
  -3217107.287 7  -2507889.478 8  21663646.020        2203.045
   2842443.675 8   2153092.174 9  20994056.855        2851.968
  30058592.323 6  23817576.360 5  24310001.635        3920.066
  -5666533.279 6  -4278184.414 6  22473248.266       -1222.289
 93  5  8  3 12  0.0000000  0  5  3 16 20 24 17                      0.000713290
  -4715504.189 7  -3673539.961 7  22451529.557        -716.084
  -3150773.754 7  -2456201.009 8  21676268.950        2219.248
   2928250.893 8   2219954.891 9  21010385.573        2868.548
  30176183.427 5  23909205.702 5  24332379.013        3919.314
  -5703087.629 6  -4306668.299 6  22466291.691       -1214.595
 93  5  8  3 12 30.0000000  0  5  3 16 20 24 17                      0.000734520
  -4736978.018 7  -3690272.792 7  22447443.287        -715.525
  -3083958.275 7  -2404136.999 8  21688983.498        2235.431
   3014545.973 8   2287197.816 9  21026807.023        2884.650
  30293741.973 5  24000809.685 5  24354749.750        3918.083
  -5739417.428 6  -4334977.167 6  22459378.195       -1207.247
 93  5  8  3 13  0.0000000  0  5  3 16 20 24 17                      0.000755750
  -4758423.506 7  -3706983.538 7  22443362.404        -714.774
  -3016635.396 7  -2351677.631 8  21701794.460        2252.626
   3101334.951 8   2354825.551 9  21043322.452        2900.904
  30411270.560 5  24092390.322 5  24377114.387        3916.734
  -5775524.644 6  -4363112.612 6  22452507.562       -1200.313
 93  5  8  3 13 30.0000000  0  5  3 16 20 24 17                      0.000776940
  -4779844.023 7  -3723674.823 7  22439286.235        -713.667
  -2948787.445 7  -2298809.078 8  21714705.542        2270.470
   3188612.373 8   2422833.916 9  21059930.674        2917.424
  30528754.698 5  24183936.312 5  24399470.798        3915.370
  -5811425.360 6  -4391087.132 6  22445676.543       -1193.137
 93  5  8  3 14  0.0000000  0  5  3 16 20 24 17                      0.000798080
  -4801234.503 7  -3740342.713 7  22435215.623        -712.714
  -2880401.600 7  -2245521.404 8  21727718.684        2288.506
   3276380.953 8   2491224.989 9  21076632.629        2933.696
  30646182.304 5  24275438.296 5  24421816.360        3913.128
  -5847109.904 6  -4418893.206 6  22438885.042       -1185.767
 93  5  8  3 14 30.0000000  0  5  3 16 20 24 17                      0.000819160
  -4822604.320 7  -3756994.477 7  22431149.089        -712.075
  -2811483.249 7  -2191818.792 8  21740833.444        2306.063
   3364628.861 8   2559989.556 9  21093425.836        2949.610
  30763536.545 5  24366883.101 5  24444148.080        3910.674
  -5882577.753 6  -4446530.426 6  22432135.816       -1178.698
 93  5  8  3 15  0.0000000  0  5  3 16 20 24 17                      0.000840180
  -4843956.430 7  -3773632.452 7  22427085.942        -711.423
  -2742047.180 7  -2137712.761 8  21754046.856        2323.088
   3453350.905 8   2629123.601 9  21110308.846        2965.386
  30880818.705 5  24458271.712 5  24466466.097        3908.372
  -5917833.946 6  -4474002.732 6  22425426.551       -1171.415
 93  5  8  3 15 30.0000000  0  5  3 16 20 24 17                      0.000861170
  -4865293.751 7  -3790258.924 7  22423025.511        -711.227
  -2672113.718 7  -2083219.168 8  21767354.803        2339.064
   3542541.768 8   2698622.955 9  21127281.357        2980.718
  30998032.203 5  24549606.843 5  24488771.007        3905.975
  -5952869.275 6  -4501302.940 6  22418759.344       -1164.205
 93  5  8  3 16  0.0000000  0  5  3 16 20 24 17                      0.000882150
  -4886620.810 7  -3806877.359 7  22418967.311        -710.634
  -2601704.896 7  -2028355.142 8  21780753.081        2354.946
   3632194.904 8   2768482.517 9  21144341.796        2996.327
  31115182.413 5  24640892.620 5  24511064.359        3904.390
  -5987688.922 7  -4528435.088 6  22412133.632       -1157.113
 93  5  8  3 16 30.0000000  0  5  3 16 20 24 17                      0.000903120
  -4907929.044 7  -3823481.160 7  22414912.547        -710.190
  -2530825.390 8  -1973124.373 8  21794240.868        2370.416
   3722316.255 8   2838706.922 9  21161491.484        3011.737
  31232287.951 5  24732143.674 5  24533349.282        3902.554
  -6022303.648 6  -4555407.567 6  22405546.996       -1150.594
 93  5  8  3 17  0.0000000  0  5  3 16 20 24 17                      0.000924060
  -4929226.785 7  -3840076.764 7  22410859.665        -709.940
  -2459481.376 7  -1917531.617 8  21807817.253        2386.116
   3812894.939 8   2909287.694 9  21178727.961        3026.833
  31349331.632 6  24823346.472 5  24555621.692        3900.365
  -6056726.876 6  -4582230.810 6  22398996.098       -1144.247
 93  5  8  3 17 30.0000000  0  5  3 16 20 24 17                      0.000944970
  -4950517.101 7  -3856666.595 7  22406808.249        -709.464
  -2387653.880 7  -1861562.157 8  21821485.850        2402.553
   3903925.289 8   2980220.407 9  21196050.421        3042.073
  31466307.208 6  24914496.214 5  24577881.728        3898.178
  -6090960.389 7  -4608906.220 6  22392481.705       -1137.738
 93  5  8  3 18  0.0000000  0  5  3 16 20 24 17                      0.000965830
  -4971796.789 7  -3873248.127 7  22402758.783        -709.113
  -2315339.459 7  -1805213.264 8  21835246.904        2418.727
   3995407.952 8   3051505.575 9  21213459.097        3057.080
  31583210.473 6  25005589.641 5  24600128.265        3895.553
  -6124998.276 7  -4635429.181 6  22386004.353       -1131.142
 93  5  8  3 18 30.0000000  0  5  3 16 20 24 17                      0.000986640
  -4993065.427 7  -3889821.057 7  22398711.495        -708.746
  -2242538.128 7  -1748484.966 8  21849100.212        2434.968
   4087340.726 8   3123141.477 9  21230953.488        3072.031
  31700025.321 6  25096614.116 5  24622357.237        3892.179
  -6158828.645 7  -4661790.450 6  22379566.990       -1123.822
 93  5  8  3 19  0.0010000  0  5  3 16 20 24 17                      0.001007400
  -5014311.556 7  -3906376.446 7  22394668.275        -707.617
  -2169236.505 7  -1691366.824 8  21863049.116        2451.753
   4179736.342 8   3195138.039 9  21248535.854        3087.667
  31816755.904 5  25187572.955 5  24644570.570        3889.831
  -6192421.768 7  -4687966.849 6  22373173.954       -1115.314
 93  5  8  3 19 30.0010000  0  5  3 16 20 24 17                      0.001028150
  -5035525.099 7  -3922906.446 7  22390631.228        -706.432
  -2095451.962 7  -1633872.373 8  21877089.839        2467.433
   4272594.986 8   3267495.403 9  21266206.301        3103.300
  31933409.436 5  25278471.750 5  24666768.912        3887.457
  -6225762.305 7  -4713946.429 6  22366829.897       -1106.916
 93  5  8  3 20  0.0010000  0  5  3 16 20 24 17                      0.001048900
  -5056703.380 7  -3939408.959 7  22386601.288        -705.498
  -2021204.210 7  -1576017.002 7  21891218.874        2482.900
   4365920.308 8   3340216.416 9  21283965.469        3118.595
  32049988.172 5  25369312.280 5  24688952.953        3884.539
  -6258847.260 6  -4739726.860 6  22360533.245       -1098.710
 93  5  8  3 20 30.0010000  0  5  3 16 20 24 17                      0.001069620
  -5077839.605 7  -3955878.710 7  22382579.005        -703.980
  -1946466.469 7  -1517779.813 7  21905440.939        2499.420
   4459716.562 8   3413304.387 9  21301814.280        3134.305
  32166489.341 5  25460092.320 5  24711122.510        3882.085
  -6291680.025 7  -4765310.769 6  22354285.291       -1090.359
 93  5  8  3 21  0.0010000  0  5  3 16 20 24 17                      0.001090310
  -5098932.783 7  -3972314.925 7  22378565.193        -702.412
  -1871236.025 7  -1459158.690 7  21919756.628        2516.014
   4553981.575 8   3486757.613 9  21319752.352        3150.065
  32282922.462 5  25550819.376 5  24733279.167        3880.257
  -6324272.434 7  -4790707.392 6  22348083.006       -1082.395
 93  5  8  3 21 30.0010000  0  5  3 16 20 24 17                      0.001110980
  -5119975.948 7  -3988712.163 7  22374560.924        -700.864
  -1795499.674 7  -1400143.377 7  21934168.890        2533.024
   4648719.959 8   3560579.708 9  21337780.383        3165.618
  32399304.057 5  25641506.269 5  24755425.622        3878.255
  -6356631.014 7  -4815921.827 6  22341925.446       -1074.969
 93  5  8  3 22  0.0010000  0  5  3 16 20 24 17                      0.001131590
  -5140974.005 7  -4005074.272 7  22370565.031        -699.241
  -1719237.967 7  -1340718.677 7  21948680.945        2551.088
   4743924.208 8   3634764.799 9  21355897.230        3181.306
  32515622.531 5  25732143.985 5  24777560.379        3876.373
  -6388760.805 7  -4840957.968 6  22335810.841       -1067.133
 93  5  8  3 22 30.0010000  0  5  3 16 20 24 17                      0.001152170
  -5161923.991 7  -4021398.911 7  22366578.189        -697.821
  -1642445.829 7  -1280880.652 7  21963294.109        2567.933
   4839594.372 8   3709312.958 9  21374102.737        3196.539
  32631888.325 5  25822740.679 5  24799685.119        3874.658
  -6420659.113 7  -4865813.724 6  22329740.842       -1059.554
 93  5  8  3 23  0.0010000  0  5  3 16 20 24 17                      0.001172730
  -5182826.522 7  -4037686.581 7  22362600.634        -696.054
  -1565156.669 7  -1220655.345 7  21978001.665        2584.523
   4935726.407 7   3784221.021 9  21392396.203        3212.104
  32748116.155 5  25913307.741 5  24821802.706        3873.685
  -6452318.215 7  -4890483.091 6  22323716.459       -1051.202
 93  5  8  3 23 30.0010000  0  5  3 16 20 24 17                      0.001193290
  -5203691.195 7  -4053944.760 7  22358630.401        -694.880
  -1487382.248 7  -1160051.915 7  21992801.609        2600.542
   5032308.417 7   3859479.695 9  21410774.939        3226.947
  32864298.775 5  26003839.630 5  24843911.012        3871.890
  -6483738.592 7  -4914966.458 6  22317737.422       -1043.341
 93  5  8  3 24  0.0010000  0  5  3 16 20 24 17                      0.001213850
  -5224519.855 7  -4070174.864 7  22354666.715        -693.563
  -1409139.188 7  -1099083.312 7  22007690.804        2615.884
   5129335.724 7   3935085.365 9  21429238.515        3241.920
  32980422.503 5  26094325.593 5  24866008.956        3870.146
  -6514918.157 7  -4939262.151 6  22311804.777       -1035.001
 93  5  8  3 24 30.0010000  0  5  3 16 20 24 17                      0.001234430
  -5245304.310 7  -4086370.525 7  22350711.684        -692.186
  -1330445.469 7  -1037763.541 7  22022665.696        2630.511
   5226813.216 7   4011041.818 9  21447788.114        3256.761
  33096502.954 5  26184777.888 5  24888098.291        3868.546
  -6545848.815 7  -4963363.901 6  22305918.574       -1026.781
 93  5  8  3 25  0.0010000  0  5  3 16 20 24 17                      0.001255020
  -5266044.145 7  -4102531.421 7  22346764.987        -690.574
  -1251304.580 7   -976095.312 7  22037725.979        2645.865
   5324739.014 7   4087347.619 9  21466422.775        3271.792
  33212531.183 5  26275189.424 5  24910177.945        3866.602
  -6576526.189 7  -4987268.281 6  22300081.035       -1018.244
 93  5  8  3 25 30.0010000  0  5  3 16 20 24 17                      0.001275610
  -5286726.191 7  -4118647.288 7  22342829.339        -688.565
  -1171683.537 7   -914052.959 7  22052877.369        2662.032
   5423123.189 7   4164010.584 9  21485144.623        3287.064
  33328501.948 5  26365556.261 5  24932246.186        3864.508
  -6606943.169 7  -5010969.766 6  22294292.533       -1009.676
 93  5  8  3 26  0.0010000  0  5  3 16 20 24 17                      0.001296190
  -5307344.018 7  -4134713.126 7  22338905.887        -686.215
  -1091577.630 7   -851632.777 7  22068121.039        2678.485
   5521969.003 7   4241033.280 9  21503954.343        3302.630
  33444411.030 5  26455874.987 5  24954302.948        3862.866
  -6637100.173 7  -5034468.652 6  22288554.256       -1000.790
 93  5  8  3 26 30.0010000  0  5  3 16 20 24 17                      0.001316740
  -5327895.861 7  -4150727.528 7  22334994.995        -684.037
  -1010975.321 7   -788825.812 7  22083459.109        2695.240
   5621275.227 7   4318414.711 9  21522851.650        3317.905
  33560264.288 5  26546150.190 5  24976348.684        3860.632
  -6667000.987 7  -5057767.934 6  22282864.134        -992.610
 93  5  8  3 27  0.0010000  0  5  3 16 20 24 17                      0.001337240
  -5348385.620 7  -4166693.572 7  22331095.774        -681.943
   -929868.277 7   -725625.519 7  22098893.375        2712.239
   5721035.010 7   4396149.588 9  21541835.328        3332.985
  33676044.159 5  26636368.206 5  24998381.333        3858.229
  -6696671.803 7  -5080887.995 6  22277217.641        -985.276
 93  5  8  3 27 30.0010000  0  5  3 16 20 24 17                      0.001357680
  -5368818.116 7  -4182614.975 7  22327207.446        -680.212
   -848254.702 7   -662030.522 7  22114423.854        2728.709
   5821240.410 7   4474231.692 9  21560904.063        3347.607
  33791752.469 5  26726530.466 5  25020399.490        3856.002
  -6726132.697 7  -5103844.476 6  22271611.457        -978.549
 93  5  8  3 28  0.0010000  0  5  3 16 20 24 17                      0.001378080
  -5389186.999 7  -4198486.822 7  22323331.291        -677.856
   -766147.078 7   -598050.563 7  22130048.495        2745.265
   5921894.622 7   4552663.521 9  21580057.955        3362.781
  33907413.248 5  26816655.660 5  25042409.396        3854.783
  -6755383.131 7  -5126636.956 6  22266044.940        -971.327
 93  5  8  3 28 30.0010000  0  5  3 16 20 24 17                      0.001398460
  -5409476.791 7  -4214297.023 7  22319470.250        -675.006
   -683532.724 7   -533675.764 7  22145769.394        2762.340
   6023010.315 7   4631454.942 9  21599299.506        3378.342
  34023039.399 5  26906753.939 5  25064412.149        3853.692
  -6784405.991 7  -5149252.133 6  22260521.870        -963.532
 93  5  8  3 29  0.0010000  0  5  3 16 20 24 17                      0.001418830
  -5429670.314 7  -4230032.224 7  22315627.463        -671.445
   -600396.575 7   -468894.342 7  22161589.691        2780.123
   6124601.510 7   4710616.880 9  21618631.593        3394.454
  34138650.736 5  26996840.576 5  25086412.180        3853.850
  -6813177.095 7  -5171671.106 6  22255046.970        -954.305
 93  5  8  3 29 30.0010000  0  5  3 16 20 24 17                      0.001439220
  -5449749.942 8  -4245678.677 7  22311806.568        -667.802
   -516720.569 7   -403692.269 7  22177512.806        2797.846
   6226682.179 7   4790160.241 9  21638056.974        3410.563
  34254272.826 5  27086935.662 5  25108414.286        3853.989
  -6841646.763 7  -5193855.216 6  22249629.311        -944.120
 93  5  8  3 30  0.0010000  0  5  3 16 20 24 17                      0.001459630
  -5469720.364 8  -4261240.002 7  22308006.468        -663.629
   -432515.939 7   -338078.269 7  22193536.316        2816.076
   6329245.003 7   4870079.308 9  21657574.004        3427.093
  34369884.628 5  27177022.720 5  25130414.427        3853.653
  -6869812.076 7  -5215802.137 6  22244269.504        -933.406
 93  5  8  3 30 30.0010000  0  5  3 16 20 24 17                      0.001480060
  -5489564.270 8  -4276702.782 7  22304230.253        -659.490
   -347757.012 7   -272032.352 7  22209665.309        2834.399
   6432303.736 7   4950384.787 8  21677185.627        3443.468
  34485493.486 5  27267107.436 5  25152414.255        3853.647
  -6897647.821 7  -5237492.287 6  22238972.738        -922.346
 93  5  8  3 31  0.0010000  0  5  3 16 20 24 17                      0.001500520
  -5509277.532 8  -4292063.746 7  22300478.910        -655.043
   -262455.389 7   -205563.573 7  22225897.632        2852.281
   6535859.139 7   5031077.277 8  21696891.677        3460.140
  34601108.939 5  27357197.389 5  25174414.815        3853.834
  -6925143.630 7  -5258917.530 6  22233740.000        -910.754
 93  5  8  3 31 30.0010000  0  4  3 16 20 17                         0.001519930
  -5528869.256 8  -4307329.998 7  22296750.739        -650.951
   -176639.831 7   -138694.320 7  22242227.844        2869.021
   6639899.151 7   5112147.385 8  21716689.718        3476.211
  -6952309.508 7  -5280085.655 6  22228570.559        -900.090
 93  5  8  3 32  0.0010000  0  4  3 16 20 17                         0.001540460
  -5548331.127 8  -4322495.060 8  22293047.313        -646.845
    -90319.037 7    -71431.357 7  22258654.116        2885.658
   6744428.824 7   5193599.050 8  21736581.097        3492.330
  -6979151.281 7  -5301001.274 7  22223462.596        -889.393
 93  5  8  3 32 30.0010000  0  4  3 16 20 17                         0.001561030
  -5567674.055 8  -4337567.449 8  22289366.432        -643.057
     -3509.008 7     -3787.187 7  22275173.467        2901.525
   6849433.921 7   5275421.196 8  21756562.834        3507.910
  -7005675.883 7  -5321669.753 7  22218415.102        -879.086
 93  5  8  3 33  0.0010000  0  4  3 16 20 17                         0.001581630
  -5586911.452 8  -4352557.597 8  22285705.578        -639.687
     83771.106 7     64223.288 7  22291782.350        2917.330
   6954897.611 7   5357600.668 8  21776631.952        3522.969
  -7031898.971 7  -5342103.270 7  22213425.015        -869.246
 93  5  8  3 33 30.0010000  0  4  3 16 20 17                         0.001602270
  -5606039.762 8  -4367462.737 8  22282065.496        -636.116
    171543.595 7    132617.440 7  22308484.907        2933.818
   7060819.940 7   5440137.541 8  21796788.488        3538.135
  -7057825.396 7  -5362305.633 7  22208491.352        -859.544
 93  5  8  3 34  0.0010000  0  4  3 16 20 17                         0.001623010
  -5625067.736 8  -4382289.692 8  22278444.462        -632.561
    259811.707 7    201397.782 7  22325281.756        2950.698
   7167188.606 7   5523022.179 8  21817029.884        3553.098
  -7083464.003 7  -5382283.714 7  22203612.278        -849.833
 93  5  8  3 34 30.0010000  0  5  3 23 16 20 17                      0.001644620
  -5643997.900 7  -4397040.418 8  22274842.068        -629.606
   -163697.09915   -131480.69912  24911518.195       -2515.848
    348578.081 7    270566.392 7  22342173.647        2967.140
   7273997.853 7   5606250.145 8  21837354.853        3567.527
  -7108830.957 7  -5402050.101 7  22198785.371        -841.182
 93  5  8  3 35  0.0010000  0  5  3 23 16 20 17                      0.001665250
  -5662830.011 7  -4411714.749 8  22271258.439        -625.987
   -239133.649 5   -190262.195 3  24897162.133       -2513.280
    437848.758 7    340127.949 7  22359161.464        2984.355
   7381244.985 7   5689819.308 8  21857763.305        3582.406
  -7133929.341 7  -5421607.234 7  22194009.544        -831.915
 93  5  8  3 35 30.0010000  0  5  3 23 16 20 17                      0.001685870
  -5681558.957 8  -4426308.692 8  22267694.474        -622.625
   -314502.208 5   -248990.732 5  24882818.865       -2511.165
    527625.400 7    410083.763 7  22376245.318        3000.746
   7488931.099 7   5773730.539 8  21878255.561        3596.832
  -7158755.654 7  -5440952.350 7  22189285.018        -822.962
 93  5  8  3 36  0.0010000  0  6  3 26 23 16 20 17                   0.001706460
  -5700176.580 7  -4440815.887 8  22264151.677        -618.451
  -5555014.86115    -74368.57911  24866022.484       -1432.031
   -389793.215 5   -307658.841 5  24868491.792       -2508.188
    617893.529 7    480422.562 7  22393422.789        3017.353
   7597061.217 7   5857987.754 8  21898832.004        3612.063
  -7183304.168 7  -5460081.010 7  22184613.940        -813.318
 93  5  8  3 36 30.0010000  0  6  3 26 23 16 20 17                   0.001727070
  -5718670.711 8  -4455226.873 8  22260632.325        -614.809
  -5597931.948 5   -107810.234 3  24857854.044       -1429.306
   -465004.405 5   -366264.739 5  24854179.961       -2505.970
    708655.665 7    551146.304 7  22410694.317        3033.300
   7705643.473 7   5942597.283 8  21919494.381        3626.676
  -7207566.200 7  -5478986.440 7  22179997.078        -803.980
 93  5  8  3 37  0.0010000  0  6  3 26 23 16 20 17                   0.001747680
  -5737047.403 8  -4469546.331 8  22257135.338        -610.522
  -5640752.831 5   -141177.010 4  24849705.098       -1425.372
   -540135.255 5   -424808.077 5  24839883.383       -2502.760
    799897.834 7    622244.099 7  22428057.090        3049.418
   7814668.576 7   6027551.857 8  21940241.257        3641.684
  -7231529.281 7  -5497658.931 7  22175436.892        -793.657
 93  5  8  3 37 30.0010000  0  6  3 26 23 16 20 17                   0.001768310
  -5755299.015 8  -4483768.325 8  22253662.221        -606.653
  -5683456.829 5   -174452.644 5  24841578.949       -1421.830
   -615173.142 5   -483278.904 5  24825602.675       -2499.823
    891614.497 7    693711.628 7  22445510.107        3064.815
   7924140.708 7   6112854.820 8  21961073.065        3656.248
  -7255194.322 7  -5516099.142 7  22170933.565        -784.252
 93  5  8  3 38  0.0010000  0  6  3 26 23 16 20 17                   0.001788950
  -5773435.849 8  -4497900.890 8  22250210.909        -602.754
  -5726058.280 5   -207648.405 5  24833471.179       -1418.377
   -690119.291 5   -541678.311 5  24811340.951       -2496.585
    983794.033 7    765539.837 7  22463051.243        3080.554
   8034046.019 7   6198495.279 8  21981987.396        3670.680
  -7278580.334 7  -5534321.980 7  22166483.043        -774.898
 93  5  8  3 38 30.0010000  0  6  3 26 23 16 20 17                   0.001809600
  -5791459.707 8  -4511945.425 8  22246781.084        -599.352
  -5768565.497 5   -240770.765 5  24825382.074       -1415.851
   -764966.169 5   -600000.382 5  24797099.069       -2493.321
   1076453.727 7    837742.194 7  22480683.965        3096.305
   8144378.927 7   6284468.943 8  22002983.002        3684.508
  -7301696.128 7  -5552334.244 7  22162084.017        -766.393
 93  5  8  3 39  0.0010000  0  6  3 26 23 16 20 17                   0.001830250
  -5809373.019 8  -4525903.813 8  22243372.234        -595.097
  -5810984.245 5   -273824.167 5  24817310.796       -1412.071
   -839703.676 5   -658237.177 5  24782877.548       -2489.183
   1169588.663 7    910314.876 7  22498407.035        3112.648
   8255133.151 7   6370770.919 8  22024059.001        3699.081
  -7324548.791 7  -5570141.467 7  22157735.410        -757.254
 93  5  8  3 39 30.0010000  0  6  3 26 23 16 20 17                   0.001850900
  -5827172.128 8  -4539773.229 8  22239985.370        -592.002
  -5853304.248 5   -306800.611 5  24809257.388       -1409.479
   -914339.295 5   -716394.624 5  24768674.647       -2486.653
   1263198.858 7    983257.876 7  22516220.145        3127.713
   8366308.928 7   6457401.375 8  22045215.066        3712.390
  -7347145.021 7  -5587748.893 7  22153435.317        -749.281
 93  5  8  3 40  0.0010000  0  6  3 26 23 16 20 17                   0.001871560
  -5844874.918 8  -4553567.579 8  22236616.429        -588.616
  -5895541.762 5   -339712.778 5  24801221.024       -1406.478
   -988887.694 5   -774484.083 5  24754489.234       -2483.397
   1357260.192 7   1056552.440 7  22534119.582        3142.770
   8477885.217 7   6544343.913 8  22066447.347        3725.829
  -7369488.870 7  -5605159.638 7  22149183.252        -740.462
 93  5  8  3 40 30.0010000  0  6  3 26 23 16 20 17                   0.001892200
  -5862489.290 8  -4567293.035 8  22233264.532        -585.956
  -5937703.122 5   -372565.636 5  24793198.140       -1404.283
  -1063354.465 5   -832509.972 5  24740317.944       -2481.101
   1451747.332 7   1130178.775 7  22552099.986        3156.228
   8589849.938 7   6631589.143 8  22087753.536        3738.390
  -7391573.790 7  -5622368.642 7  22144980.630        -731.793
 93  5  8  3 41  0.0010000  0  6  3 26 23 16 20 17                   0.001912820
  -5880019.109 8  -4580952.600 8  22229928.530        -582.800
  -5979795.366 5   -405364.641 5  24785188.045       -1401.822
  -1137753.100 5   -890482.749 5  24726159.753       -2478.642
   1546632.867 7   1204115.546 7  22570155.936        3169.629
   8702195.678 7   6719131.242 8  22109132.297        3751.358
  -7413384.128 7  -5639363.672 7  22140830.420        -722.104
 93  5  8  3 41 30.0010000  0  6  3 26 23 16 20 17                   0.001933420
  -5897464.996 8  -4594546.775 8  22226608.649        -580.264
  -6021826.193 5   -438115.714 5  24777189.102       -1400.114
  -1212080.417 5   -948399.923 5  24712015.950       -2476.177
   1641916.818 7   1278362.799 7  22588287.963        3182.889
   8814917.959 7   6806966.762 8  22130582.567        3763.599
  -7434914.151 7  -5656140.281 7  22136733.308        -712.965
 93  5  8  3 42  0.0010000  0  6  3 26 23 16 20 17                   0.001954010
  -5914833.634 8  -4608080.753 8  22223303.508        -577.777
  -6063802.984 5   -470824.752 5  24769200.895       -1398.274
  -1286322.116 5  -1006250.392 5  24697888.923       -2473.249
   1737603.520 7   1352923.864 7  22606496.479        3196.299
   8928006.194 7   6895087.440 8  22152102.597        3775.663
  -7456172.518 7  -5672705.198 7  22132687.919        -704.262
 93  5  8  3 42 30.0010000  0  6  3 26 23 16 20 17                   0.001974580
  -5932129.488 8  -4621558.019 8  22220012.377        -575.545
  -6105724.153 5   -503490.415 5  24761223.449       -1396.403
  -1360482.471 5  -1064037.549 5  24683776.374       -2470.823
   1833695.109 7   1427800.416 7  22624781.937        3209.903
   9041452.597 7   6983487.215 8  22173690.783        3787.350
  -7477182.503 7  -5689076.592 7  22128689.789        -696.542
 93  5  8  3 43  0.0010000  0  6  3 26 23 16 20 17                   0.001995130
  -5949357.173 8  -4634982.153 8  22216733.936        -573.201
  -6147575.685 5   -536101.831 5  24753259.072       -1393.539
  -1434571.376 5  -1121768.940 5  24669676.688       -2468.366
   1930208.312 7   1503005.524 7  22643147.863        3224.438
   9155248.276 7   7072159.168 8  22195345.271        3799.034
  -7497963.671 7  -5705269.662 7  22124735.144        -688.993
 93  5  8  3 43 30.0020000  0  6  3 26 23 16 20 17                   0.002015660
  -5966527.499 8  -4648361.599 8  22213466.597        -571.473
  -6189345.798 5   -568649.792 5  24745310.600       -1390.873
  -1508598.154 5  -1179451.984 5  24655590.001       -2466.542
   2027153.914 7   1578547.551 7  22661596.154        3238.477
   9269383.202 7   7161095.460 8  22217064.317        3809.888
  -7518542.425 7  -5721305.013 7  22120819.285        -682.807
 93  5  8  3 44  0.0020000  0  6  3 26 23 16 20 17                   0.002036160
  -5983644.639 8  -4661699.591 8  22210209.430        -569.873
  -6231032.531 5   -601132.775 5  24737378.199       -1388.241
  -1582577.332 5  -1237097.937 5  24641512.408       -2465.340
   2124508.433 7   1654408.208 7  22680122.046        3251.690
   9383840.598 7   7250283.023 8  22238844.927        3820.569
  -7538942.015 7  -5737200.746 7  22116937.572        -677.053
 93  5  8  3 44 30.0020000  0  6  3 26 23 16 20 17                   0.002056600
  -6000712.497 8  -4674999.211 8  22206961.459        -568.142
  -6272649.576 5   -633561.505 5  24729459.088       -1386.288
  -1656519.958 5  -1294715.392 5  24627441.101       -2464.087
   2222252.583 7   1730572.476 7  22698722.131        3264.614
   9498617.056 7   7339719.200 7  22260686.388        3831.196
  -7559162.951 7  -5752957.299 7  22113089.538        -670.806
 93  5  8  3 45  0.0020000  0  7  3 22 26 23 16 20 17                0.002076900
  -6017730.590 8  -4688260.031 8  22203722.993        -566.598
  -1269914.86115   -994773.33615  25372952.410       -1826.232
  -6314225.181 5   -665957.895 5  24721546.784       -1385.559
  -1730423.451 5  -1352302.384 5  24613377.450       -2462.734
   2320370.202 7   1807027.766 7  22717393.277        3276.446
   9613709.057 7   7429401.269 7  22282587.614        3841.526
  -7579190.141 7  -5768562.861 7  22109278.595        -664.358
 93  5  8  3 45 30.0020000  0  7  3 22 26 23 16 20 17                0.002097220
  -6034696.403 8  -4701480.108 8  22200494.389        -564.625
  -1324597.377 5  -1037383.077 5  25362546.897       -1819.313
  -6355784.245 5   -698341.431 5  24713637.451       -1385.197
  -1804272.384 5  -1409846.835 5  24599325.080       -2460.476
   2418835.124 7   1883753.671 7  22736130.595        3287.713
   9729115.310 7   7519328.198 7  22304548.461        3852.214
  -7599020.747 7  -5784015.227 7  22105505.158        -657.651
 93  5  8  3 46  0.0020000  0  7  3 22 26 23 16 20 17                0.002117480
  -6051599.501 8  -4714651.331 8  22197277.825        -562.326
  -1379063.481 5  -1079824.183 5  25352181.852       -1811.581
  -6397333.110 5   -730717.008 5  24705731.186       -1384.392
  -1878049.225 5  -1467335.098 5  24585285.618       -2457.788
   2517631.814 7   1960738.105 7  22754931.010        3298.923
   9844842.321 7   7609505.086 7  22326570.448        3863.008
  -7618639.499 7  -5799302.519 7  22101771.681        -649.992
 93  5  8  3 46 30.0020000  0  7  3 22 26 23 16 20 17                0.002137690
  -6068440.096 8  -4727773.834 8  22194073.183        -560.552
  -1433298.604 5  -1122085.183 5  25341861.173       -1803.849
  -6438860.107 5   -763075.542 5  24697828.840       -1383.722
  -1951752.167 5  -1524765.779 5  24571260.373       -2455.904
   2616761.001 7   2037981.627 7  22773794.581        3309.847
   9960885.743 7   7699928.504 7  22348653.150        3873.235
  -7638029.147 7  -5814411.289 7  22098081.748        -642.609
 93  5  8  3 47  0.0020000  0  7  3 22 26 23 16 20 17                0.002157850
  -6085218.648 8  -4740848.012 8  22190880.303        -558.116
  -1487288.902 5  -1164155.515 5  25331586.986       -1795.401
  -6480338.236 5   -795396.047 5  24689935.468       -1381.003
  -2025402.589 5  -1582155.564 5  24557244.143       -2453.900
   2716229.829 7   2115489.790 7  22792722.995        3321.634
  10077241.336 7   7790595.187 7  22370794.810        3883.945
  -7657193.242 7  -5829344.328 7  22094434.850        -634.919
 93  5  8  3 47 30.0020000  0  7  3 22 26 23 16 20 17                0.002177990
  -6101923.555 8  -4753864.778 9  22187701.483        -555.928
  -1541028.465 5  -1206030.424 5  25321360.146       -1787.375
  -6521711.457 5   -827634.780 5  24682061.681       -1377.207
  -2098991.626 5  -1639497.505 5  24543240.471       -2452.142
   2816053.931 7   2193274.805 7  22811718.807        3333.149
  10193916.905 7   7881511.203 7  22392997.530        3894.289
  -7676131.516 7  -5844101.375 7  22090830.886        -627.688
 93  5  8  3 48  0.0020000  0  7  3 22 26 23 16 20 17                0.002198110
  -6118563.280 8  -4766830.783 9  22184534.887        -553.389
  -1594519.668 5  -1247711.844 5  25311181.262       -1778.521
  -6562955.816 5   -859773.075 5  24674213.847       -1372.198
  -2172531.874 5  -1696801.421 5  24529244.861       -2450.209
   2916226.652 7   2271331.441 7  22830780.924        3345.331
  10310899.583 7   7972666.514 7  22415258.619        3904.751
  -7694853.126 7  -5858689.606 7  22087268.382        -620.169
 93  5  8  3 48 30.0020000  0  7  3 22 26 23 16 20 17                0.002218210
  -6135126.864 8  -4779737.425 9  22181382.997        -551.020
  -1647739.786 5  -1289181.953 5  25301053.616       -1769.747
  -6604050.019 5   -891794.415 5  24666394.322       -1367.650
  -2246011.447 5  -1754058.073 5  24515262.360       -2448.315
   3016768.917 7   2349676.063 7  22849913.453        3357.449
  10428196.532 7   8064066.720 7  22437579.577        3914.966
  -7713346.481 7  -5873099.948 7  22083749.198        -612.908
 93  5  8  3 49  0.0020000  0  7  3 22 26 23 16 20 17                0.002238310
  -6151611.270 8  -4792582.390 9  22178246.030        -548.215
  -1700700.244 5  -1330449.729 5  25290975.471       -1761.036
  -6645006.680 5   -923708.552 5  24658600.964       -1363.005
  -2319410.294 5  -1811251.760 5  24501295.184       -2444.846
   3117679.770 7   2428307.899 7  22869116.169        3369.748
  10545807.159 7   8155711.345 7  22459960.192        3925.590
  -7731622.132 7  -5887340.674 7  22080271.306        -605.657
 93  5  8  3 49 30.0020000  0  7  3 22 26 23 16 20 17                0.002258390
  -6168015.121 8  -4805364.580 9  22175124.440        -545.736
  -1753403.362 5  -1371517.088 5  25280947.006       -1752.570
  -6685835.478 5   -955523.076 5  24650831.527       -1359.352
  -2392697.376 5  -1868358.452 5  24487349.042       -2441.057
   3218955.288 7   2507223.861 7  22888388.396        3381.844
  10663728.285 7   8247597.917 7  22482399.786        3935.678
  -7749681.799 7  -5901413.106 7  22076834.436        -598.465
 93  5  8  3 50  0.0020000  0  7  3 22 26 23 16 20 17                0.002278440
  -6184345.658 8  -4818089.645 9  22172016.892        -543.125
  -1805847.410 5  -1412382.488 5  25270967.234       -1743.810
  -6726568.532 5   -987262.949 5  24643080.299       -1356.378
  -2465879.441 5  -1925383.275 5  24473422.800       -2437.578
   3320598.193 7   2586426.112 7  22907730.347        3394.565
  10781948.557 7   8339717.600 7  22504896.475        3945.775
  -7767526.759 7  -5915318.229 7  22073438.708        -591.066
 93  5  8  3 50 30.0020000  0  7  3 22 26 23 16 20 17                0.002298460
  -6200594.677 8  -4830751.179 9  22168924.872        -539.977
  -1858038.749 5  -1453050.965 5  25261035.337       -1735.240
  -6767218.022 5  -1018937.739 5  24635344.918       -1353.220
  -2538954.457 5  -1982324.698 5  24459517.614       -2433.687
   3422630.712 7   2665931.984 7  22927146.379        3407.896
  10900472.395 7   8432073.836 7  22527450.798        3956.238
  -7785146.319 7  -5929047.695 7  22070086.007        -583.226
 93  5  8  3 51  0.0020000  0  7  3 22 26 23 16 20 17                0.002318450
  -6216747.999 8  -4843338.156 9  22165850.831        -536.918
  -1909972.200 5  -1493518.568 5  25251152.744       -1726.585
  -6807759.262 5  -1050528.203 5  24627630.228       -1349.261
  -2611915.242 5  -2039177.113 5  24445633.702       -2430.177
   3525056.292 7   2745744.096 7  22946637.215        3420.719
  11019309.644 7   8524674.241 7  22550064.745        3966.466
  -7802532.378 7  -5942595.232 7  22066777.889        -575.564
 93  5  8  3 51 30.0020000  0  7  3 22 26 23 16 20 17                0.002338410
  -6232802.043 8  -4855847.768 9  22162795.986        -533.618
  -1961633.370 5  -1533773.914 5  25241321.658       -1717.595
  -6848175.408 5  -1082021.138 5  24619938.956       -1345.319
  -2684772.993 5  -2095949.258 5  24431769.494       -2427.246
   3627877.048 7   2825864.148 7  22966203.391        3433.795
  11138459.792 7   8617518.510 7  22572738.269        3976.814
  -7819676.747 7  -5955954.444 7  22063515.184        -567.416
 93  5  8  3 52  0.0020000  0  7  3 22 26 23 16 20 17                0.002358330
  -6248757.933 8  -4868280.895 9  22159759.707        -530.529
  -2013032.061 5  -1573824.762 5  25231541.027       -1709.318
  -6888476.673 5  -1113424.591 5  24612270.704       -1341.612
  -2757551.936 5  -2152660.004 5  24417920.229       -2424.756
   3731074.027 7   2906277.380 7  22985841.393        3445.715
  11257917.412 7   8710602.345 7  22595470.491        3986.802
  -7836581.433 7  -5969126.873 7  22060297.795        -559.692
 93  5  8  3 52 30.0020000  0  7  3 22 26 23 16 20 17                0.002378210
  -6264619.418 8  -4880640.469 9  22156741.168        -527.345
  -2064170.559 5  -1613672.879 5  25221809.734       -1700.126
  -6928660.381 5  -1144736.427 5  24604622.793       -1337.564
  -2830255.893 5  -2209312.312 5  24404084.931       -2422.339
   3834619.719 7   2986962.310 7  23005545.690        3456.872
  11377674.979 7   8803919.935 7  22618259.664        3996.725
  -7853253.571 7  -5982118.103 7  22057125.599        -552.157
 93  5  8  3 53  0.0020000  0  7  3 22 26 23 16 20 17                0.002398050
  -6280389.353 8  -4892928.692 9  22153740.395        -524.191
  -2115038.601 5  -1653310.251 5  25212130.006       -1691.057
  -6968728.592 5  -1175958.262 5  24596998.123       -1333.835
  -2902875.282 6  -2265898.717 5  24390265.217       -2419.061
   3938488.854 7   3067899.288 7  23025311.342        3467.814
  11497725.354 7   8897465.641 7  22641104.228        4006.525
  -7869705.043 7  -5994937.385 8  22053994.509        -544.704
 93  5  8  3 53 30.0020000  0  7  3 22 26 23 16 20 17                0.002417840
  -6296063.766 8  -4905142.481 9  22150757.350        -521.145
  -2165639.055 5  -1692739.117 5  25202500.822       -1682.405
  -7008691.503 5  -1207098.072 5  24589391.971       -1330.516
  -2975396.553 5  -2322408.682 5  24376464.856       -2415.723
   4042691.677 7   3149096.277 7  23045140.450        3478.761
  11618067.657 7   8991238.864 7  22664004.676        4016.080
  -7885933.675 7  -6007583.023 8  22050906.605        -537.379
 93  5  8  3 54  0.0020000  0  7  3 22 26 23 16 20 17                0.002437600
  -6311648.993 8  -4917286.796 9  22147791.393        -517.964
  -2215979.396 5  -1731965.267 5  25192920.965       -1673.494
  -7048552.925 5  -1238158.781 5  24581807.095       -1326.798
  -3047808.238 5  -2378833.241 5  24362685.061       -2411.557
   4147221.117 7   3230547.763 7  23065031.736        3490.031
  11738691.834 7   9085231.717 7  22686958.513        4025.587
  -7901948.110 7  -6020061.752 8  22047859.356        -530.108
 93  5  8  3 54 30.0020000  0  7  3 22 26 23 16 20 17                0.002457310
  -6327149.220 8  -4929364.841 9  22144842.135        -515.419
  -2266058.436 5  -1770987.835 5  25183391.150       -1664.979
  -7088310.715 5  -1269138.732 5  24574240.514       -1323.500
  -3120097.615 5  -2435162.542 5  24348929.055       -2407.611
   4252084.335 7   3312259.349 7  23084986.452        3500.968
  11859589.468 7   9179437.650 7  22709964.858        4034.368
  -7917757.837 7  -6032380.975 8  22044850.318        -523.747
 93  5  8  3 55  0.0020000  0  7  3 22 26 23 16 20 17                0.002476990
  -6342565.952 8  -4941377.849 9  22141908.724        -512.658
  -2315888.607 5  -1809816.478 5  25173908.700       -1657.042
  -7127952.310 5  -1300028.147 5  24566697.666       -1319.235
  -3192258.051 5  -2491391.354 5  24335197.557       -2403.314
   4357284.976 7   3394233.868 7  23105005.388        3512.425
  11980755.245 7   9273852.513 7  22733022.107        4043.219
  -7933369.935 7  -6044546.198 8  22041878.985        -517.080
 93  5  8  3 55 30.0020000  0  7  3 22 26 23 16 20 17                0.002496630
  -6357899.486 8  -4953326.038 9  22138990.857        -509.902
  -2365473.184 5  -1848453.752 5  25164473.297       -1648.516
  -7167457.044 5  -1330810.932 5  24559180.243       -1314.482
  -3264286.688 5  -2547517.449 5  24321490.676       -2398.782
   4462831.281 7   3476477.704 7  23125090.387        3523.725
  12102184.009 7   9368472.306 7  22756129.069        4051.912
  -7948778.264 7  -6056552.648 8  22038946.656        -510.183
 93  5  8  3 56  0.0020000  0  7  3 22 26 23 16 20 17                0.002516240
  -6373146.718 8  -4965206.969 9  22136089.186        -506.992
  -2414789.475 5  -1886881.979 5  25155088.704       -1639.548
  -7206821.352 5  -1361484.313 5  24551688.846       -1309.949
  -3336187.964 5  -2603544.282 5  24307808.557       -2394.854
   4568710.397 7   3558980.911 7  23145238.564        3534.796
  12223874.575 7   9463296.123 7  22779286.206        4060.574
  -7963977.815 7  -6068396.430 8  22036053.815        -503.291
 93  5  8  3 56 30.0020000  0  7  3 22 26 23 16 20 17                0.002535820
  -6388308.134 8  -4977021.019 9  22133204.411        -504.000
  -2463834.611 5  -1925098.867 5  25145755.653       -1630.086
  -7246039.320 5  -1392043.657 5  24544226.908       -1304.688
  -3407971.214 5  -2659479.146 5  24294147.938       -2390.730
   4674909.973 7   3641733.799 7  23165447.844        3545.202
  12345822.479 7   9558320.432 7  22802492.034        4069.201
  -7978971.442 7  -6080079.708 8  22033200.393        -496.387
 93  5  8  3 57  0.0020000  0  7  3 22 26 23 16 20 17                0.002555370
  -6403385.176 8  -4988769.343 9  22130335.189        -501.478
  -2512596.950 5  -1963095.499 5  25136476.361       -1620.643
  -7285106.637 5  -1422485.585 5  24536790.414       -1300.054
  -3479639.427 5  -2715324.396 5  24280510.489       -2387.203
   4781415.726 7   3724725.271 7  23185715.193        3555.080
  12468021.907 7   9653540.746 7  22825745.774        4077.287
  -7993753.173 7  -6091597.926 8  22030387.841        -489.244
 93  5  8  3 57 30.0020000  0  7  3 22 26 23 16 20 17                0.002574880
  -6418396.115 8  -5000466.154 9  22127478.225        -499.517
  -2561073.842 5  -2000869.635 5  25127251.166       -1611.209
  -7324056.169 5  -1452835.756 5  24529378.951       -1296.734
  -3551214.502 5  -2771097.040 5  24266889.531       -2384.573
   4888201.604 7   3807935.023 7  23206035.958        3563.888
  12590450.195 7   9748939.402 7  22849043.148        4084.542
  -8008329.211 7  -6102955.804 8  22027614.569        -482.685
 93  5  8  3 58  0.0020000  0  7  3 22 26 23 16 20 17                0.002594340
  -6433340.437 8  -5012111.055 9  22124634.364        -497.269
  -2609260.467 5  -2038417.555 5  25118081.754       -1601.666
  -7362900.811 5  -1483104.232 5  24521987.490       -1293.113
  -3622704.714 5  -2826803.608 5  24253285.060       -2381.472
   4995259.160 7   3891356.481 7  23226408.365        3573.120
  12713103.217 7   9844513.173 7  22872383.298        4092.044
  -8022702.128 7  -6114155.464 8  22024880.005        -475.764
 93  5  8  3 58 30.0020000  0  7  3 22 26 23 16 20 17                0.002613760
  -6448220.647 8  -5023705.990 9  22121803.035        -495.047
  -2657172.114 5  -2075751.299 5  25108964.045       -1592.296
  -7401633.328 5  -1513285.299 5  24514617.521       -1289.366
  -3694105.388 5  -2882440.325 5  24239697.516       -2378.509
   5102584.828 7   3974986.854 6  23246831.645        3582.051
  12835974.257 7   9940256.823 7  22895764.840        4099.337
  -8036872.020 7  -6125196.889 8  22022183.309        -468.938
 93  5  8  3 59  0.0020000  0  7  3 22 26 23 16 20 17                0.002633110
  -6463043.477 8  -5035256.215 9  22118982.116        -493.090
  -2704817.315 5  -2112877.375 5  25099897.442       -1583.833
  -7440274.609 5  -1543395.285 5  24507264.015       -1286.296
  -3765430.922 6  -2938018.553 5  24226125.049       -2376.276
   5210181.367 7   4058828.299 6  23267306.596        3591.255
  12959052.182 7  10036161.681 7  22919185.738        4106.148
  -8050846.366 7  -6136085.945 8  22019524.321        -462.528
 93  5  8  3 59 30.0020000  0  7  3 22 26 23 16 20 17                0.002652400
  -6477798.536 8  -5046753.640 9  22116174.322        -490.775
  -2752205.999 5  -2149803.572 5  25090880.252       -1575.559
  -7478805.379 5  -1573419.160 5  24499932.554       -1282.274
  -3836682.308 5  -2993539.027 5  24212566.007       -2373.890
   5318058.312 7   4142888.229 6  23287834.699        3600.548
  13082343.461 7  10132232.798 7  22942647.476        4113.234
  -8064628.706 7  -6146825.398 8  22016901.236        -456.395
 93  5  8  4  0  0.0020000  0  7  3 22 26 23 16 20 17                0.002671620
  -6492493.288 8  -5058204.058 9  22113378.158        -488.838
  -2799354.175 5  -2186542.369 5  25081908.257       -1567.464
  -7517218.402 5  -1603351.275 5  24492623.387       -1278.272
  -3907867.499 6  -3049007.876 5  24199019.678       -2371.486
   5426200.418 7   4227154.781 6  23308413.650        3609.157
  13205835.875 7  10228460.646 7  22966147.496        4119.870
  -8078242.510 7  -6157433.510 8  22014310.410        -450.902
 93  5  8  4  0 30.0020000  0  7  3 22 26 23 16 20 17                0.002690760
  -6507126.070 8  -5069606.192 9  22110593.432        -486.735
  -2846267.814 5  -2223098.394 5  25072980.945       -1559.671
  -7555510.345 6  -1633188.994 5  24485336.180       -1274.292
  -3978986.197 6  -3104424.921 5  24185486.447       -2369.525
   5534601.529 7   4311623.160 6  23329041.911        3617.672
  13329526.750 7  10324843.115 7  22989684.563        4126.374
  -8091690.022 7  -6167912.048 8  22011751.731        -445.463
 93  5  8  4  1  0.0020000  0  7  3 22 26 23 16 20 17                0.002709830
  -6521691.529 8  -5080955.884 9  22107821.564        -484.561
  -2892937.084 5  -2259464.050 5  25064100.335       -1551.717
  -7593672.164 6  -1662925.390 5  24478072.969       -1269.650
  -4050030.191 6  -3159783.748 5  24171967.638       -2366.750
   5643260.715 7   4396292.647 6  23349719.079        3625.905
  13453416.637 7  10421380.662 7  23013260.163        4132.847
  -8104971.399 7  -6178261.152 8  22009224.620        -440.005
 93  5  8  4  1 30.0020000  0  7  3 22 26 23 16 20 17                0.002728830
  -6536195.305 8  -5092257.500 9  22105061.803        -482.683
  -2939365.822 5  -2295642.243 5  25055264.576       -1543.664
  -7631691.279 6  -1692550.560 5  24470837.940       -1265.251
  -4120989.839 6  -3215076.872 5  24158464.455       -2363.946
   5752150.462 7   4481141.766 6  23370440.078        3633.327
  13577496.118 7  10518065.957 7  23036871.716        4138.950
  -8118095.859 7  -6188487.958 8  22006727.108        -435.024
 93  5  8  4  2  0.0020000  0  7  3 22 26 23 16 20 17                0.002747770
  -6550636.234 8  -5103510.147 9  22102313.668        -480.380
  -2985539.415 5  -2331621.643 5  25046478.083       -1534.772
  -7669582.041 5  -1722075.710 5  24463627.482       -1260.950
  -4191852.433 6  -3270294.351 5  24144979.418       -2360.314
   5861276.708 7   4566175.184 6  23391205.884        3641.677
  13701761.226 7  10614895.892 7  23060518.624        4145.289
  -8131060.631 7  -6198590.328 8  22004259.978        -429.273
 93  5  8  4  2 30.0020000  0  7  3 22 26 23 16 20 17                0.002766640
  -6565011.645 8  -5114711.750 9  22099578.081        -478.128
  -3031459.496 5  -2367403.443 5  25037739.221       -1526.218
  -7707349.509 5  -1751504.811 5  24456440.054       -1256.805
  -4262611.509 6  -3325431.192 5  24131514.511       -2356.667
   5970654.256 7   4651404.428 6  23412019.779        3650.212
  13826210.580 7  10711869.398 6  23084200.603        4151.397
  -8143857.062 7  -6208561.530 8  22001824.772        -423.746
 93  5  8  4  3  0.0020000  0  7  3 22 26 23 16 20 17                0.002785450
  -6579322.586 8  -5125863.107 9  22096854.615        -476.113
  -3077122.160 5  -2402984.733 5  25029049.976       -1517.829
  -7744992.498 6  -1780836.890 5  24449276.945       -1252.819
  -4333258.370 6  -3380480.595 5  24118070.454       -2353.269
   6080281.027 7   4736827.869 6  23432881.251        3658.344
  13950838.461 6  10808982.006 6  23107916.672        4157.143
  -8156489.072 7  -6218404.634 8  21999421.169        -418.366
 93  5  8  4  3 30.0020000  0  7  3 22 26 23 16 20 17                0.002804180
  -6593576.248 8  -5136969.821 9  22094142.222        -474.328
  -3122530.000 5  -2438367.416 5  25020409.565       -1509.276
  -7782529.513 5  -1810086.390 5  24442133.207       -1249.802
  -4403816.116 6  -3435460.543 5  24104643.933       -2350.657
   6190153.780 7   4822442.980 6  23453789.296        3666.634
  14075633.173 6  10906224.624 6  23131664.191        4162.485
  -8168968.492 7  -6228128.829 8  21997046.133        -413.480
 93  5  8  4  4  0.0020000  0  7  3 22 26 23 16 20 17                0.002822840
  -6607773.628 8  -5148032.696 9  22091440.573        -472.345
  -3167678.577 5  -2473548.061 5  25011817.875       -1500.534
  -7819971.642 5  -1839261.983 5  24435007.839       -1246.380
  -4474294.548 6  -3490378.688 5  24091231.624       -2347.837
   6300275.327 7   4908251.963 6  23474744.683        3674.693
  14200589.092 6  11003592.860 6  23155442.311        4167.888
  -8181291.298 7  -6237730.958 8  21994701.246        -408.037
 93  5  8  4  4 30.0020000  0  7  3 22 26 23 16 20 17                0.002841420
  -6621910.039 8  -5159048.043 9  22088750.397        -470.335
  -3212566.695 5  -2508525.783 5  25003275.979       -1491.869
  -7857307.518 5  -1868354.773 5  24427903.255       -1242.626
  -4544685.402 6  -3545228.584 5  24077836.852       -2344.822
   6410627.412 7   4994240.583 6  23495743.861        3681.977
  14325706.586 6  11101086.975 6  23179251.448        4173.200
  -8193453.861 7  -6247208.265 8  21992386.757        -402.871
 93  5  8  4  5  0.0020000  0  7  3 22 26 23 16 20 17                0.002859930
  -6635986.565 8  -5170016.765 9  22086071.621        -468.179
  -3257180.337 5  -2543289.659 5  24994786.249       -1482.209
  -7894529.231 5  -1897358.581 5  24420820.244       -1238.566
  -4614989.740 6  -3600011.090 5  24064458.163       -2342.024
   6521193.604 7   5080396.029 6  23516784.096        3689.317
  14450979.678 6  11198702.339 6  23203090.095        4178.501
  -8205461.564 7  -6256564.895 8  21990102.019        -397.501
 93  5  8  4  5 30.0020000  0  7  3 22 26 23 16 20 17                0.002878390
  -6649994.304 8  -5180931.840 9  22083406.165        -465.923
  -3301500.258 5  -2577824.581 5  24986352.267       -1472.454
  -7931616.175 5  -1926257.370 5  24413762.681       -1233.844
  -4685198.493 6  -3654719.117 6  24051098.730       -2338.467
   6631986.541 7   5166728.197 6  23537867.444        3696.799
  14576412.915 6  11296442.529 6  23226959.461        4183.697
  -8217306.434 7  -6265794.612 8  21987847.600        -392.097
 93  5  8  4  6  0.0020000  0  7  3 22 26 23 16 20 17                0.002896790
  -6663933.938 8  -5191793.889 9  22080753.732        -463.582
  -3345531.859 6  -2612134.880 5  24977972.768       -1462.943
  -7968552.487 5  -1955038.798 5  24406734.708       -1228.537
  -4755286.033 6  -3709332.686 6  24037760.959       -2334.005
   6742999.702 7   5253231.939 6  23558992.495        3704.212
  14702001.485 6  11394303.725 6  23250858.056        4188.843
  -8228982.169 7  -6274892.556 9  21985626.055        -386.410
 93  5  8  4  6 30.0020000  0  7  3 22 26 23 16 20 17                0.002915140
  -6677796.042 8  -5202595.491 9  22078115.919        -460.811
  -3389269.352 5  -2646215.976 5  24969649.929       -1452.980
  -8005318.508 5  -1983687.569 5  24399738.280       -1222.457
  -4825236.582 6  -3763839.502 6  24024449.732       -2329.459
   6854250.232 7   5339920.640 6  23580162.764        3712.471
  14827749.782 6  11492289.399 6  23274786.832        4194.310
  -8240483.978 7  -6283854.974 9  21983437.094        -380.391
 93  5  8  4  7  0.0020000  0  7  3 22 26 23 16 20 17                0.002933460
  -6691569.076 8  -5213327.716 9  22075494.873        -457.322
  -3432703.468 5  -2680060.743 5  24961384.807       -1442.477
  -8041894.536 6  -2012188.255 5  24392778.570       -1215.757
  -4895054.908 6  -3818243.336 6  24011163.327       -2324.837
   6965755.603 7   5426807.930 6  23601381.540        3721.410
  14953665.089 6  11590405.201 6  23298747.562        4200.291
  -8251801.258 8  -6292673.598 9  21981283.594        -373.950
 93  5  8  4  7 30.0020000  0  7  3 22 26 23 16 20 17                0.002951730
  -6705240.128 8  -5223980.450 9  22072893.345        -454.138
  -3475840.970 5  -2713674.341 5  24953175.907       -1433.271
  -8078273.958 5  -2040535.756 5  24385854.816       -1209.486
  -4964732.569 6  -3872537.511 6  23997904.376       -2320.281
   7077521.858 7   5513898.521 6  23622649.648        3729.643
  15079755.359 6  11688657.348 6  23322742.089        4205.854
  -8262931.052 8  -6301346.123 9  21979165.508        -367.979
 93  5  8  4  8  0.0020000  0  7  3 22 26 23 16 20 17                0.002969940
  -6718805.872 8  -5234551.146 9  22070311.762        -450.520
  -3518693.953 6  -2747066.223 5  24945021.620       -1423.677
  -8114465.501 6  -2068736.883 5  24378969.011       -1203.375
  -5034275.111 6  -3926726.418 6  23984670.618       -2316.132
   7189533.797 7   5601180.513 6  23643965.024        3737.678
  15206019.693 6  11787045.116 6  23346769.239        4211.673
  -8273877.798 8  -6309876.021 9  21977082.504        -361.983
 93  5  8  4  8 30.0020000  0  7  3 22 26 23 16 20 17                0.002988080
  -6732260.035 8  -5245034.892 9  22067751.422        -446.680
  -3561258.944 6  -2780233.722 5  24936921.606       -1414.021
  -8150474.770 5  -2096795.954 5  24372115.751       -1197.216
  -5103699.589 6  -3980823.338 6  23971459.596       -2312.239
   7301780.959 6   5688645.832 6  23665325.071        3745.316
  15332459.237 6  11885569.412 6  23370830.220        4217.581
  -8284650.690 8  -6318270.475 9  21975032.612        -356.242
 93  5  8  4  9  0.0030000  0  7  3 22 26 23 16 20 17                0.003006150
  -6745600.509 8  -5255430.038 9  22065212.869        -442.558
  -3603539.896 6  -2813179.919 5  24928876.095       -1404.217
  -8186297.098 6  -2124709.363 5  24365298.884       -1190.558
  -5173005.866 6  -4034828.124 6  23958271.023       -2307.561
   7414254.970 6   5776287.902 6  23686728.078        3753.031
  15459076.620 6  11984232.283 6  23394924.570        4223.589
  -8295253.551 8  -6326532.411 9  21973014.699        -350.300
 93  5  8  4  9 30.0030000  0  7  3 22 26 23 16 20 17                0.003024180
  -6758813.509 8  -5265725.866 9  22062698.441        -438.615
  -3645512.399 6  -2845885.719 5  24920888.853       -1394.055
  -8221914.970 6  -2152463.447 5  24358522.522       -1184.071
  -5242158.289 6  -4088713.061 6  23945112.006       -2302.583
   7526963.976 6   5864113.090 6  23708175.931        3760.799
  15585871.607 6  12083033.565 6  23419052.766        4229.288
  -8305669.039 8  -6334648.343 9  21971032.461        -344.167
 93  5  8  4 10  0.0030000  0  7  3 22 26 23 16 20 17                0.003042150
  -6771907.782 8  -5275929.162 9  22060206.667        -434.330
  -3687170.944 6  -2878346.874 5  24912961.704       -1382.907
  -8257330.264 6  -2180059.702 5  24351782.513       -1176.636
  -5311158.951 6  -4142479.710 6  23931981.226       -2297.182
   7639904.491 6   5952118.680 6  23729667.704        3768.858
  15712834.993 6  12181966.055 6  23443212.931        4235.157
  -8315901.120 8  -6342621.356 9  21969085.359        -337.733
 93  5  8  4 10 30.0030000  0  7  3 22 26 23 16 20 17                0.003060090
  -6784868.851 8  -5286028.682 9  22057740.115        -429.932
  -3728485.057 6  -2910539.675 5  24905099.776       -1371.256
  -8292509.764 6  -2207472.200 5  24345086.938       -1168.597
  -5379984.850 6  -4196110.199 6  23918884.063       -2291.253
   7753101.870 6   6040324.405 6  23751208.530        3777.580
  15839976.691 6  12281037.487 6  23467406.972        4240.984
  -8325939.104 8  -6350443.145 9  21967175.172        -331.353
 93  5  8  4 11  0.0030000  0  7  3 22 26 23 16 20 17                0.003078020
  -6797708.971 8  -5296033.948 9  22055296.667        -426.233
  -3769454.192 6  -2942463.624 5  24897303.539       -1359.776
  -8327457.269 6  -2234703.958 5  24338436.712       -1161.426
  -5448645.766 6  -4249612.124 6  23905818.469       -2285.991
   7866547.154 6   6128723.322 6  23772796.556        3785.395
  15967280.146 6  12380234.946 6  23491632.452        4245.963
  -8335791.929 8  -6358120.635 9  21965300.329        -325.439
 93  5  8  4 11 30.0030000  0  7  3 22 26 23 16 20 17                0.003095930
  -6810419.744 8  -5305938.422 9  22052877.938        -421.608
  -3810054.380 6  -2974100.162 5  24889577.366       -1347.204
  -8362182.755 6  -2261762.705 5  24331829.274       -1153.692
  -5517130.725 6  -4302976.932 6  23892786.239       -2279.886
   7980238.736 6   6217314.134 6  23794431.197        3793.664
  16094749.350 6  12479561.597 6  23515889.218        4251.740
  -8345450.862 8  -6365647.046 9  21963462.332        -318.723
 93  5  8  4 12  0.0030000  0  7  3 22 26 23 16 20 17                0.003113820
  -6822993.435 8  -5315736.079 9  22050485.206        -417.144
  -3850283.921 6  -3005447.776 5  24881921.856       -1335.009
  -8396676.275 6  -2288640.682 5  24325264.903       -1146.173
  -5585436.348 6  -4356202.000 6  23879788.255       -2274.140
   8094166.223 6   6306088.791 6  23816110.927        3801.255
  16222386.550 6  12579019.132 6  23540177.775        4257.143
  -8354911.500 8  -6373018.946 9  21961661.999        -312.208
 93  5  8  4 12 30.0030000  0  7  3 22 26 23 16 20 17                0.003131690
  -6835426.305 8  -5325424.007 9  22048119.324        -411.990
  -3890145.426 6  -3036508.695 5  24874336.788       -1322.548
  -8430950.690 6  -2315347.939 5  24318741.739       -1138.890
  -5653559.590 6  -4409284.951 6  23866824.473       -2267.517
   8208324.998 6   6395043.667 6  23837834.752        3809.201
  16350191.316 6  12678607.248 6  23564498.366        4263.132
  -8364166.242 8  -6380230.396 9  21959900.909        -304.699
 93  5  8  4 13  0.0030000  0  7  3 22 26 23 16 20 17                0.003149520
  -6847710.160 8  -5334995.815 9  22045781.845        -407.172
  -3929642.243 6  -3067285.377 5  24866820.275       -1310.704
  -8465017.639 6  -2341893.569 5  24312259.653       -1132.326
  -5721493.300 6  -4462220.235 6  23853897.440       -2261.350
   8322707.206 6   6484172.632 6  23859601.110        3816.268
  16478166.849 6  12778328.433 6  23588851.418        4268.597
  -8373194.321 8  -6387265.240 9  21958182.707        -297.217
 93  5  8  4 13 30.0030000  0  7  3 22 26 23 16 20 17                0.003167290
  -6859846.714 8  -5344452.867 9  22043472.272        -402.284
  -3968789.921 6  -3097790.047 5  24859370.891       -1299.228
  -8498874.812 6  -2368275.728 5  24305816.210       -1124.821
  -5789241.083 6  -4515010.660 6  23841005.177       -2255.329
   8437311.520 6   6573474.669 6  23881409.560        3823.940
  16606306.857 6  12878177.747 6  23613235.690        4273.982
  -8382000.549 8  -6394127.220 9  21956506.874        -289.889
 93  5  8  4 14  0.0030000  0  7  3 22 26 23 16 20 17                0.003185020
  -6871831.513 8  -5353791.636 9  22041191.651        -396.947
  -4007591.764 6  -3128025.213 5  24851987.374       -1287.442
  -8532504.817 6  -2394480.844 5  24299417.280       -1117.266
  -5856808.291 6  -4567660.353 6  23828147.639       -2249.181
   8552151.769 6   6662960.548 6  23903262.977        3832.003
  16734610.750 6  12978154.804 6  23637651.077        4279.607
  -8390581.413 8  -6400813.554 9  21954873.937        -282.268
 93  5  8  4 14 30.0030000  0  7  3 22 26 23 16 20 17                0.003202690
  -6883656.344 8  -5363005.774 9  22038941.578        -391.536
  -4046042.195 6  -3157986.538 5  24844670.803       -1275.795
  -8565907.317 6  -2420508.688 5  24293061.351       -1109.295
  -5924185.062 6  -4620161.645 6  23815326.024       -2242.556
   8667232.159 6   6752633.569 6  23925161.939        3840.103
  16863082.323 6  13078262.480 6  23662098.680        4285.217
  -8398934.248 8  -6407322.230 9  21953284.587        -274.576
 93  5  8  4 15  0.0030000  0  7  3 22 26 23 16 20 17                0.003220320
  -6895321.294 8  -5372095.321 9  22036721.816        -386.188
  -4084139.667 6  -3187672.866 5  24837421.071       -1263.945
  -8599060.763 5  -2446342.466 5  24286753.007       -1100.700
  -5991369.246 6  -4672512.899 6  23802541.473       -2236.179
   8782552.885 6   6842493.848 6  23947106.676        3848.168
  16991716.613 6  13178496.959 6  23686576.704        4290.502
  -8407065.252 8  -6413658.056 9  21951737.198        -267.375
 93  5  8  4 15 30.0030000  0  7  3 22 26 23 16 20 17                0.003237930
  -6906815.934 8  -5381052.150 9  22034534.419        -380.412
  -4121871.576 6  -3217074.295 5  24830240.762       -1251.397
  -8631937.401 6  -2471960.605 5  24280495.061       -1091.285
  -6058339.975 6  -4724697.791 6  23789796.895       -2228.521
   8898127.406 6   6932551.880 6  23969100.196        3856.746
  17120519.144 6  13278862.574 6  23711087.075        4296.203
  -8414971.398 8  -6419818.662 9  21950232.540        -259.661
 93  5  8  4 16  0.0030000  0  7  3 22 26 23 16 20 17                0.003255500
  -6918146.078 8  -5389880.793 9  22032378.241        -374.614
  -4159234.414 6  -3246188.137 5  24823130.683       -1238.915
  -8664548.241 6  -2497371.541 5  24274289.550       -1082.222
  -6125078.925 6  -4776702.091 6  23777096.791       -2220.245
   9013940.269 6   7022795.640 6  23991138.738        3864.647
  17249479.819 6  13379351.393 6  23735627.716        4301.692
  -8422652.332 8  -6425803.752 9  21948770.932        -251.986
 93  5  8  4 16 30.0030000  0  7  3 22 26 23 16 20 17                0.003273060
  -6929302.945 8  -5398574.435 9  22030255.242        -369.177
  -4196219.195 6  -3275007.421 5  24816092.280       -1226.393
  -8696880.976 6  -2522565.870 5  24268136.637       -1073.123
  -6191571.412 6  -4828514.350 6  23764443.581       -2212.521
   9129994.463 6   7113227.450 6  24013223.110        3872.470
  17378602.407 6  13479966.371 6  23760198.996        4306.696
  -8430104.541 8  -6431610.648 9  21947352.903        -244.595
 93  5  8  4 17  0.0030000  0  7  3 22 26 23 16 20 17                0.003290590
  -6940291.298 8  -5407136.751 9  22028164.159        -363.624
  -4232817.595 6  -3303525.631 5  24809128.045       -1213.352
  -8728937.574 6  -2547544.978 5  24262036.971       -1064.071
  -6257835.529 6  -4880148.680 6  23751834.005       -2205.037
   9246286.783 6   7203844.814 6  24035353.001        3880.278
  17507877.275 6  13580700.027 6  23784799.475        4311.644
  -8437330.827 8  -6437241.482 9  21945977.797        -237.051
 93  5  8  4 17 30.0030000  0  7  3 22 26 23 16 20 17                0.003308100
  -6951108.881 8  -5415566.002 9  22026105.715        -357.985
  -4269020.280 6  -3331735.456 5  24802238.964       -1200.181
  -8760724.865 6  -2572314.225 5  24255988.077       -1055.314
  -6323870.156 6  -4931604.161 6  23739267.819       -2197.632
   9362811.031 6   7294642.894 6  24057526.478        3887.787
  17637302.087 6  13681550.497 6  23809428.136        4316.489
  -8444321.513 8  -6442688.740 9  21944647.288        -229.196
 93  5  8  4 18  0.0030000  0  7  3 22 26 23 16 20 17                0.003325590
  -6961754.576 8  -5423861.319 9  22024079.846        -351.894
  -4304815.917 6  -3359628.147 5  24795427.584       -1186.194
  -8792253.324 6  -2596881.837 5  24249988.834       -1046.364
  -6389693.366 6  -4982894.908 6  23726742.058       -2190.778
   9479560.092 6   7385616.169 6  24079743.361        3895.586
  17766873.209 6  13782514.986 6  23834084.779        4321.677
  -8451074.660 8  -6447950.898 9  21943362.315        -221.107
 93  5  8  4 18 30.0030000  0  7  3 22 26 23 16 20 17                0.003343060
  -6972223.366 8  -5432018.796 9  22022087.776        -346.249
  -4340198.471 6  -3387198.905 5  24788694.470       -1172.639
  -8823512.748 6  -2621239.760 5  24244039.483       -1037.588
  -6455325.879 6  -5034037.064 6  23714252.424       -2184.627
   9596541.379 6   7476770.381 6  24102004.131        3903.176
  17896590.503 6  13883593.356 6  23858768.697        4326.205
  -8457593.831 8  -6453030.744 9  21942121.853        -213.480
 93  5  8  4 19  0.0030000  0  7  3 22 26 23 16 20 17                0.003360510
  -6982513.373 8  -5440036.943 9  22020129.549        -340.304
  -4375170.474 6  -3414449.797 5  24782039.432       -1159.173
  -8854501.048 6  -2645386.425 5  24238142.723       -1028.410
  -6520761.469 6  -5085025.774 6  23701800.655       -2177.743
   9713758.386 6   7568108.287 6  24124309.607        3910.965
  18026451.008 6  13984783.344 6  23883480.510        4330.872
  -8463878.851 8  -6457928.112 9  21940925.953        -205.893
 93  5  8  4 19 30.0030000  0  7  3 22 26 23 16 20 17                0.003377940
  -6992626.270 8  -5447917.096 9  22018205.084        -334.201
  -4409747.859 6  -3441393.161 5  24775459.486       -1146.068
  -8885202.547 6  -2669309.624 5  24232300.332       -1018.338
  -6585987.357 6  -5135851.086 6  23689388.728       -2170.806
   9831209.367 6   7659628.468 6  24146659.791        3919.050
  18156448.396 6  14086079.968 6  23908218.397        4335.544
  -8469947.087 8  -6462656.581 9  21939771.222        -198.877
 93  5  8  4 20  0.0030000  0  7  3 22 26 23 16 20 17                0.003395350
  -7002559.051 8  -5455656.900 9  22016314.913        -328.159
  -4443936.457 6  -3468033.609 5  24768953.449       -1133.149
  -8915600.271 6  -2692996.124 5  24226516.579       -1008.019
  -6651013.038 6  -5186520.374 6  23677014.573       -2164.109
   9948900.515 6   7751335.823 6  24169055.566        3927.075
  18286581.137 6  14187482.080 6  23932981.862        4340.006
  -8475819.730 8  -6467232.634 9  21938653.586        -192.621
 93  5  8  4 20 30.0030000  0  7  3 22 26 23 16 20 17                0.003412750
  -7012314.560 8  -5463258.564 9  22014458.406        -322.626
  -4477754.200 6  -3494385.054 5  24762517.961       -1121.513
  -8945684.442 6  -2716438.261 5  24220791.198        -997.911
  -6715823.870 6  -5237022.261 6  23664681.040       -2156.850
  10066828.598 6   7843227.801 6  24191496.655        3934.435
  18416841.300 6  14288983.488 6  23957769.111        4343.778
  -8481512.918 8  -6471668.855 9  21937570.216        -187.038
 93  5  8  4 21  0.0030000  0  7  3 22 26 23 16 20 17                0.003430120
  -7021890.450 8  -5470720.265 9  22012636.160        -316.223
  -4511205.581 6  -3520451.047 5  24756152.414       -1108.780
  -8975451.980 6  -2739633.698 5  24215125.902        -986.810
  -6780406.110 6  -5287346.019 6  23652391.270       -2148.986
  10184977.357 6   7935291.743 6  24213979.530        3941.703
  18547226.464 6  14390582.280 6  23982580.845        4348.250
  -8487024.330 8  -6475963.433 9  21936521.271        -180.665
 93  5  8  4 21 30.0030000  0  7  3 22 26 23 16 20 17                0.003447460
  -7031278.573 8  -5478035.682 9  22010849.706        -309.989
  -4544277.800 6  -3546221.552 5  24749858.970       -1096.010
  -9004894.776 6  -2762576.080 5  24209523.539        -976.516
  -6844757.804 6  -5337490.150 6  23640145.661       -2141.284
  10303324.231 6   8027510.053 6  24236500.091        3947.915
  18677739.832 6  14492280.989 6  24007416.461        4352.451
  -8492347.786 8  -6480111.540 9  21935508.133        -174.305
 93  5  8  4 22  0.0030000  0  7  3 22 26 23 16 20 17                0.003464770
  -7040479.839 8  -5485205.456 9  22009098.698        -303.424
  -4576958.606 6  -3571687.101 5  24743640.042       -1082.498
  -9034046.876 6  -2785291.919 5  24203975.613        -966.862
  -6908878.334 6  -5387454.140 6  23627943.965       -2132.946
  10421851.549 6   8119868.975 6  24259055.455        3954.132
  18808376.199 6  14594075.528 6  24032275.490        4356.843
  -8497474.929 8  -6484106.690 9  21934532.599        -167.192
 93  5  8  4 22 30.0030000  0  7  3 22 26 23 16 20 17                0.003482040
  -7049492.749 8  -5492228.480 9  22007383.607        -297.455
  -4609251.059 6  -3596849.973 5  24737494.768       -1069.995
  -9062916.950 6  -2807788.029 5  24198481.940        -957.761
  -6972753.353 6  -5437226.808 6  23615788.816       -2125.365
  10540546.435 6   8212358.486 5  24281642.077        3959.039
  18939131.974 6  14695963.112 5  24057157.650        4360.408
  -8502394.236 8  -6487939.880 9  21933596.224        -160.428
 93  5  8  4 23  0.0030000  0  7  3 22 26 23 16 20 17                0.003499260
  -7058314.298 8  -5499102.383 9  22005704.997        -291.029
  -4641145.095 6  -3621702.430 5  24731425.590       -1056.390
  -9091510.589 6  -2830068.743 5  24193041.136        -948.490
  -7036401.958 6  -5486823.073 6  23603676.795       -2118.003
  10659401.847 6   8304973.054 5  24304259.715        3964.537
  19070005.021 6  14797942.082 5  24082062.154        4364.267
  -8507091.773 8  -6491600.270 9  21932702.358        -152.904
 93  5  8  4 23 30.0030000  0  7  3 22 26 23 16 20 17                0.003516430
  -7066947.419 8  -5505829.487 9  22004062.155        -284.774
  -4672637.458 6  -3646241.890 5  24725432.467       -1043.017
  -9119836.784 6  -2852141.069 5  24187651.353        -939.922
  -7099836.062 6  -5536252.204 6  23591605.740       -2110.884
  10778426.437 6   8397719.428 5  24326909.231        3970.565
  19200987.760 6  14900006.532 5  24106987.509        4367.875
  -8511569.715 8  -6495089.550 9  21931850.456        -145.595
 93  5  8  4 24  0.0030000  0  7  3 22 26 23 16 20 17                0.003533570
  -7075392.400 8  -5512409.957 9  22002455.067        -278.695
  -4703727.355 6  -3670467.734 5  24719516.415       -1029.996
  -9147890.422 6  -2874000.969 5  24182312.739        -930.374
  -7163050.217 6  -5585509.917 6  23579576.789       -2103.519
  10897642.547 6   8490615.105 5  24349595.433        3976.858
  19332075.032 6  15002152.460 5  24131932.253        4371.083
  -8515827.591 8  -6498407.335 9  21931040.157        -138.451
 93  5  8  4 24 30.0030000  0  7  3 22 26 23 16 20 17                0.003550660
  -7083656.928 8  -5518849.836 9  22000882.307        -272.705
  -4734434.766 6  -3694395.523 5  24713672.970       -1017.113
  -9175650.737 6  -2895632.312 5  24177030.118        -920.584
  -7226044.884 6  -5634596.611 6  23567589.177       -2096.374
  11017042.186 6   8583653.758 5  24372316.516        3982.854
  19463254.240 6  15104369.996 5  24156895.238        4373.991
  -8519870.618 8  -6501557.712 9  21930270.770        -131.355
 93  5  8  4 25  0.0030000  0  7  3 22 26 23 16 20 17                0.003567710
  -7091752.555 8  -5525158.091 9  21999341.683        -267.157
  -4764753.976 6  -3718020.858 5  24707903.596       -1004.178
  -9203128.804 6  -2917043.742 5  24171801.125        -911.087
  -7288831.639 6  -5683521.304 6  23555641.239       -2089.256
  11136612.350 6   8676825.272 5  24395069.926        3988.459
  19594509.054 6  15206646.461 5  24181872.143        4376.312
  -8523713.035 8  -6504551.777 9  21929539.467        -124.926
 93  5  8  4 25 30.0030000  0  7  3 22 26 23 16 20 17                0.003584720
  -7099680.129 8  -5531335.404 9  21997832.946        -261.369
  -4794683.053 6  -3741342.181 5  24702208.150        -990.891
  -9230313.257 6  -2938226.376 5  24166626.085        -900.980
  -7351393.741 6  -5732270.956 6  23543736.201       -2081.364
  11256344.337 6   8770122.882 5  24417854.330        3993.840
  19725833.514 6  15308977.170 5  24206862.129        4378.817
  -8527369.576 8  -6507400.991 9  21928843.468        -118.639
 93  5  8  4 26  0.0030000  0  7  3 22 26 23 16 20 17                0.003601690
  -7107434.552 8  -5537377.765 9  21996357.379        -255.655
  -4824218.345 6  -3764356.621 5  24696588.045        -978.091
  -9257191.601 6  -2959170.467 5  24161511.759        -890.830
  -7413719.866 6  -5780836.678 6  23531875.542       -2073.584
  11376230.106 6   8863540.378 5  24440667.940        3998.554
  19857227.966 6  15411362.456 5  24231865.747        4380.997
  -8530837.508 8  -6510103.242 9  21928183.524        -112.464
 93  5  8  4 26 30.0030000  0  7  3 22 26 23 16 20 17                0.003618620
  -7115005.451 8  -5543277.159 9  21994916.799        -249.394
  -4853350.702 6  -3787057.147 5  24691044.312        -964.124
  -9283760.341 6  -2979873.348 5  24156455.827        -880.580
  -7475813.962 6  -5829221.626 6  23520059.500       -2066.163
  11496258.322 6   8957068.810 5  24463508.293        4003.350
  19988698.125 6  15513806.715 5  24256884.089        4383.559
  -8534113.351 8  -6512655.817 9  21927560.086        -106.192
 93  5  8  4 27  0.0030000  0  7  3 22 26 23 16 20 17                0.003635520
  -7122383.944 8  -5549026.606 9  21993512.630        -242.858
  -4882062.510 6  -3809429.912 5  24685580.520        -950.161
  -9310016.888 6  -3000332.903 5  24151459.624        -869.915
  -7537680.577 6  -5877429.295 6  23508286.233       -2058.382
  11616441.001 6   9050717.636 5  24486378.126        4008.775
  20120247.630 6  15616312.799 5  24281917.550        4386.279
  -8537198.882 8  -6515060.084 9  21926972.802         -99.653
 93  5  8  4 27 30.0030000  0  7  3 22 26 23 16 20 17                0.003652390
  -7129564.363 8  -5554621.715 9  21992146.173        -235.982
  -4910357.156 6  -3831477.652 5  24680196.177        -936.057
  -9335960.833 6  -3020548.881 5  24146522.634        -859.662
  -7599311.840 6  -5925453.606 6  23496558.263       -2050.388
  11736790.620 6   9144496.557 5  24509280.062        4014.688
  20251877.707 6  15718881.660 5  24306965.625        4389.220
  -8540085.352 8  -6517309.259 9  21926423.684         -92.630
 93  5  8  4 28  0.0030000  0  7  3 22 26 23 16 20 17                0.003669230
  -7136550.402 8  -5560065.353 9  21990816.713        -229.607
  -4938243.935 6  -3853207.563 5  24674889.378        -922.648
  -9361606.990 6  -3040532.852 5  24141642.260        -849.686
  -7660718.458 6  -5973302.842 6  23484873.050       -2042.987
  11857307.394 6   9238405.693 6  24532213.558        4020.042
  20383579.629 6  15821506.518 5  24332027.799        4391.370
  -8542769.681 8  -6519400.905 9  21925912.856         -85.986
 93  5  8  4 28 30.0030000  0  7  3 22 26 23 16 20 17                0.003686030
  -7143333.411 8  -5565350.799 9  21989525.849        -222.629
  -4965713.519 6  -3874612.407 5  24669662.449        -908.415
  -9386938.389 6  -3060271.552 5  24136821.406        -838.892
  -7721888.738 6  -6020967.948 6  23473232.670       -2034.700
  11978001.467 6   9332452.990 6  24555180.901        4026.458
  20515357.194 6  15924190.311 5  24357104.191        4393.991
  -8545238.591 8  -6521324.710 9  21925442.841         -78.333
 93  5  8  4 29  0.0030000  0  7  3 22 26 23 16 20 17                0.003702810
  -7149904.165 8  -5570470.844 9  21988275.615        -215.532
  -4992757.675 6  -3895685.737 5  24664515.938        -894.418
  -9411944.815 6  -3079757.013 5  24132063.246        -828.023
  -7782795.229 6  -6068427.490 6  23461642.635       -2025.624
  12098892.187 6   9426653.538 6  24578185.658        4032.875
  20647214.418 6  16026936.179 5  24382195.846        4396.556
  -8547471.003 8  -6523064.220 9  21925017.967         -70.432
 93  5  8  4 29 30.0030000  0  7  3 22 26 23 16 20 17                0.003719560
  -7156261.066 8  -5575424.252 9  21987066.131        -208.338
  -5019383.434 6  -3916433.048 5  24659449.205        -880.404
  -9436620.269 6  -3098984.569 5  24127368.601        -816.726
  -7843432.586 6  -6115677.304 6  23450103.591       -2016.688
  12219963.095 6   9520994.483 6  24601224.579        4038.622
  20779148.278 6  16129741.758 5  24407301.825        4399.177
  -8549470.325 8  -6524622.105 9  21924637.410         -62.719
 93  5  8  4 30  0.0030000  0  7  3 22 26 23 16 20 17                0.003736280
  -7162394.082 8  -5580203.192 9  21985899.057        -200.847
  -5045580.612 6  -3936846.410 5  24654463.902        -866.156
  -9460938.048 6  -3117933.426 5  24122740.113        -804.522
  -7903793.989 6  -6162712.083 6  23438616.972       -2007.405
  12341208.757 6   9615471.605 6  24624296.876        4044.375
  20911163.694 6  16232610.881 5  24432423.534        4401.811
  -8551234.148 8  -6525996.478 9  21924301.785         -55.000
 93  5  8  4 30 30.0030000  0  7  3 22 26 23 16 20 17                0.003752970
  -7168296.763 8  -5584802.646 9  21984775.667        -192.998
  -5071347.842 6  -3956924.718 5  24649560.655        -851.749
  -9484894.284 6  -3136600.548 5  24118181.310        -792.743
  -7963872.231 6  -6209526.222 6  23427184.309       -1997.928
  12462633.885 6   9710088.581 6  24647403.682        4050.482
  21043262.454 6  16335544.955 5  24457561.224        4404.659
  -8552768.638 8  -6527192.154 9  21924009.814         -47.502
 93  5  8  4 31  0.0030000  0  7  3 22 26 23 16 20 17                0.003769640
  -7173963.544 8  -5589218.303 9  21983697.332        -185.133
  -5096688.768 6  -3976670.859 5  24644738.403        -837.725
  -9508496.802 6  -3154992.065 5  24113690.167        -780.895
  -8023669.711 6  -6256121.590 6  23415805.156       -1988.796
  12584230.681 6   9804839.292 6  24670542.509        4055.764
  21175444.745 6  16438544.104 5  24482714.572        4407.326
  -8554095.879 8  -6528226.350 9  21923757.387         -41.129
 93  5  8  4 31 30.0030000  0  7  3 22 26 23 16 20 17                0.003786300
  -7179385.463 8  -5593443.153 9  21982665.518        -176.430
  -5121597.679 6  -3996080.355 5  24639998.137        -822.579
  -9531731.542 6  -3173097.000 5  24109268.593        -768.036
  -8083187.711 6  -6302499.180 6  23404479.315       -1978.883
  12705996.613 6   9899721.809 6  24693713.986        4062.184
  21307715.177 6  16541611.973 5  24507885.094        4410.828
  -8555219.201 8  -6529101.632 9  21923543.536         -33.571
 93  5  8  4 32  0.0030000  0  7  3 22 26 23 16 20 17                0.003802940
  -7184556.326 8  -5597472.377 9  21981681.570        -168.359
  -5146059.424 6  -4015141.419 5  24635343.314        -807.953
  -9554594.248 6  -3190912.037 5  24104918.132        -756.091
  -8142418.425 6  -6348652.902 7  23393208.250       -1969.682
  12827948.204 6   9994749.013 6  24716920.480        4068.009
  21440074.808 6  16644749.337 5  24533071.692        4413.351
  -8556128.088 8  -6529809.836 9  21923370.476         -26.846
 93  5  8  4 32 30.0030000  0  7  3 22 26 23 16 20 17                0.003819580
  -7189465.791 8  -5601297.907 9  21980747.214        -159.258
  -5170061.939 6  -4033844.651 5  24630775.379        -792.065
  -9577082.248 6  -3208435.105 5  24100638.248        -743.092
  -8201358.030 6  -6394579.800 7  23381992.286       -1959.605
  12950085.523 6  10089920.965 5  24740162.565        4074.288
  21572529.300 6  16747960.613 5  24558276.935        4416.806
  -8556818.825 8  -6530348.045 9  21923238.958         -19.114
 93  5  8  4 33  0.0030000  0  7  3 22 26 23 16 20 17                0.003836220
  -7194099.777 8  -5604908.788 9  21979865.385        -149.887
  -5193580.148 6  -4052170.504 5  24626300.179        -775.690
  -9599167.824 6  -3225644.586 5  24096435.308        -729.254
  -8259990.934 6  -6440267.697 7  23370834.449       -1949.258
  13072408.503 6  10185237.554 5  24763439.738        4080.628
  21705087.300 6  16851252.540 5  24583501.836        4420.388
  -8557269.221 8  -6530698.976 9  21923153.246         -10.707
 93  5  8  4 33 30.0030000  0  7  3 22 26 23 16 20 17                0.003852870
  -7198449.273 8  -5608297.973 9  21979037.740        -140.227
  -5216594.380 6  -4070103.635 5  24621920.584        -758.498
  -9620836.286 6  -3242529.039 5  24092312.228        -715.223
  -8318306.539 6  -6485708.353 7  23359737.470       -1938.355
  13194924.905 6  10280704.886 5  24786753.890        4087.170
  21837753.755 6  16954628.997 5  24608747.557        4424.141
  -8557448.534 8  -6530838.654 9  21923118.990          -1.267
 93  5  8  4 34  0.0030000  0  7  3 22 26 23 16 20 17                0.003869540
  -7202503.402 8  -5611457.012 9  21978266.273        -130.134
  -5239089.152 6  -4087632.016 5  24617640.083        -741.053
  -9642081.029 6  -3259083.317 5  24088270.628        -700.987
  -8376288.991 6  -6530889.421 7  23348703.428       -1927.017
  13317636.309 6  10376324.176 5  24810105.053        4093.696
  21970534.377 6  17058094.383 5  24634015.193        4428.084
  -8557344.182 8  -6530757.314 9  21923138.727           8.302
 93  5  8  4 34 30.0030000  0  7  3 22 26 23 16 20 17                0.003886210
  -7206256.015 8  -5614381.110 9  21977552.116        -120.192
  -5261069.497 6  -4104759.544 5  24613457.479        -724.225
  -9662903.349 6  -3275308.475 5  24084307.047        -687.024
  -8433930.237 7  -6575804.600 7  23337734.861       -1915.530
  13440540.673 6  10472093.797 5  24833493.264        4100.214
  22103430.508 6  17161649.817 5  24659304.421        4431.754
  -8556953.741 8  -6530453.069 9  21923213.246          17.873
 93  5  8  4 35  0.0030000  0  7  3 22 26 23 16 20 17                0.003902900
  -7209704.514 8  -5617068.227 9  21976895.742        -109.768
  -5282542.984 6  -4121492.124 5  24609370.939        -707.293
  -9683303.341 6  -3291204.509 5  24080425.695        -672.846
  -8491217.507 7  -6620443.985 7  23326833.619       -1903.525
  13563655.992 6  10568027.822 5  24856921.016        4107.594
  22236439.388 6  17265293.076 5  24684615.403        4435.706
  -8556275.996 8  -6529924.916 9  21923342.115          27.474
 93  5  8  4 35 30.0030000  0  7  3 22 26 23 16 20 17                0.003919600
  -7212842.419 8  -5619513.325 9  21976298.597         -99.518
  -5303508.054 6  -4137828.507 5  24605381.738        -690.409
  -9703279.151 6  -3306770.007 5  24076625.025        -658.634
  -8548146.396 7  -6664804.098 7  23316000.358       -1891.592
  13686989.705 6  10664131.977 5  24880390.625        4114.821
  22369563.051 6  17369025.762 5  24709947.625        4439.393
  -8555313.080 8  -6529174.565 9  21923525.172          36.690
 93  5  8  4 36  0.0030000  0  7  3 22 26 23 16 20 17                0.003936330
  -7215670.781 8  -5621717.219 9  21975760.248         -88.994
  -5323968.635 6  -4153771.779 5  24601488.059        -673.356
  -9722822.181 6  -3321998.308 5  24072907.171        -643.867
  -8604722.820 6  -6708889.528 7  23305234.044       -1879.956
  13810544.942 6  10760408.751 5  24903902.485        4122.490
  22502795.043 6  17472842.894 5  24735300.885        4443.149
  -8554086.058 8  -6528218.412 9  21923758.677          45.376
 93  5  8  4 36 30.0030000  0  7  3 22 26 23 16 20 17                0.003953080
  -7218182.486 8  -5623674.376 9  21975282.258         -78.614
  -5343920.672 6  -4169318.855 5  24597691.511        -656.535
  -9741921.158 6  -3336880.569 5  24069272.544        -629.296
  -8660955.229 7  -6752706.934 7  23294533.212       -1868.806
  13934330.835 6  10856865.280 5  24927457.671        4129.721
  22636138.032 5  17576746.479 5  24760675.217        4446.559
  -8552599.089 8  -6527059.722 9  21924041.681          53.749
 93  5  8  4 37  0.0030000  0  7  3 22 26 23 16 20 17                0.003969870
  -7220373.413 8  -5625381.562 9  21974865.396         -67.741
  -5363347.583 6  -4184456.655 5  24593994.464        -638.532
  -9760573.918 6  -3351415.143 5  24065721.959        -614.229
  -8716846.594 7  -6796258.552 7  23283897.415       -1857.371
  14058328.551 6  10953486.879 5  24951054.107        4136.531
  22769591.142 6  17680735.909 5  24786070.532        4450.295
  -8550858.913 8  -6525703.704 9  21924372.983          62.243
 93  5  8  4 37 30.0030000  0  7  3 22 26 23 16 20 17                0.003986680
  -7222250.315 8  -5626844.048 9  21974508.176         -57.394
  -5382237.142 6  -4199175.763 5  24590399.821        -620.674
  -9778779.483 6  -3365601.251 5  24062256.727        -599.417
  -8772407.441 7  -6839552.632 7  23273324.384       -1846.481
  14182507.311 5  11050249.548 5  24974684.658        4142.422
  22903142.764 6  17784802.091 5  24811484.885        4453.320
  -8548865.199 8  -6524150.128 9  21924752.219          70.773
 93  5  8  4 38  0.0040000  0  7  3 22 26 23 16 20 17                0.004003510
  -7223810.802 8  -5628060.010 9  21974211.260         -46.728
  -5400585.891 6  -4213473.503 5  24586908.209        -602.575
  -9796544.384 6  -3379443.982 5  24058876.715        -584.946
  -8827632.263 7  -6882584.915 7  23262815.537       -1834.820
  14306876.521 5  11147160.592 5  24998351.159        4148.637
  23036794.650 6  17888946.365 5  24836918.048        4456.570
  -8546612.403 8  -6522394.684 9  21925181.043          79.658
 93  5  8  4 38 30.0040000  0  7  3 22 26 23 16 20 17                0.004020370
  -7225047.753 8  -5629023.825 9  21973975.964         -35.932
  -5418383.780 6  -4227341.965 5  24583521.590        -583.871
  -9813877.571 6  -3392950.320 5  24055578.736        -570.575
  -8882491.143 7  -6925332.052 7  23252376.004       -1822.243
  14431424.299 5  11244210.826 5  25022051.758        4154.457
  23170540.084 6  17993163.563 5  24862368.851        4459.794
  -8544080.069 8  -6520421.402 9  21925662.980          89.256
 93  5  8  4 39  0.0040000  0  7  3 22 26 23 16 20 17                0.004037260
  -7225950.963 8  -5629727.622 9  21973803.932         -24.731
  -5435609.404 6  -4240764.514 5  24580243.359        -564.846
  -9830759.118 6  -3406104.728 5  24052365.712        -554.953
  -8936956.643 7  -6967772.631 7  23242011.550       -1808.971
  14556159.791 6  11341407.298 5  25045788.112        4161.156
  23304389.176 6  18097461.501 5  24887839.833        4463.302
  -8541249.440 8  -6518215.696 9  21926201.638          99.378
 93  5  8  4 39 30.0040000  0  7  3 22 26 23 16 20 17                0.004054170
  -7226529.888 8  -5630178.704 9  21973693.917         -13.930
  -5452294.693 6  -4253766.008 5  24577068.593        -547.523
  -9847177.386 6  -3418898.138 5  24049241.846        -539.464
  -8991038.181 7  -7009914.039 7  23231720.104       -1796.290
  14681096.597 6  11438760.652 5  25069562.732        4168.173
  23438327.595 6  18201829.109 5  24913326.935        4466.152
  -8538121.002 8  -6515777.921 9  21926796.733         109.228
 93  5  8  4 40  0.0040000  0  7  3 22 26 23 16 20 17                0.004071110
  -7226774.228 8  -5630369.077 9  21973647.261          -2.475
  -5468459.325 6  -4266361.800 5  24573992.310        -529.936
  -9863122.852 6  -3431323.140 5  24046207.508        -523.216
  -9044724.170 7  -7051747.224 7  23221503.959       -1782.757
  14806249.753 6  11536282.602 5  25093378.547        4175.351
  23572360.485 6  18306270.282 5  24938833.104        4469.464
  -8534694.078 8  -6513107.562 9  21927448.951         119.406
 93  5  8  4 40 30.0040000  0  7  3 22 26 23 16 20 17                0.004088050
  -7226688.772 8  -5630302.465 9  21973663.359           8.248
  -5484114.701 6  -4278560.763 5  24571012.958        -513.371
  -9878587.786 6  -3443373.672 5  24043263.935        -507.341
  -9098032.402 7  -7093286.034 7  23211359.679       -1770.894
  14931582.950 6  11633944.795 5  25117228.763        4180.689
  23706478.102 6  18410777.533 5  24964354.617        4471.976
  -8530974.182 8  -6510208.906 9  21928156.893         128.776
 93  5  8  4 41  0.0040000  0  7  3 22 26 23 16 20 17                0.004104990
  -7226272.336 8  -5629977.932 9  21973742.675          19.166
  -5499279.250 6  -4290377.245 5  24568127.048        -497.816
  -9893563.796 6  -3455043.260 5  24040413.844        -491.162
  -9150983.491 7  -7134546.531 7  23201283.507       -1759.401
  15057093.825 6  11731745.493 5  25141112.847        4186.621
  23840677.076 6  18515348.121 5  24989892.124        4474.543
  -8526971.582 8  -6507089.966 9  21928918.484         138.054
 93  5  8  4 41 30.0040000  0  7  3 22 26 23 16 20 17                0.004121910
  -7225535.674 8  -5629403.910 9  21973882.797          29.429
  -5513983.310 6  -4301834.928 5  24565328.757        -482.521
  -9908069.150 6  -3466346.087 5  24037653.090        -476.275
  -9203604.098 7  -7175549.547 7  23191270.117       -1748.942
  15182760.748 6  11829667.756 5  25165026.266        4190.838
  23974941.135 6  18619969.456 5  25015441.832        4476.175
  -8522694.017 8  -6503756.780 9  21929732.462         146.761
 93  5  8  4 42  0.0040000  0  7  3 22 26 23 16 20 17                0.004138820
  -7224483.282 8  -5628583.853 9  21974083.157          40.212
  -5528200.149 6  -4312912.964 5  24562623.400        -465.346
  -9922128.664 6  -3477301.499 5  24034978.228        -461.269
  -9255902.287 7  -7216301.346 7  23181318.189       -1738.005
  15308555.118 6  11927689.342 5  25188964.131        4195.160
  24109261.929 6  18724634.989 5  25041001.822        4478.250
  -8518151.543 8  -6500217.164 9  21930597.135         155.907
 93  5  8  4 42 30.0040000  0  7  3 22 26 23 16 20 17                0.004155730
  -7223111.163 8  -5627514.621 9  21974344.348          50.677
  -5541899.436 6  -4323587.681 5  24560016.700        -448.307
  -9935742.204 6  -3487909.407 5  24032388.476        -446.633
  -9307881.985 7  -7256804.923 7  23171426.624       -1727.639
  15434474.850 6  12025808.620 5  25212926.323        4199.439
  24243637.916 6  18829343.579 5  25066572.872        4479.787
  -8513337.805 8  -6496466.168 9  21931513.129         164.689
 93  5  8  4 43  0.0040000  0  7  3 22 26 23 16 20 17                0.004172630
  -7221425.961 8  -5626201.467 9  21974665.117          61.285
  -5555086.389 6  -4333863.223 5  24557507.641        -430.801
  -9948912.404 6  -3498171.850 5  24029881.919        -431.431
  -9359546.204 7  -7297062.696 7  23161595.309       -1716.623
  15560530.632 6  12124033.887 5  25236913.937        4204.173
  24378057.828 6  18934086.354 5  25092152.086        4481.389
  -8508262.242 8  -6492511.168 9  21932478.842         173.658
 93  5  8  4 43 30.0040000  0  7  3 22 26 23 16 20 17                0.004189540
  -7219422.831 8  -5624640.560 9  21975046.163          72.113
  -5567726.287 6  -4343712.425 5  24555102.169        -411.756
  -9961630.201 6  -3508081.811 5  24027462.063        -416.414
  -9410868.857 7  -7337054.293 7  23151829.134       -1704.635
  15686726.897 6  12222368.622 5  25260928.294        4209.055
  24512521.601 6  19038863.310 5  25117739.749        4482.943
  -8502917.930 8  -6488346.749 9  21933495.736         182.617
 93  5  8  4 44  0.0040000  0  7  3 22 26 23 16 20 17                0.004206480
  -7217098.908 8  -5622829.700 9  21975488.207          82.581
  -5579803.342 6  -4353123.083 5  24552803.739        -393.645
  -9973905.852 6  -3517647.211 5  24025126.070        -401.733
  -9461826.682 7  -7376761.639 7  23142131.976       -1692.566
  15813074.948 6  12320821.666 5  25284971.218        4213.934
  24647027.422 5  19143673.032 5  25143335.448        4484.026
  -8497317.992 8  -6483983.151 9  21934561.407         190.752
 93  5  8  4 44 30.0040000  0  7  3 22 26 23 16 20 17                0.004223430
  -7214465.971 8  -5620778.030 9  21975989.249          92.942
  -5591360.708 6  -4362128.755 5  24550604.310        -376.716
  -9985737.198 6  -3526866.381 5  24022875.119        -386.841
  -9512425.217 7  -7416189.014 7  23132503.173       -1680.353
  15939562.345 6  12419383.266 5  25309041.328        4218.823
  24781558.937 5  19248502.783 5  25168935.515        4484.972
  -8491476.067 8  -6479430.959 9  21935673.130         198.851
 93  5  8  4 45  0.0040000  0  7  3 22 26 23 16 20 17                0.004240370
  -7211527.802 8  -5618488.543 9  21976548.383         102.973
  -5602419.873 6  -4370746.298 5  24548499.885        -360.230
  -9997127.645 6  -3535742.033 5  24020707.262        -372.316
  -9562654.391 7  -7455328.590 7  23122944.788       -1667.855
  16066188.260 6  12518052.796 5  25333137.401        4223.254
  24916106.874 5  19353345.287 5  25194538.988        4485.214
  -8485405.273 8  -6474700.449 9  21936828.380         206.162
 93  5  8  4 45 30.0040000  0  7  3 22 26 23 16 20 17                0.004257300
  -7208281.880 8  -5615959.212 9  21977166.055         113.127
  -5612985.395 6  -4378979.101 5  24546489.145        -344.303
 -10008088.498 6  -3544282.895 5  24018621.093        -358.391
  -9612506.382 7  -7494174.215 7  23113458.287       -1655.795
  16192954.482 6  12616831.676 5  25357260.533        4227.693
  25050669.016 5  19458198.907 5  25220145.774        4485.442
  -8479112.001 8  -6469796.544 9  21938025.952         213.321
 93  5  8  4 46  0.0040000  0  7  3 22 26 23 16 20 17                0.004274230
  -7204732.091 8  -5613193.129 9  21977841.426         123.485
  -5623087.903 6  -4386851.145 5  24544566.851        -329.129
 -10018624.216 6  -3552492.501 5  24016616.052        -343.673
  -9662009.314 7  -7532747.867 7  23104038.098       -1644.293
  16319846.385 6  12715708.468 5  25381406.921        4231.746
  25185236.900 5  19563056.966 5  25245752.900        4485.856
  -8472606.083 8  -6464726.971 9  21939264.091         220.745
 93  5  8  4 46 30.0040000  0  7  3 22 26 23 16 20 17                0.004291130
  -7200873.159 8  -5610186.137 9  21978575.917         133.802
  -5632733.315 6  -4394366.990 5  24542731.221        -313.536
 -10028720.754 6  -3560359.899 5  24014693.613        -329.403
  -9711173.927 7  -7571057.900 7  23094682.444       -1632.992
  16446857.588 5  12814678.238 5  25405576.428        4235.924
  25319810.905 5  19667919.837 5  25271361.332        4486.013
  -8465875.382 8  -6459482.232 9  21940544.827         228.101
 93  5  8  4 47  0.0040000  0  7  3 22 26 23 16 20 17                0.004308020
  -7196696.318 8  -5606931.446 9  21979370.789         144.436
  -5641890.577 6  -4401502.495 5  24540988.546        -296.977
 -10038385.683 6  -3567890.993 5  24012853.873        -315.050
  -9759989.961 7  -7609096.298 7  23085392.964       -1621.486
  16574003.125 5  12913752.670 5  25429771.148        4240.311
  25454395.196 5  19772790.688 5  25296971.571        4486.305
  -8458920.275 8  -6454062.648 9  21941868.232         235.696
 93  5  8  4 47 30.0040000  0  7  3 22 26 23 16 20 17                0.004324910
  -7192202.016 8  -5603429.354 9  21980226.095         155.051
  -5650557.855 6  -4408256.151 5  24539339.390        -280.657
 -10047626.760 6  -3575091.792 5  24011095.834        -300.852
  -9808473.958 7  -7646875.977 7  23076166.643       -1610.641
  16701266.618 5  13012919.053 5  25453988.350        4243.976
  25588983.790 5  19877664.900 5  25322582.901        4486.354
  -8451729.390 8  -6448459.339 9  21943236.593         243.762
 93  5  8  4 48  0.0040000  0  7  3 22 26 23 16 20 17                0.004341790
  -7187386.998 8  -5599677.388 9  21981142.214         165.702
  -5658723.649 6  -4414619.096 5  24537785.503        -263.761
 -10056436.011 6  -3581956.095 5  24009419.397        -286.461
  -9856623.544 7  -7684395.085 7  23067003.928       -1599.181
  16828636.001 5  13112167.876 5  25478226.394        4247.418
  25723575.464 5  19982541.495 5  25348194.365        4486.403
  -8444298.902 8  -6442669.320 9  21944650.613         251.703
 93  5  8  4 48 30.0040000  0  7  3 22 26 23 16 20 17                0.004358670
  -7182249.828 8  -5595674.368 9  21982119.986         176.698
  -5666373.494 6  -4420579.967 5  24536330.003        -246.054
 -10064813.261 6  -3588483.777 5  24007824.829        -271.852
  -9904422.549 7  -7721641.004 7  23057907.933       -1587.244
  16956120.438 5  13211506.407 5  25502485.577        4251.573
  25858166.932 5  20087417.960 5  25373806.794        4486.566
  -8436626.485 8  -6436690.781 9  21946110.243         259.941
 93  5  8  4 49  0.0040000  0  7  3 22 26 23 16 20 17                0.004375550
  -7176778.006 8  -5591410.593 9  21983161.163         188.030
  -5673486.427 6  -4426122.475 5  24534976.281        -228.047
 -10072739.053 6  -3594659.665 5  24006317.713        -256.256
  -9951859.361 7  -7758604.691 7  23048881.081       -1575.097
  17083726.008 5  13310939.318 5  25526767.566        4255.477
  25992765.914 5  20192300.275 5  25399420.181        4486.919
  -8428696.393 8  -6430511.464 9  21947619.569         268.863
 93  5  8  4 49 30.0040000  0  7  3 22 26 23 16 20 17                0.004392440
  -7170963.209 8  -5586879.553 9  21984267.570         199.713
  -5680061.781 6  -4431246.093 5  24533724.955        -209.805
 -10080186.112 6  -3600462.518 5  24004899.644        -239.732
  -9998926.738 7  -7795280.504 8  23039924.491       -1562.357
  17211446.106 5  13410461.469 5  25551072.709        4259.485
  26127376.446 5  20297191.582 5  25425036.116        4487.449
  -8420505.512 8  -6424128.921 9  21949178.088         277.295
 93  5  8  4 50  0.0040000  0  7  3 22 26 23 16 20 17                0.004409350
  -7164796.684 8  -5582074.457 9  21985440.994         211.321
  -5686079.101 6  -4435934.840 5  24532579.539        -191.304
 -10087132.623 6  -3605875.340 5  24003579.037        -223.185
 -10045605.062 7  -7831653.154 8  23031041.709       -1549.425
  17339292.727 5  13510082.234 5  25575400.940        4263.725
  26262002.119 5  20402094.710 5  25450654.601        4487.732
  -8412066.746 8  -6417553.225 9  21950784.079         285.583
 93  5  8  4 50 30.0040000  0  7  3 22 26 23 16 20 17                0.004426270
  -7158278.708 8  -5576995.507 9  21986681.458         222.973
  -5691542.237 6  -4440191.804 5  24531540.264        -173.078
 -10093580.097 6  -3610899.284 5  24002352.051        -206.665
 -10091903.187 7  -7867729.555 8  23022231.292       -1537.217
  17467256.935 6  13609794.644 5  25599751.931        4267.107
  26396637.849 5  20507005.649 5  25476274.991        4487.914
  -8403377.031 8  -6410782.003 9  21952437.552         293.684
 93  5  8  4 51  0.0040000  0  7  3 22 26 23 16 20 17                0.004443200
  -7151403.634 8  -5571638.300 9  21987989.593         234.818
  -5696462.649 6  -4444025.851 5  24530603.998        -155.283
 -10099520.299 6  -3615527.965 6  24001222.516        -189.677
 -10137828.191 7  -7903515.229 8  23013492.080       -1524.721
  17595321.565 6  13709585.261 5  25624122.203        4270.416
  26531284.488 6  20611925.100 5  25501897.441        4488.196
  -8394440.855 8  -6403818.720 9  21954138.036         301.547
 93  5  8  4 51 30.0040000  0  7  3 22 26 23 16 20 17                0.004460140
  -7144175.634 8  -5566006.068 9  21989365.137         246.675
  -5700852.195 6  -4447446.260 5  24529768.484        -137.478
 -10104957.660 6  -3619764.808 6  24000188.056        -172.989
 -10183381.153 7  -7939010.990 8  23004823.623       -1512.288
  17723488.157 5  13809455.373 5  25648511.097        4273.998
  26665932.703 6  20716845.781 5  25527520.179        4488.236
  -8385281.463 8  -6396681.515 9  21955880.901         308.998
 93  5  8  4 52  0.0040000  0  7  3 22 26 23 16 20 17                0.004477080
  -7136591.560 8  -5560096.379 9  21990808.411         258.416
  -5704712.622 6  -4450454.327 5  24529033.980        -120.289
 -10109894.852 6  -3623611.938 6  23999246.958        -156.411
 -10228565.335 7  -7974219.370 8  22996225.414       -1500.230
  17851763.707 5  13909410.327 5  25672920.965        4277.281
  26800581.311 6  20821766.758 5  25553143.249        4488.065
  -8375886.697 8  -6389360.879 9  21957668.553         317.114
 93  5  8  4 52 30.0040000  0  7  3 22 26 23 16 20 17                0.004494010
  -7128660.798 8  -5553916.533 9  21992317.556         270.124
  -5708072.274 6  -4453072.203 5  24528394.655        -103.612
 -10114337.277 6  -3627073.516 6  23998401.117        -139.654
 -10273399.238 7  -8009154.821 8  22987693.841       -1488.526
  17980127.843 5  14009434.343 5  25697348.284        4280.408
  26935216.010 6  20926676.891 5  25578763.174        4487.635
  -8366259.243 8  -6381858.941 9  21959500.554         324.765
 93  5  8  4 53  0.0040000  0  7  3 22 26 23 16 20 17                0.004510950
  -7120367.355 8  -5547454.116 9  21993895.604         282.579
  -5710910.475 6  -4455283.771 5  24527854.649         -85.407
 -10118263.141 6  -3630132.596 6  23997654.226        -122.222
 -10317854.263 7  -8043795.064 8  22979234.206       -1475.083
  18108610.972 6  14109551.071 5  25721796.648        4285.152
  27069848.560 6  21031585.376 5  25604382.990        4487.859
  -8356389.799 8  -6374168.450 9  21961378.505         333.213
 93  5  8  4 53 30.0040000  0  7  3 22 26 23 16 20 17                0.004527910
  -7111699.821 8  -5540700.158 9  21995545.041         295.103
  -5713201.666 6  -4457069.091 5  24527418.582         -67.182
 -10121672.343 6  -3632789.060 6  23997006.828        -105.058
 -10361906.838 7  -8078121.695 8  22970851.309       -1461.586
  18237233.247 6  14209776.240 5  25746273.407        4289.591
  27204485.312 5  21136497.122 5  25630003.436        4487.934
  -8346265.358 8  -6366279.251 9  21963305.279         341.937
 93  5  8  4 54  0.0040000  0  7  3 22 26 23 16 20 17                0.004544890
  -7102653.515 8  -5533651.060 9  21997266.359         307.987
  -5714944.321 6  -4458426.997 5  24527086.902         -48.861
 -10124569.300 6  -3635046.372 6  23996454.323         -87.942
 -10405548.228 7  -8112127.930 8  22962546.580       -1447.724
  18365981.691 6  14310099.705 5  25770773.937        4293.681
  27339126.472 5  21241412.313 5  25655624.787        4488.265
  -8335873.028 8  -6358181.305 9  21965282.831         351.096
 93  5  8  4 54 30.0040000  0  7  3 22 26 23 16 20 17                0.004561890
  -7093222.059 8  -5526301.851 9  21999060.986         320.704
  -5716139.728 6  -4459358.426 5  24526859.407         -30.618
 -10126962.601 6  -3636911.224 6  23995998.833         -71.633
 -10448777.229 7  -8145812.795 8  22954320.304       -1434.070
  18494849.565 5  14410516.255 5  25795295.788        4297.730
  27473773.606 5  21346332.159 5  25681246.934        4488.328
  -8325213.928 8  -6349875.480 9  21967311.438         359.669
 93  5  8  4 55  0.0040000  0  7  3 22 26 23 16 20 17                0.004578900
  -7083403.811 8  -5518651.248 9  22000929.043         333.563
  -5716785.340 6  -4459861.471 5  24526736.605         -12.522
 -10128869.671 6  -3638397.224 6  23995635.635         -55.531
 -10491586.280 7  -8179170.455 8  22946174.043       -1419.980
  18623835.882 5  14511025.095 5  25819840.743        4301.126
  27608423.172 5  21451253.879 5  25706870.111        4488.323
  -8314290.589 8  -6341363.754 9  21969390.167         368.561
 93  5  8  4 55 30.0040000  0  7  3 22 26 23 16 20 17                0.004595920
  -7073199.991 8  -5510700.185 9  22002871.200         346.578
  -5716895.709 6  -4459947.456 5  24526715.517           5.312
 -10130281.440 6  -3639497.257 6  23995368.553         -38.521
 -10533979.604 7  -8212204.162 8  22938106.898       -1406.179
  18752921.091 5  14611610.954 5  25844405.447        4304.393
  27743070.001 5  21556173.482 5  25732492.322        4488.246
  -8303094.300 8  -6332639.351 9  21971520.425         377.970
 93  5  8  4 56  0.0040000  0  7  3 22 26 23 16 20 17                0.004612930
  -7062611.836 8  -5502449.640 9  22004885.766         359.247
  -5716472.914 6  -4459617.974 5  24526795.993          23.054
 -10131188.227 6  -3640203.798 6  23995195.574         -21.697
 -10575966.414 7  -8244921.094 8  22930116.741       -1392.884
  18882089.503 5  14712261.672 5  25868984.833        4306.973
  27877707.456 5  21661085.732 5  25758112.574        4487.726
  -8291621.557 8  -6323699.512 9  21973704.112         387.167
 93  5  8  4 56 30.0040000  0  7  3 22 26 23 16 20 17                0.004629950
  -7051631.241 8  -5493893.304 9  22006975.589         372.443
  -5715504.088 6  -4458863.001 5  24526980.464          41.591
 -10131571.625 6  -3640502.517 6  23995121.378          -3.867
 -10617541.359 7  -8277317.102 8  22922205.278       -1378.755
  19011347.540 5  14812982.213 5  25893581.659        4310.225
  28012339.378 5  21765993.722 5  25783732.710        4487.577
  -8279858.612 8  -6314533.548 9  21975942.212         396.841
 93  5  8  4 57  0.0040000  0  7  3 22 26 23 16 20 17                0.004646990
  -7040249.872 8  -5485024.695 9  22009140.850         385.991
  -5713966.488 6  -4457664.870 5  24527272.883          60.895
 -10131403.625 6  -3640371.553 6  23995153.746          14.931
 -10658682.909 7  -8309375.416 8  22914376.487       -1364.153
  19140710.274 5  14913784.373 5  25918198.755        4313.947
  28146969.435 5  21870900.245 5  25809351.770        4487.616
  -8267797.990 8  -6305135.636 9  21978237.813         407.130
 93  5  8  4 57 30.0040000  0  7  3 22 26 23 16 20 17                0.004664050
  -7028460.123 8  -5475837.873 9  22011384.964         399.748
  -5711843.351 6  -4456010.447 5  24527676.944          80.739
 -10130676.650 6  -3639805.024 6  23995292.461          33.266
 -10699394.177 7  -8341098.438 8  22906629.440       -1350.084
  19270194.106 5  15014680.857 5  25942839.139        4318.235
  28281600.710 5  21975807.712 5  25834971.411        4487.842
  -8255429.024 8  -6295497.454 9  21980591.085         417.255
 93  5  8  4 58  0.0040000  0  7  3 22 26 23 16 20 17                0.004681150
  -7016260.759 8  -5466331.877 9  22013705.979         413.222
  -5709122.240 6  -4453890.073 5  24528194.522         100.381
 -10129415.008 6  -3638821.889 6  23995531.951          50.753
 -10739688.958 7  -8372496.923 8  22898961.409       -1336.474
  19399797.080 5  15115670.203 5  25967502.193        4321.918
  28416229.560 5  22080713.273 5  25860590.515        4487.426
  -8242764.066 8  -6285628.634 9  21983001.195         426.770
 93  5  8  4 58 30.0040000  0  7  3 22 26 23 16 20 17                0.004698280
  -7003652.070 8  -5456506.898 9  22016105.077         426.892
  -5705809.951 6  -4451309.025 5  24528824.958         120.148
 -10127623.021 6  -3637425.477 6  23995872.793          68.379
 -10779578.080 7  -8403579.305 8  22891370.733       -1323.049
  19529520.847 5  15216753.678 5  25992187.579        4326.206
  28550851.606 5  22185613.582 5  25886207.859        4487.219
  -8229816.107 8  -6275539.283 9  21985465.568         436.013
 93  5  8  4 59  0.0040000  0  7  3 22 26 23 16 20 17                0.004715450
  -6990640.725 8  -5446368.188 9  22018581.242         440.330
  -5701915.184 6  -4448274.127 5  24529565.748         139.431
 -10125312.733 6  -3635625.218 6  23996312.929          85.573
 -10819076.431 7  -8434357.194 8  22883854.487       -1310.192
  19659361.367 5  15317928.108 5  26016895.258        4329.731
  28685454.997 5  22290499.309 5  25911822.832        4486.406
  -8216602.543 8  -6265242.976 9  21987979.781         444.996
 93  5  8  4 59 30.0040000  0  7  3 22 26 23 16 20 17                0.004732640
  -6977231.530 8  -5435919.410 9  22021133.577         453.603
  -5697451.067 6  -4444795.549 5  24530415.810         158.321
 -10122492.126 6  -3633427.300 6  23996849.219         102.815
 -10858198.170 7  -8464841.624 8  22876410.021       -1297.633
  19789295.411 5  15419175.441 5  26041620.071        4332.599
  28820030.612 5  22395363.426 5  25937431.404        4485.470
  -8203130.319 8  -6254745.122 9  21990542.711         453.295
 93  5  8  5  0  0.0040000  0  7  3 22 26 23 16 20 17                0.004749840
  -6963424.560 8  -5425160.745 9  22023761.178         466.671
  -5692427.376 6  -4440880.970 5  24531371.685         176.485
 -10119141.953 6  -3630816.725 6  23997485.877         120.646
 -10896933.345 7  -8495024.825 8  22869038.735       -1284.590
  19919302.547 5  15520479.730 5  26066359.796        4334.705
  28954573.518 5  22500202.036 5  25963034.209        4484.113
  -8189413.092 8  -6244056.346 9  21993153.015         461.260
 93  5  8  5  0 30.0040000  0  7  3 22 26 23 16 20 17                0.004767040
  -6949227.657 8  -5414098.202 9  22026462.539         479.685
  -5686862.798 6  -4436544.895 5  24532430.501         194.551
 -10115254.758 6  -3627787.680 6  23998226.715         138.500
 -10935274.108 7  -8524900.684 8  22861742.545       -1271.255
  20049376.911 5  15621836.372 5  26091111.358        4337.079
  29089071.492 5  22605005.630 5  25988628.216        4482.505
  -8175463.378 8  -6233186.406 9  21995807.819         468.889
 93  5  8  5  1  0.0040000  0  7  3 22 26 23 16 20 17                0.004784260
  -6934634.447 8  -5402726.844 9  22029238.967         492.891
  -5680751.246 6  -4431782.623 5  24533593.217         212.698
 -10110827.998 6  -3624338.212 6  23999068.580         156.424
 -10973203.777 7  -8554456.225 8  22854524.762       -1257.493
  20179523.968 5  15723249.724 5  26115877.496        4339.312
  29223526.114 5  22709775.440 5  26014214.148        4480.953
  -8161278.615 8  -6222133.334 9  21998507.640         476.709
 93  5  8  5  1 30.0040000  0  7  3 22 26 23 16 20 17                0.004801480
  -6919642.760 8  -5391045.004 9  22032092.179         506.008
  -5674098.861 6  -4426598.905 5  24534859.210         230.441
 -10105866.350 6  -3620471.954 6  24000013.287         174.026
 -11010720.148 7  -8583689.705 8  22847385.754       -1243.976
  20309742.065 5  15824718.373 5  26140658.190        4341.776
  29357935.385 5  22814509.907 5  26039791.122        4479.261
  -8146867.712 8  -6210904.022 9  22001249.563         483.752
 93  5  8  5  2  0.0040000  0  7  3 22 21 26 23 20 17                0.004818760
  -6904259.189 8  -5379057.780 9  22035019.574         519.409
  -5666922.127 6  -4421006.616 5  24536224.549         248.202
   -160879.68615   -136719.64712  25765373.185       -2448.380
 -10100387.032 6  -3616202.302 6  24001056.326         191.237
 -11047833.917 7  -8612609.474 8  22840323.184       -1230.231
  29492287.947 5  22919200.178 5  26065358.069        4477.678
  -8132240.793 8  -6199506.418 9  22004033.113         491.625
 93  5  8  5  2 30.0040000  0  7  3 22 21 26 23 20 17                0.004836020
  -6888473.469 8  -5366757.212 9  22038023.433         532.740
  -5659208.926 6  -4414996.298 5  24537692.669         266.014
   -234268.351 5   -193905.525 3  25751407.519       -2444.157
 -10094399.221 6  -3611536.439 6  24002195.689         207.922
 -11084542.369 7  -8641213.417 8  22833337.699       -1217.044
  29626589.567 5  23023850.773 5  26090915.014        4475.784
  -8117368.402 8  -6187917.500 9  22006862.976         499.896
 93  5  8  5  3  0.0040000  0  7  3 22 21 26 23 20 17                0.004853280
  -6872290.042 8  -5354146.752 9  22041102.781         546.043
  -5650969.296 6  -4408575.808 5  24539260.682         283.510
   -307519.844 5   -250984.553 4  25737468.481       -2439.226
 -10087911.393 6  -3606480.967 6  24003429.593         224.678
 -11120860.265 7  -8669513.029 8  22826426.565       -1203.963
  29760831.598 5  23128454.907 5  26116460.114        4473.750
  -8102244.344 8  -6176132.523 9  22009741.053         508.510
 93  5  8  5  3 30.0040000  0  7  3 22 21 26 23 20 17                0.004870530
  -6855703.414 8  -5341222.075 9  22044259.118         559.786
  -5642192.680 6  -4401736.849 5  24540930.699         301.963
   -380619.124 5   -307944.921 5  25723557.873       -2433.735
 -10080916.285 6  -3601030.178 6  24004760.975         242.061
 -11156777.041 7  -8697500.089 8  22819591.786       -1190.031
  29895014.313 5  23233012.876 5  26141994.234        4471.964
  -8086854.343 8  -6164140.283 9  22012669.596         517.897
 93  5  8  5  4  0.0040000  0  7  3 22 21 26 23 20 17                0.004887790
  -6838701.113 8  -5327973.519 9  22047494.657         573.682
  -5632849.469 6  -4394456.414 5  24542708.707         321.234
   -453557.791 5   -364780.163 5  25709678.756       -2428.667
 -10073391.705 6  -3595166.829 6  24006192.820         259.754
 -11192267.637 7  -8725155.039 8  22812838.021       -1175.689
  30029146.515 5  23337531.417 5  26167519.295        4470.313
  -8071163.796 8  -6151913.876 9  22015655.138         528.396
 93  5  8  5  4 30.0040000  0  7  3 22 21 26 23 20 17                0.004905070
  -6821269.957 8  -5314390.786 9  22050811.680         588.213
  -5622918.596 6  -4386718.048 5  24544598.588         340.846
   -526329.289 5   -421485.135 5  25695830.810       -2422.649
 -10065322.175 6  -3588878.837 6  24007728.387         278.348
 -11227310.971 7  -8752461.465 8  22806169.668       -1160.467
  30163236.569 5  23442017.138 5  26193035.587        4469.057
  -8055155.435 8  -6139439.793 9  22018701.380         538.740
 93  5  8  5  5  0.0040000  0  7  3 22 21 26 23 20 17                0.004922360
  -6803403.736 8  -5300469.053 9  22054211.448         602.685
  -5612399.451 6  -4378521.300 5  24546600.262         360.507
   -598918.909 5   -478048.372 5  25682017.150       -2416.732
 -10056691.254 6  -3582153.412 6  24009370.049         297.111
 -11261894.911 7  -8779409.961 8  22799588.613       -1145.150
  30297286.332 5  23546471.474 5  26218544.213        4467.580
  -8038847.629 8  -6126732.409 9  22021804.720         548.496
 93  5  8  5  5 30.0040000  0  7  3 22 21 26 23 20 17                0.004939680
  -6785102.073 8  -5286208.004 9  22057694.108         617.079
  -5601289.170 6  -4369863.935 5  24548714.499         379.912
   -671336.752 5   -534477.798 5  25668235.834       -2411.138
 -10047489.088 6  -3574982.860 6  24011121.826         316.178
 -11296023.683 7  -8806003.755 9  22793093.970       -1130.258
  30431291.407 5  23650890.999 5  26244045.330        4465.976
  -8022255.709 8  -6113803.620 9  22024962.146         557.591
 93  5  8  5  6  0.0040000  0  6  3 22 21 26 23 17                   0.004957000
  -6766362.520 8  -5271605.740 9  22061259.977         631.813
  -5589602.070 6  -4360757.087 5  24550938.450         398.939
   -743577.439 5   -590769.169 5  25654489.611       -2404.894
 -10037712.272 6  -3567364.499 6  24012982.828         335.381
 -11329709.793 7  -8832252.625 9  22786683.526       -1115.725
  -8005383.513 8  -6100656.441 9  22028172.903         566.878
 93  5  8  5  6 30.0040000  0  6  3 22 21 26 23 17                   0.004974360
  -6747191.332 8  -5256667.140 9  22064908.202         646.131
  -5577362.140 6  -4351219.455 5  24553267.555         417.265
   -815629.767 5   -646913.760 5  25640778.463       -2398.576
 -10027364.031 6  -3559300.910 6  24014951.674         354.585
 -11362972.856 7  -8858171.852 9  22780353.639       -1101.827
  -7988257.069 8  -6087311.146 9  22031431.759         574.879
 93  5  8  5  7  0.0040000  0  6  3 22 21 26 23 17                   0.004991760
  -6727585.893 8  -5241390.163 9  22068639.010         660.554
  -5564563.878 6  -4341246.759 5  24555703.089         435.956
   -887487.221 5   -702906.457 5  25627104.405       -2392.099
 -10016430.357 6  -3550781.121 6  24017031.875         374.127
 -11395823.339 7  -8883769.574 9  22774102.557       -1088.363
  -7970882.894 8  -6073772.821 9  22034737.828         583.384
 93  5  8  5  7 30.0050000  0  6  3 22 21 26 23 17                   0.005009230
  -6707542.553 8  -5225771.962 9  22072453.137         675.242
  -5551198.262 6  -4330831.997 5  24558246.519         454.912
   -959149.707 5   -758747.299 5  25613467.797       -2385.275
 -10004913.911 6  -3541807.222 6  24019224.018         393.379
 -11428262.625 7  -8909046.896 9  22767929.648       -1074.208
  -7953247.689 8  -6060031.082 9  22038093.616         592.179
 93  5  8  5  8  0.0050000  0  6  3 22 21 26 23 17                   0.005026720
  -6687059.794 8  -5209811.343 9  22076350.901         689.932
  -5537266.785 6  -4319976.291 5  24560897.856         473.807
  -1030603.630 5   -814425.642 5  25599869.891       -2378.490
  -9992828.049 6  -3532389.627 6  24021523.326         412.235
 -11460272.693 7  -8933989.742 9  22761838.088       -1059.887
  -7935344.760 8  -6046080.733 9  22041500.377         601.076
 93  5  8  5  8 30.0050000  0  6  3 22 21 26 23 17                   0.005044250
  -6666130.175 8  -5193502.566 9  22080333.885         704.962
  -5522758.024 6  -4308670.743 5  24563658.401         493.255
  -1101851.546 5   -869943.373 5  25586311.884       -2371.734
  -9980169.784 6  -3522526.009 6  24023933.305         431.344
 -11491839.698 7  -8958587.381 9  22755831.098       -1044.748
  -7917171.531 8  -6031919.763 9  22044958.530         610.166
 93  5  8  5  9  0.0050000  0  6  3 22 21 26 23 17                   0.005061800
  -6644757.448 8  -5176848.478 9  22084401.018         719.763
  -5507678.384 6  -4296920.355 5  24566527.900         512.101
  -1172903.593 5   -925308.559 5  25572791.523       -2364.914
  -9966953.026 6  -3512227.200 6  24026447.769         449.810
 -11522959.038 7  -8982836.162 9  22749909.395       -1029.712
  -7898732.831 8  -6017551.933 9  22048467.272         619.255
 93  5  8  5  9 30.0050000  0  6  3 22 21 26 23 17                   0.005079360
  -6622938.978 8  -5159847.060 9  22088552.894         734.877
  -5492040.118 6  -4284734.673 5  24569503.756         530.682
  -1243755.312 5   -980517.622 5  25559308.392       -2358.031
  -9953184.181 6  -3501498.197 6  24029067.789         468.382
 -11553619.437 7  -9006727.332 9  22744074.835       -1014.153
  -7880028.525 8  -6002977.127 9  22052026.797         627.945
 93  5  8  5 10  0.0050000  0  6  3 22 21 26 23 17                   0.005096920
  -6600672.936 8  -5142496.877 9  22092789.782         749.490
  -5475851.807 6  -4272120.380 5  24572584.223         548.732
  -1314402.580 5  -1035567.343 5  25545865.229       -2351.538
  -9938860.806 6  -3490337.058 6  24031793.537         486.779
 -11583827.720 7  -9030266.200 9  22738326.374        -999.655
  -7861068.153 8  -5988202.782 9  22055634.920         636.168
 93  5  8  5 10 30.0050000  0  6  3 22 21 26 23 17                   0.005114500
  -6577956.681 8  -5124795.889 9  22097112.537         764.743
  -5459110.859 6  -4259075.495 5  24575769.918         567.368
  -1384841.462 5  -1090454.695 5  25532460.763       -2344.306
  -9923971.137 6  -3478734.697 6  24034626.777         505.904
 -11613592.953 7  -9053459.838 9  22732662.117        -984.670
  -7841855.189 8  -5973231.617 9  22059291.110         644.777
 93  5  8  5 11  0.0050000  0  6  3 22 21 26 23 17                   0.005132110
  -6554786.780 8  -5106741.412 9  22101521.604         779.820
  -5441813.849 6  -4245597.277 5  24579061.142         585.979
  -1455068.994 5  -1145177.417 5  25519096.930       -2337.432
  -9908510.911 6  -3466687.746 6  24037568.391         524.842
 -11642924.159 7  -9076315.291 9  22727080.608        -970.586
  -7822384.265 8  -5958059.468 9  22062996.185         653.569
 93  5  8  5 11 30.0050000  0  6  3 22 21 26 23 17                   0.005149740
  -6531160.193 8  -5088331.067 9  22106017.573         794.953
  -5423957.417 6  -4231683.155 5  24582459.237         604.455
  -1525097.028 5  -1199744.641 5  25505770.165       -2331.159
  -9892482.005 6  -3454197.645 6  24040618.189         543.574
 -11671827.962 7  -9098837.689 9  22721580.357        -956.300
  -7802648.194 8  -5942680.688 9  22066751.915         662.150
 93  5  8  5 12  0.0050000  0  6  3 22 21 26 23 17                   0.005167390
  -6507083.684 8  -5069570.144 9  22110599.070         809.840
  -5405539.329 6  -4217331.377 5  24585964.093         623.266
  -1594940.312 5  -1254167.923 5  25492479.563       -2325.377
  -9875902.206 6  -3441278.285 6  24043772.962         561.548
 -11700301.806 7  -9121025.066 9  22716162.077        -941.990
  -7782649.626 8  -5927097.400 9  22070557.570         671.076
 93  5  8  5 12 30.0050000  0  6  3 22 21 26 23 17                   0.005185030
  -6482565.291 8  -5050464.882 9  22115264.820         824.803
  -5386559.726 6  -4202542.054 5  24589576.001         642.502
  -1664619.252 5  -1308463.121 5  25479220.086       -2319.684
  -9858790.229 6  -3427944.233 6  24047029.817         579.472
 -11728346.625 7  -9142878.133 9  22710825.274        -927.327
  -7762383.485 8  -5911305.578 9  22074414.171         680.360
 93  5  8  5 13  0.0050000  0  6  3 22 21 26 23 17                   0.005202660
  -6457593.948 8  -5031006.672 9  22120016.562         839.918
  -5366996.792 6  -4187298.186 5  24593298.745         661.937
  -1734132.875 5  -1362629.554 5  25465992.302       -2314.291
  -9841141.143 6  -3414191.677 6  24050388.233         597.331
 -11755948.674 7  -9164386.179 9  22705572.609        -912.536
  -7741831.786 8  -5895291.272 9  22078324.905         689.913
 93  5  8  5 13 30.0050000  0  6  3 22 21 26 23 17                   0.005220280
  -6432169.809 8  -5011195.654 9  22124854.761         855.208
  -5346853.576 6  -4171602.129 5  24597131.399         681.365
  -1803477.399 5  -1416664.176 5  25452796.523       -2308.161
  -9822952.493 6  -3400018.683 6  24053849.055         615.699
 -11783099.242 7  -9185542.412 9  22700405.886        -897.155
  -7721004.068 8  -5879061.844 9  22082288.450         698.950
 93  5  8  5 14  0.0050000  0  6  3 22 21 26 23 17                   0.005237910
  -6406296.007 8  -4991034.228 9  22129778.382         869.629
  -5326126.491 6  -4155451.149 5  24601076.257         700.467
  -1872634.947 5  -1470553.103 5  25439636.546       -2302.330
  -9804213.671 6  -3385416.968 6  24057414.869         633.768
 -11809804.413 7  -9206351.582 9  22695323.854        -883.161
  -7699908.788 8  -5862623.931 9  22086302.673         707.503
 93  5  8  5 14 30.0050000  0  6  3 22 21 26 23 17                   0.005255560
  -6379978.038 8  -4970526.702 9  22134786.547         884.599
  -5304823.527 6  -4138851.383 5  24605130.584         719.708
  -1941609.458 5  -1524299.468 5  25426510.672       -2295.949
  -9784908.841 6  -3370374.205 6  24061088.432         653.235
 -11836089.484 7  -9226833.412 9  22690322.028        -869.188
  -7678551.401 8  -5845981.786 9  22090366.717         716.120
 93  5  8  5 15  0.0050000  0  6  3 22 21 26 23 17                   0.005273260
  -6353209.021 8  -4949667.719 9  22139880.341         899.589
  -5282948.963 6  -4121806.307 5  24609292.989         738.416
  -2010390.530 5  -1577895.033 5  25413422.165       -2289.503
  -9765017.115 6  -3354874.145 6  24064874.245         672.636
 -11861951.047 7  -9246985.233 9  22685400.713        -855.001
  -7656942.168 8  -5829143.410 9  22094478.850         724.204
 93  5  8  5 15 30.0050000  0  6  3 22 21 26 23 17                   0.005290990
  -6325983.484 8  -4928453.012 9  22145061.413         915.176
  -5260515.424 6  -4104325.624 5  24613560.905         757.221
  -2078968.502 5  -1631332.385 5  25400372.003       -2282.413
  -9744540.181 6  -3338918.040 6  24068770.508         692.419
 -11887377.981 7  -9266798.383 9  22680562.223        -840.185
  -7635090.667 8  -5812116.246 9  22098637.101         732.524
 93  5  8  5 16  0.0050000  0  6  3 22 21 26 23 17                   0.005308750
  -6298292.547 8  -4906875.634 9  22150330.826         930.692
  -5237513.866 6  -4086402.312 5  24617938.113         776.088
  -2147339.245 5  -1684608.200 5  25387361.992       -2275.744
  -9723482.292 6  -3322509.283 6  24072777.681         711.556
 -11912361.534 7  -9286266.033 9  22675807.995        -825.322
  -7612983.879 8  -5794890.117 9  22102843.890         741.249
 93  5  8  5 16 30.0050000  0  6  3 22 21 26 23 17                   0.005326510
  -6270138.311 8  -4884937.254 9  22155688.397         946.008
  -5213962.344 6  -4068050.475 5  24622419.834         794.063
  -2215514.263 5  -1737731.548 5  25374388.398       -2269.175
  -9701855.822 6  -3305657.466 6  24076892.514         730.096
 -11936899.862 7  -9305386.760 9  22671138.529        -810.456
  -7590620.243 8  -5777463.892 9  22107099.681         749.675
 93  5  8  5 17  0.0050000  0  6  3 22 21 26 23 17                   0.005344270
  -6241527.815 8  -4862643.346 9  22161132.558         961.230
  -5189872.169 6  -4049278.897 5  24627004.321         812.070
  -2283486.510 5  -1790696.854 5  25361453.573       -2262.163
  -9679681.255 6  -3288378.553 6  24081111.832         748.245
 -11960987.611 7  -9324156.389 9  22666554.561        -795.421
  -7568005.862 8  -5759842.282 9  22111403.034         758.085
 93  5  8  5 17 30.0050000  0  6  3 22 21 26 23 17                   0.005362040
  -6212456.444 8  -4839990.315 9  22166664.948         976.751
  -5165234.985 6  -4030081.058 5  24631692.423         830.529
  -2351235.514 5  -1843488.253 5  25348561.068       -2254.272
  -9656946.703 6  -3270663.252 6  24085439.320         767.588
 -11984628.949 7  -9342578.162 9  22662055.633        -780.601
  -7545125.908 8  -5742013.728 9  22115756.550         767.467
 93  5  8  5 18  0.0050000  0  6  3 22 21 26 23 17                   0.005379830
  -6182921.492 8  -4816976.054 9  22172285.347         991.886
  -5140044.680 6  -4010452.243 5  24636485.970         848.711
  -2418750.742 5  -1896097.472 5  25335713.327       -2246.738
  -9633633.787 6  -3252497.390 6  24089875.246         786.694
 -12007831.923 7  -9360658.350 9  22657640.131        -766.463
  -7521957.983 8  -5723960.786 9  22120165.117         776.913
 93  5  8  5 18 30.0050000  0  6  3 22 21 26 23 17                   0.005397650
  -6152931.008 8  -4793606.840 9  22177992.316        1007.177
  -5114312.010 6  -3990400.803 5  24641382.758         866.859
  -2486034.204 5  -1948526.102 5  25322910.223       -2238.771
  -9609740.492 6  -3233879.217 6  24094421.428         806.090
 -12030609.424 7  -9378406.989 9  22653305.643        -752.070
  -7498509.509 8  -5705689.232 9  22124627.380         786.207
 93  5  8  5 19  0.0050000  0  6  3 22 21 26 23 17                   0.005415510
  -6122481.700 8  -4769880.082 9  22183786.505        1022.176
  -5088029.430 6  -3969920.833 5  24646384.246         884.832
  -2553081.564 5  -2000770.722 5  25310151.326       -2231.546
  -9585262.841 6  -3214805.690 6  24099079.476         825.287
 -12052955.458 7  -9395819.441 9  22649053.416        -738.167
  -7474791.083 8  -5687207.305 9  22129140.754         794.604
 93  5  8  5 19 30.0050000  0  6  3 22 21 26 23 17                   0.005433380
  -6091579.835 8  -4745800.702 9  22189666.703        1037.612
  -5061213.989 6  -3949025.701 5  24651486.970         902.676
  -2619918.346 5  -2052851.327 5  25297432.684       -2224.341
  -9560220.784 6  -3195292.377 6  24103844.736         843.898
 -12074883.285 7  -9412906.010 9  22644880.655        -723.625
  -7450823.170 8  -5668531.005 9  22133701.797         802.996
 93  5  8  5 20  0.0050000  0  6  3 22 21 26 23 17                   0.005451240
  -6060223.541 8  -4721367.196 9  22195633.724        1052.580
  -5033876.116 6  -3927723.433 5  24656689.071         919.772
  -2686556.430 5  -2104777.071 5  25284751.893       -2218.149
  -9534634.145 6  -3175354.714 6  24108713.776         861.724
 -12096370.191 7  -9429648.990 9  22640791.986        -708.880
  -7426624.249 8  -5649674.675 9  22138306.738         810.046
 93  5  8  5 20 30.0050000  0  6  3 22 21 26 23 17                   0.005469080
  -6028417.936 8  -4696583.613 9  22201686.321        1067.638
  -5006030.420 6  -3906025.486 5  24661988.193         936.667
  -2753010.205 5  -2156559.206 5  25272105.742       -2212.022
  -9508523.180 6  -3155008.509 6  24113682.247         879.044
 -12117423.648 7  -9446054.246 9  22636785.410        -694.561
  -7402228.704 8  -5630665.153 9  22142949.076         816.296
 93  5  8  5 21  0.0050000  0  6  3 22 21 26 23 17                   0.005486880
  -5996163.938 8  -4671450.607 9  22207823.853        1082.514
  -4977682.225 6  -3883935.963 5  24667382.867         953.287
  -2819287.127 5  -2208203.531 5  25259493.805       -2206.397
  -9481896.583 6  -3134260.482 6  24118749.476         896.133
 -12138052.893 7  -9462128.932 9  22632859.656        -680.600
  -7377651.620 8  -5611514.154 9  22147625.698         822.446
 93  5  8  5 21 30.0050000  0  6  3 22 21 26 23 17                   0.005504650
  -5963458.804 8  -4645966.057 9  22214047.316        1097.676
  -4948832.881 6  -3861455.936 5  24672872.716         970.291
  -2885389.859 5  -2259712.119 5  25246914.121       -2200.143
  -9454754.832 6  -3113111.057 6  24123914.143         913.581
 -12158259.202 7  -9477874.057 9  22629014.540        -666.383
  -7352877.327 8  -5592209.494 9  22152340.142         829.250
 93  5  8  5 22  0.0050000  0  6  3 22 21 26 23 17                   0.005522410
  -5930301.588 8  -4620129.268 9  22220356.917        1112.893
  -4919467.340 6  -3838573.698 5  24678460.588         987.945
  -2951306.054 5  -2311075.362 5  25234370.686       -2193.776
  -9427076.226 6  -3091543.303 6  24129181.133         931.971
 -12178054.507 7  -9493298.918 9  22625247.477        -653.110
  -7327897.768 8  -5572744.879 9  22157093.623         836.451
 93  5  8  5 22 30.0050000  0  6  3 22 21 26 23 17                   0.005540200
  -5896684.100 8  -4593933.811 9  22226753.978        1128.062
  -4889558.553 6  -3815268.131 5  24684151.768        1006.079
  -3017022.723 5  -2362283.094 5  25221864.944       -2187.395
  -9398841.043 6  -3069541.829 6  24134554.996         950.503
 -12197456.803 7  -9508417.550 9  22621555.583        -640.296
  -7302689.623 8  -5553102.156 9  22161890.503         844.224
 93  5  8  5 23  0.0050000  0  6  3 22 21 26 23 17                   0.005558020
  -5862613.143 8  -4567385.003 9  22233237.490        1143.163
  -4859101.577 6  -3791535.408 5  24689947.313        1024.389
  -3082549.450 5  -2413342.886 5  25209395.761       -2180.957
  -9370039.201 6  -3047098.822 6  24140035.432         969.731
 -12216467.678 7  -9523231.179 9  22617938.028        -627.072
  -7277238.306 8  -5533269.949 9  22166733.878         852.654
 93  5  8  5 23 30.0050000  0  6  3 22 21 26 23 17                   0.005575880
  -5828089.389 8  -4540483.363 9  22239807.163        1158.098
  -4828095.191 6  -3767374.580 5  24695847.602        1042.630
  -3147881.855 5  -2464251.207 5  25196963.556       -2174.541
  -9340661.171 6  -3024206.829 6  24145625.630         988.806
 -12235086.911 7  -9537739.625 9  22614394.911        -614.170
  -7251535.780 8  -5513241.990 9  22171624.993         860.767
 93  5  8  5 24  0.0050000  0  6  3 22 21 26 23 17                   0.005593760
  -5793119.271 8  -4513233.912 9  22246461.854        1173.073
  -4796545.878 6  -3742790.681 5  24701851.625        1060.495
  -3213030.322 5  -2515016.181 5  25184566.326       -2168.598
  -9310709.945 6  -3000868.199 6  24151324.973        1007.759
 -12253312.591 7  -9551941.405 9  22610926.611        -600.786
  -7225588.183 8  -5493023.063 9  22176562.685         869.153
 93  5  8  5 24 30.0050000  0  6  3 22 21 26 23 17                   0.005611650
  -5757696.783 8  -4485631.945 9  22253202.528        1188.233
  -4764468.319 6  -3717795.156 5  24707955.815        1077.934
  -3277998.030 5  -2565640.360 5  25172203.526       -2162.642
  -9280196.257 6  -2977091.281 6  24157131.458        1026.502
 -12271125.402 7  -9565821.472 9  22607536.899        -586.605
  -7199389.087 8  -5472608.166 9  22181548.233         877.429
 93  5  8  5 25  0.0050000  0  6  3 22 21 26 23 17                   0.005629530
  -5721824.622 8  -4457679.619 9  22260028.784        1202.935
  -4731877.587 6  -3692399.788 5  24714157.695        1094.580
  -3342790.420 5  -2616127.894 5  25159874.023       -2156.911
  -9249130.218 6  -2952883.965 6  24163043.340        1044.400
 -12288511.090 7  -9579368.720 9  22604228.398        -572.503
  -7172947.430 8  -5452004.259 9  22186579.981         885.142
 93  5  8  5 25 30.0050000  0  6  3 22 21 26 23 17                   0.005647360
  -5685512.798 8  -4429384.669 9  22266938.798        1217.655
  -4698790.610 6  -3666617.718 5  24720453.704        1111.306
  -3407414.936 6  -2666484.614 5  25147576.236       -2151.244
  -9217538.587 6  -2928267.077 6  24169055.241        1061.630
 -12305476.374 7  -9592588.371 9  22600999.933        -558.337
  -7146282.941 8  -5431226.725 9  22191654.177         892.507
 93  5  8  5 26  0.0050000  0  6  3 22 21 26 23 17                   0.005665150
  -5648762.337 8  -4400747.946 9  22273931.965        1232.422
  -4665202.530 6  -3640445.195 5  24726845.341        1128.209
  -3471868.466 6  -2716708.117 5  25135310.779       -2145.271
  -9185439.489 6  -2903254.787 6  24175163.643        1078.643
 -12322011.025 7  -9605472.480 9  22597853.461        -543.887
  -7119406.699 8  -5410284.183 9  22196768.508         899.471
 93  5  8  5 26 30.0050000  0  6  3 22 21 26 23 17                   0.005682910
  -5611572.980 8  -4371769.202 9  22281008.890        1246.573
  -4631103.524 6  -3613874.521 5  24733334.147        1145.117
  -3536147.454 6  -2766795.592 5  25123079.183       -2140.082
  -9152835.497 6  -2877849.074 6  24181367.709        1095.019
 -12338125.633 7  -9618029.265 9  22594786.856        -530.554
  -7092336.658 8  -5389190.634 9  22201919.730         905.159
 93  5  8  5 27  0.0050000  0  6  3 22 21 26 23 17                   0.005700640
  -5573952.454 8  -4342454.504 9  22288168.023        1261.319
  -4596490.145 6  -3586903.021 5  24739920.979        1162.522
  -3600260.938 6  -2816754.107 5  25110878.643       -2134.094
  -9119729.887 6  -2852052.478 6  24187667.560        1112.116
 -12353839.628 7  -9630273.904 9  22591796.655        -517.109
  -7065084.712 8  -5367955.328 9  22207105.340         911.683
 93  5  8  5 27 30.0050000  0  6  3 22 21 26 23 17                   0.005718360
  -5535892.001 8  -4312796.980 9  22295410.458        1276.141
  -4561360.718 6  -3559529.416 5  24746605.733        1179.757
  -3664197.483 6  -2866574.770 5  25098712.195       -2127.930
  -9086118.348 6  -2825861.633 6  24194063.796        1128.965
 -12369164.405 7  -9642215.234 9  22588880.414        -504.321
  -7037647.440 8  -5346575.621 9  22212326.327         917.854
 93  5  8  5 28  0.0050000  0  6  3 22 21 26 23 17                   0.005736060
  -5497389.128 8  -4282794.746 8  22302737.436        1290.581
  -4525727.166 6  -3531763.014 5  24753386.327        1195.795
  -3727951.785 6  -2916253.383 5  25086580.005       -2122.450
  -9052002.825 6  -2799278.102 6  24200555.465        1145.701
 -12384115.977 8  -9653865.787 9  22586035.063        -492.367
  -7010027.946 8  -5325053.930 9  22217582.149         923.643
 93  5  8  5 28 30.0050000  0  6  3 22 21 26 23 17                   0.005753750
  -5458443.736 8  -4252447.669 8  22310148.465        1305.482
  -4489611.276 6  -3503620.763 5  24760259.228        1211.734
  -3791536.041 6  -2965799.514 5  25074480.187       -2116.472
  -9017364.475 6  -2772287.154 6  24207146.788        1163.484
 -12398699.898 7  -9665229.838 9  22583259.865        -479.797
  -6982214.245 8  -5303380.891 9  22222874.774         930.547
 93  5  8  5 29  0.0050000  0  6  3 22 21 26 23 17                   0.005771420
  -5419059.628 8  -4221758.752 8  22317643.006        1320.040
  -4453041.322 6  -3475124.685 5  24767218.672        1226.398
  -3854945.142 6  -3015209.165 5  25062414.034       -2110.548
  -8982198.300 6  -2744884.925 6  24213838.728        1181.046
 -12412910.052 8  -9676302.655 9  22580555.927        -467.276
  -6954196.549 8  -5281548.905 9  22228206.444         937.322
 93  5  8  5 29 30.0050000  0  6  3 22 21 26 23 17                   0.005789070
  -5379231.248 8  -4190723.645 8  22325221.891        1334.962
  -4416023.568 6  -3446279.688 5  24774262.916        1241.544
  -3918160.612 6  -3064467.915 5  25050384.199       -2103.805
  -8946501.682 6  -2717069.359 6  24220631.807        1198.776
 -12426727.473 8  -9687069.449 9  22577926.466        -453.701
  -6925971.736 8  -5259555.538 9  22233577.614         944.506
 93  5  8  5 30  0.0050000  0  6  3 22 21 26 23 17                   0.005806680
  -5338951.373 8  -4159336.723 8  22332886.955        1350.155
  -4378552.253 6  -3417081.261 5  24781393.366        1256.718
  -3981174.885 6  -3113569.903 5  25038393.323       -2097.094
  -8910257.315 6  -2688826.982 6  24227529.061        1217.629
 -12440121.227 8  -9697506.126 9  22575377.782        -439.030
  -6897520.313 8  -5237385.582 9  22238991.665         952.300
 93  5  8  5 30 30.0050000  0  6  3 22 21 26 23 17                   0.005824260
  -5298229.054 8  -4127605.017 8  22340636.407        1364.709
  -4340628.469 6  -3387530.239 5  24788609.885        1271.830
  -4043994.635 6  -3162520.281 5  25026438.486       -2090.423
  -8873465.047 6  -2660157.652 6  24234530.275        1235.292
 -12453087.716 8  -9707609.840 9  22572910.432        -425.188
  -6868846.405 8  -5215042.255 9  22244448.100         959.439
 93  5  8  5 31  0.0050000  0  6  3 22 21 26 23 17                   0.005841810
  -5257065.502 8  -4095529.535 8  22348469.377        1379.476
  -4302242.084 6  -3357618.763 5  24795914.437        1287.590
  -4106602.692 6  -3211305.747 5  25014524.675       -2083.198
  -8836156.275 6  -2631085.871 6  24241630.288        1252.028
 -12465644.216 8  -9717394.104 9  22570520.824        -411.820
  -6839966.269 8  -5192538.239 9  22249943.864         966.110
 93  5  8  5 31 30.0050000  0  6  3 22 21 26 23 17                   0.005859330
  -5215455.760 8  -4063106.340 8  22356387.603        1394.059
  -4263378.594 6  -3327335.505 5  24803309.863        1303.144
  -4168998.806 6  -3259926.030 5  25002650.528       -2076.696
  -8798352.025 6  -2601627.990 6  24248823.971        1268.123
 -12477805.609 8  -9726870.480 9  22568206.476        -399.165
  -6810884.482 8  -5169877.094 9  22255477.774         972.505
 93  5  8  5 32  0.0050000  0  6  3 22 21 26 23 17                   0.005876820
  -5173403.516 8  -4030338.341 8  22364389.845        1409.237
  -4224045.299 6  -3296686.170 5  24810794.517        1319.244
  -4231198.854 6  -3308393.510 5  24990814.393       -2069.872
  -8760056.093 6  -2571786.988 6  24256111.042        1284.911
 -12489592.651 8  -9736055.154 9  22565963.427        -386.679
  -6781608.058 8  -5147064.276 9  22261049.015         979.185
 93  5  8  5 32 30.0050000  0  6  3 22 21 26 23 17                   0.005894290
  -5130904.378 8  -3997222.125 8  22372477.097        1424.092
  -4184231.209 6  -3265662.216 5  24818370.977        1335.250
  -4293201.289 6  -3356707.083 5  24979015.942       -2063.364
  -8721273.769 6  -2541566.968 6  24263491.397        1300.947
 -12501021.923 8  -9744961.052 9  22563788.605        -374.965
  -6752146.862 8  -5124107.481 9  22266655.215         985.232
 93  5  8  5 33  0.0050000  0  7  3 22 21 26 23 28 17                0.005911790
  -5087949.629 8  -3963750.895 8  22380650.918        1438.981
  -4143932.950 6  -3234260.979 5  24826039.287        1350.896
  -4355008.737 6  -3404868.669 5  24967254.268       -2057.628
  -8681995.412 6  -2510960.438 6  24270965.747        1317.554
 -12512090.146 8  -9753585.613 9  22561682.233        -363.103
  -3210601.99915  -2502917.17115  26449191.171       -2681.045
  -6722499.630 8  -5101005.738 9  22272296.979         991.056
 93  5  8  5 33 30.0050000  0  7  3 22 21 26 23 28 17                0.005929260
  -5044547.348 8  -3929930.933 8  22388910.379        1454.129
  -4103170.484 6  -3202498.027 5  24833796.578        1366.483
  -4416649.880 6  -3452900.671 5  24955525.001       -2051.924
  -8642192.988 6  -2479945.548 6  24278540.378        1335.916
 -12522785.711 8  -9761919.790 9  22559646.981        -350.015
  -3291024.966 5  -2565584.338 5  26433887.400       -2680.616
  -6692664.387 8  -5077757.482 9  22277974.498         997.854
 93  5  8  5 34  0.0050000  0  7  3 22 21 26 23 28 17                0.005946720
  -5000687.515 8  -3895754.440 8  22397256.682        1469.626
  -4061928.656 6  -3170361.560 5  24841644.928        1383.018
  -4478116.016 6  -3500796.303 5  24943828.199       -2045.910
  -8601824.162 6  -2448489.300 6  24286221.639        1355.285
 -12533081.769 8  -9769942.674 9  22557687.607        -336.384
  -3371436.434 5  -2628242.507 5  26418585.426       -2680.160
  -6662620.337 8  -5054346.509 9  22283691.761        1005.017
 93  5  8  5 34 30.0050000  0  7  3 22 21 26 23 28 17                0.005964180
  -4956358.962 8  -3861212.697 8  22405692.033        1485.529
  -4020183.191 6  -3137832.634 5  24849588.639        1399.987
  -4539402.842 6  -3548552.204 5  24932165.656       -2039.802
  -8560868.768 6  -2416575.987 6  24294014.923        1375.263
 -12542955.612 8  -9777636.556 9  22555808.769        -321.766
  -3451821.789 5  -2690880.283 5  26403288.572       -2678.858
  -6632358.158 8  -5030765.585 9  22289450.475        1012.579
 93  5  8  5 35  0.0050000  0  7  3 22 21 26 23 28 17                0.005981640
  -4911549.707 8  -3826296.396 8  22414218.928        1501.729
  -3977930.353 6  -3104908.346 5  24857628.945        1417.096
  -4600500.793 6  -3596160.941 5  24920538.809       -2033.313
  -8519308.436 6  -2384191.297 6  24301923.646        1395.444
 -12552389.006 8  -9784987.254 9  22554013.622        -307.040
  -3532168.725 5  -2753488.215 5  26387999.370       -2677.462
  -6601861.953 8  -5007002.294 9  22295253.786        1020.603
 93  5  8  5 35 30.0050000  0  7  3 22 21 26 23 28 17                0.005999110
  -4866249.181 8  -3790997.266 8  22422839.631        1517.910
  -3935156.907 6  -3071578.396 5  24865768.498        1434.382
  -4661393.200 6  -3643609.498 5  24908951.343       -2026.296
  -8477145.489 6  -2351337.036 6  24309946.771        1415.079
 -12561377.192 8  -9791991.000 9  22552303.347        -292.479
  -3612464.518 5  -2816056.200 5  26372719.221       -2675.504
  -6571119.211 8  -4983046.895 9  22301103.868        1028.636
 93  5  8  5 36  0.0060000  0  7  3 22 21 26 23 28 17                0.006016590
  -4820462.123 8  -3755319.036 8  22431552.728        1534.116
  -3891862.024 6  -3037842.140 5  24874007.311        1451.588
  -4722078.599 6  -3690896.757 5  24897403.328       -2019.363
  -8434411.459 6  -2318037.774 6  24318079.086        1433.371
 -12569939.542 8  -9798662.942 9  22550674.053        -278.545
  -3692683.426 5  -2878564.330 5  26357454.055       -2672.499
  -6540142.309 8  -4958909.036 9  22306998.557        1036.125
 93  5  8  5 36 30.0060000  0  7  3 22 21 26 23 28 17                0.006034070
  -4774184.038 8  -3719258.188 8  22440358.845        1550.569
  -3848057.144 6  -3003708.487 5  24882343.194        1468.407
  -4782536.574 6  -3738006.817 5  24885898.561       -2011.377
  -8391137.754 6  -2284317.968 6  24326314.052        1451.058
 -12578083.273 8  -9805008.693 9  22549124.197        -264.706
  -3772808.893 5  -2940999.682 5  26342206.234       -2669.646
  -6508939.722 8  -4934595.321 9  22312936.065        1043.704
 93  5  8  5 37  0.0060000  0  7  3 22 21 26 23 28 17                0.006051550
  -4727412.531 8  -3682812.855 8  22449259.241        1567.412
  -3803755.604 6  -2969187.801 5  24890773.455        1485.268
  -4842747.866 6  -3784924.653 5  24874440.593       -2002.580
  -8347342.320 6  -2250191.654 6  24334648.148        1468.725
 -12585820.331 8  -9811037.555 9  22547651.976        -250.905
  -3852859.231 5  -3003376.453 5  26326973.364       -2666.850
  -6477510.778 8  -4910105.220 9  22318916.804        1051.718
 93  5  8  5 37 30.0060000  0  7  3 22 21 26 23 28 17                0.006069040
  -4680145.994 8  -3645981.781 8  22458253.684        1583.592
  -3758955.838 6  -2934278.911 5  24899298.727        1501.520
  -4902699.886 6  -3831640.460 5  24863032.455       -1994.094
  -8303027.457 6  -2215660.559 6  24343080.589        1485.811
 -12593148.898 8  -9816748.097 9  22546257.221        -237.465
  -3932832.581 5  -3065693.195 5  26311754.764       -2664.561
  -6445851.871 8  -4885435.936 9  22324941.123        1059.069
 93  5  8  5 38  0.0060000  0  7  3 22 21 26 23 28 17                0.006086530
  -4632389.836 8  -3608769.182 8  22467341.253        1600.208
  -3713663.469 6  -2898986.164 5  24907917.825        1518.241
  -4962400.300 6  -3878160.199 5  24851671.694       -1985.661
  -8258195.454 6  -2180726.502 6  24351611.759        1503.358
 -12600072.196 8  -9822142.842 9  22544939.613        -223.701
  -4012737.845 5  -3127956.980 5  26296549.014       -2662.424
  -6413971.130 8  -4860593.774 9  22331007.786        1066.569
 93  5  8  5 38 30.0060000  0  7  3 22 21 26 23 28 17                0.006104000
  -4584145.814 8  -3571176.427 8  22476521.810        1616.354
  -3667874.251 6  -2863306.286 5  24916631.213        1534.956
  -5021855.335 6  -3924488.754 5  24840357.719       -1977.693
  -8212839.234 6  -2145383.987 6  24360242.686        1521.031
 -12606587.149 8  -9827219.401 9  22543699.931        -209.993
  -4092602.610 5  -3190189.137 5  26281351.525       -2661.356
  -6381869.892 8  -4835579.810 9  22337116.235        1074.101
 93  5  8  5 39  0.0060000  0  7  3 22 21 26 23 28 17                0.006121470
  -4535416.554 8  -3533205.560 8  22485794.537        1632.359
  -3621581.059 6  -2827233.680 5  24925440.004        1551.613
  -5081080.168 6  -3970637.911 5  24829087.350       -1970.379
  -8166942.912 6  -2109620.584 6  24368976.618        1538.983
 -12612685.269 8  -9831971.147 9  22542539.385        -196.261
  -4172433.794 6  -3252395.162 5  26266160.343       -2660.266
  -6349539.592 8  -4810387.357 9  22343268.498        1081.575
 93  5  8  5 39 30.0060000  0  7  3 22 21 26 23 28 17                0.006138920
  -4486209.436 8  -3494862.354 8  22495158.315        1647.978
  -3574790.078 6  -2790773.191 5  24934344.130        1567.905
  -5140092.808 6  -4016621.766 5  24817857.622       -1963.701
  -8120506.077 6  -2073436.018 6  24377813.331        1556.861
 -12618371.794 8  -9836402.192 9  22541457.303        -182.761
  -4252227.984 5  -3314572.350 5  26250975.617       -2659.269
  -6316989.694 8  -4785023.787 9  22349462.430        1088.519
 93  5  8  5 40  0.0060000  0  7  3 22 21 26 23 28 17                0.006156340
  -4436528.685 8  -3456150.044 8  22504612.252        1663.899
  -3527508.982 6  -2753930.756 5  24943341.163        1584.045
  -5198908.128 6  -4062451.809 5  24806665.281       -1957.192
  -8073530.787 6  -2036831.862 6  24386752.165        1574.876
 -12623644.455 8  -9840510.714 9  22540453.919        -168.634
  -4331983.429 5  -3376719.271 5  26235798.568       -2657.810
  -6284225.911 8  -4759493.543 9  22355697.194        1095.784
 93  5  8  5 40 30.0060000  0  7  3 22 21 26 23 28 17                0.006173740
  -4386374.371 8  -3417068.779 8  22514156.182        1679.520
  -3479762.728 6  -2716725.931 5  24952427.534        1598.912
  -5257522.766 6  -4108125.521 5  24795511.387       -1950.485
  -8026025.809 6  -1999814.992 6  24395792.233        1592.190
 -12628494.444 8  -9844289.918 9  22539530.989        -154.712
  -4411700.292 6  -3438836.239 5  26220628.761       -2656.540
  -6251246.154 8  -4733795.024 9  22361973.138        1102.813
 93  5  8  5 41  0.0060000  0  7  3 22 21 26 23 28 17                0.006191100
  -4335745.495 8  -3377617.692 8  22523790.765        1695.481
  -3431574.876 6  -2679176.960 5  24961596.755        1613.524
  -5315931.118 6  -4153638.473 5  24784396.659       -1943.423
  -7977996.165 6  -1962389.265 6  24404932.067        1609.769
 -12632916.632 8  -9847735.756 9  22538689.382        -140.275
  -4491365.992 5  -3500913.268 5  26205468.983       -2654.466
  -6218058.013 8  -4707934.123 9  22368288.706        1109.582
 93  5  8  5 41 30.0060000  0  7  3 22 21 26 23 28 17                0.006208440
  -4284640.776 8  -3337795.832 8  22533515.382        1711.539
  -3382950.695 6  -2641288.001 5  24970850.095        1628.287
  -5374127.922 6  -4198986.568 5  24773321.957       -1936.167
  -7929441.069 6  -1924554.113 6  24414171.412        1627.505
 -12636908.474 8  -9850846.271 9  22537929.577        -125.587
  -4570972.571 5  -3562944.281 5  26190320.435       -2652.330
  -6184667.253 8  -4681915.327 9  22374642.817        1116.762
 93  5  8  5 42  0.0060000  0  7  3 22 21 26 23 28 17                0.006225750
  -4233058.543 8  -3297601.866 8  22543331.348        1727.339
  -3333895.728 6  -2603063.349 5  24980184.728        1642.212
  -5432115.512 6  -4244171.654 5  24762287.634       -1929.280
  -7880365.005 6  -1886313.004 6  24423510.644        1644.480
 -12640463.416 8  -9853616.339 9  22537253.173        -111.273
  -4650519.301 5  -3624928.612 5  26175183.045       -2650.568
  -6151064.488 8  -4655731.353 9  22381037.339        1123.600
 93  5  8  5 42 30.0060000  0  7  3 22 21 26 23 28 17                0.006243020
  -4180993.550 8  -3257031.734 8  22553239.068        1743.471
  -3284409.670 6  -2564502.794 5  24989601.600        1657.197
  -5489874.522 6  -4289178.589 5  24751295.842       -1921.334
  -7830773.018 6  -1847669.874 6  24432947.772        1661.731
 -12643592.250 8  -9856054.368 9  22536657.696         -97.301
  -4730002.133 5  -3686863.179 5  26160057.742       -2648.160
  -6117251.293 8  -4629383.387 9  22387471.845        1130.659
 93  5  8  5 43  0.0060000  0  7  3 22 21 26 23 28 17                0.006260280
  -4128448.076 8  -3216087.189 8  22563238.305        1759.394
  -3234465.840 6  -2525585.527 5  24999106.019        1672.669
  -5547401.031 6  -4334004.393 5  24740348.813       -1913.639
  -7780660.050 6  -1808620.779 6  24442484.001        1679.136
 -12646311.454 8  -9858173.192 9  22536140.224         -84.127
  -4809405.730 6  -3748735.948 5  26144947.803       -2645.492
  -6083229.754 8  -4602873.080 9  22393945.834        1137.727
 93  5  8  5 43 30.0060000  0  7  3 22 21 26 23 28 17                0.006277530
  -4075424.762 8  -3174770.330 8  22573328.250        1775.144
  -3184052.056 6  -2486302.081 5  25008699.338        1688.006
  -5604691.064 6  -4378645.978 5  24729446.652       -1905.805
  -7730027.173 6  -1769166.599 6  24452118.720        1696.101
 -12648647.281 8  -9859993.315 9  22535695.892         -71.740
  -4888731.082 5  -3810547.869 5  26129852.629       -2642.968
  -6048984.371 8  -4576188.365 9  22400462.433        1145.106
 93  5  8  5 44  0.0060000  0  7  3 22 21 26 23 28 17                0.006294780
  -4021925.032 8  -3133082.221 8  22583508.771        1791.117
  -3133176.000 6  -2446658.390 5  25018380.926        1703.540
  -5661736.713 6  -4423097.080 5  24718591.233       -1897.283
  -7678885.622 6  -1729316.011 6  24461850.187        1713.117
 -12650610.853 8  -9861523.332 9  22535322.320         -59.375
  -4967967.678 6  -3872290.499 5  26114774.336       -2639.653
  -6014520.866 8  -4549333.668 9  22407020.672        1152.193
 93  5  8  5 44 30.0060000  0  7  3 22 21 26 23 28 17                0.006312030
  -3967952.666 8  -3091025.824 8  22593779.283        1806.904
  -3081834.530 6  -2406652.046 5  25028151.464        1719.390
  -5718537.921 6  -4467357.728 5  24707782.067       -1889.410
  -7627238.349 6  -1689071.369 6  24471678.439        1730.109
 -12652210.116 8  -9862769.505 9  22535017.940         -47.056
  -5047114.664 5  -3933963.406 5  26099712.807       -2636.605
  -5979858.039 8  -4522323.654 9  22413616.796        1158.797
 93  5  8  5 45  0.0060000  0  7  3 22 21 26 23 28 17                0.006329280
  -3913509.553 8  -3048602.631 8  22604139.500        1822.239
  -3030028.664 6  -2366283.847 5  25038009.317        1734.013
  -5775111.033 6  -4511440.630 5  24697016.902       -1882.328
  -7575086.424 6  -1648433.488 6  24481603.030        1746.638
 -12653440.052 8  -9863727.880 9  22534783.886         -35.081
  -5126182.552 6  -3995574.646 5  26084666.509       -2634.688
  -5945000.770 8  -4495162.144 9  22420249.875        1164.954
 93  5  8  5 45 30.0060000  0  7  3 22 21 26 23 28 17                0.006346520
  -3858597.324 8  -3005813.873 8  22614588.887        1837.963
  -2977792.003 6  -2325579.962 5  25047949.722        1748.107
  -5831472.513 6  -4555358.616 5  24686292.353       -1875.461
  -7522431.478 6  -1607403.629 6  24491623.110        1763.372
 -12654299.042 8  -9864397.188 9  22534620.356         -22.362
  -5205193.106 5  -4057141.217 5  26069630.877       -2632.873
  -5909958.495 8  -4467856.445 9  22426918.018        1170.667
 93  5  8  5 46  0.0060000  0  7  3 22 21 26 23 28 17                0.006363730
  -3803214.877 8  -2962658.710 8  22625127.839        1853.642
  -2925137.562 6  -2284550.500 5  25057969.249        1762.013
  -5887631.096 6  -4599118.490 5  24675605.496       -1868.836
  -7469274.070 6  -1565982.262 6  24501738.459        1780.152
 -12654774.327 8  -9864767.519 9  22534529.950          -9.595
  -5284151.691 5  -4118667.300 5  26054605.616       -2631.353
  -5874751.087 8  -4440422.088 9  22433617.791        1176.329
 93  5  8  5 46 30.0060000  0  7  3 22 21 26 23 28 17                0.006380900
  -3747360.911 8  -2919136.144 8  22635756.493        1869.688
  -2872062.703 6  -2243193.483 5  25068068.941        1776.125
  -5943594.169 6  -4642726.047 5  24664955.817       -1862.103
  -7415608.022 6  -1524164.552 6  24511950.619        1797.565
 -12654868.102 8  -9864840.564 9  22534512.101           3.336
  -5363064.734 5  -4180157.822 5  26039588.857       -2629.558
  -5839360.288 8  -4412844.840 9  22440352.516        1183.035
 93  5  8  5 47  0.0060000  0  7  3 22 21 26 23 28 17                0.006398060
  -3691028.379 8  -2875240.658 8  22646476.331        1885.557
  -2818575.456 6  -2201515.135 5  25078246.628        1789.744
  -5999354.912 6  -4686175.925 5  24654344.543       -1855.229
  -7361417.491 6  -1481938.175 6  24522262.774        1815.218
 -12654583.523 8  -9864618.786 9  22534566.083          15.578
  -5441927.062 5  -4241608.931 5  26024582.269       -2627.710
  -5803763.845 8  -4385107.349 9  22447126.249        1190.085
 93  5  8  5 47 30.0060000  0  7  3 22 21 26 23 28 17                0.006415200
  -3634218.482 8  -2830973.198 8  22657286.797        1901.369
  -2764671.098 6  -2159511.712 5  25088504.307        1803.893
  -6054902.207 6  -4729459.474 5  24643774.812       -1848.095
  -7306688.651 6  -1439292.307 6  24532677.409        1833.083
 -12653927.049 8  -9864107.231 9  22534691.168          28.041
  -5520723.450 5  -4303008.549 5  26009587.762       -2625.237
  -5767951.421 8  -4357201.540 9  22453941.040        1197.230
 93  5  8  5 48  0.0060000  0  7  3 22 21 26 23 28 17                0.006432330
  -3576934.621 8  -2786336.423 8  22668187.513        1917.429
  -2710328.667 6  -2117167.007 5  25098845.798        1819.052
  -6110230.355 6  -4772572.225 5  24633245.808       -1840.343
  -7251432.422 6  -1396235.483 6  24543192.442        1850.631
 -12652894.286 8  -9863302.448 9  22534887.403          40.957
  -5599428.578 5  -4364337.115 5  25994610.514       -2621.583
  -5731918.906 8  -4329124.236 9  22460797.791        1204.985
 93  5  8  5 48 30.0060000  0  7  3 22 21 26 23 28 17                0.006449460
  -3519173.396 8  -2741327.671 8  22679179.081        1933.136
  -2655533.329 6  -2074469.368 5  25109273.014        1833.891
  -6165331.024 6  -4815507.771 5  24622760.227       -1833.035
  -7195652.443 6  -1352770.553 6  24553807.281        1867.950
 -12651475.314 8  -9862196.747 9  22535157.504          53.643
  -5678018.900 5  -4425576.224 5  25979655.120       -2617.905
  -5695663.878 8  -4300873.560 9  22467696.846        1211.819
 93  5  8  5 49  0.0060000  0  7  3 22 21 26 23 28 17                0.006466570
  -3460929.905 8  -2695943.142 8  22690262.618        1949.583
  -2600282.287 6  -2031416.600 5  25119786.663        1849.558
  -6220200.225 6  -4858262.944 6  24612318.897       -1824.892
  -7139349.810 6  -1308898.368 6  24564520.889        1885.427
 -12649661.754 8  -9860783.565 9  22535502.577          67.293
  -5756487.735 5  -4486720.645 5  25964722.789       -2613.362
  -5659198.310 8  -4272458.815 9  22474636.003        1219.174
 93  5  8  5 49 30.0060000  0  7  3 22 21 26 23 28 17                0.006483680
  -3402196.743 8  -2650177.037 8  22701439.231        1965.884
  -2544566.486 6  -1988001.684 5  25130388.991        1864.919
  -6274835.883 6  -4900836.117 6  24601922.474       -1817.422
  -7082537.997 6  -1264629.390 6  24575331.663        1902.038
 -12647434.689 8  -9859048.170 9  22535926.373          81.421
  -5834823.811 5  -4547761.673 5  25949815.835       -2608.922
  -5622520.571 8  -4243878.747 9  22481615.511        1226.099
 93  5  8  5 50  0.0060000  0  7  3 22 21 26 23 28 17                0.006500750
  -3342965.768 8  -2604023.013 8  22712710.610        1982.544
  -2488391.379 6  -1944228.883 5  25141079.360        1879.953
  -6329243.985 6  -4943231.974 6  24591569.012       -1809.883
  -7025230.387 6  -1219974.104 6  24586237.333        1918.499
 -12644778.203 8  -9856978.146 9  22536431.972          95.498
  -5913028.164 6  -4608699.957 5  25934933.839       -2605.033
  -5585631.104 8  -4215133.679 9  22488635.471        1233.166
 93  5  8  5 50 30.0060000  0  7  3 22 21 26 23 28 17                0.006517780
  -3283241.399 8  -2557484.544 8  22724075.569        1998.687
  -2431778.592 6  -1900115.051 5  25151850.928        1893.976
  -6383437.274 6  -4985460.454 6  24581256.502       -1803.256
  -6967422.371 6  -1174928.863 6  24597237.405        1935.193
 -12641715.640 8  -9854591.703 9  22537014.560         108.534
  -5991140.139 6  -4669566.337 5  25920069.697       -2602.763
  -5548529.963 8  -4186223.697 9  22495695.664        1240.256
 93  5  8  5 51  0.0060000  0  7  3 22 21 26 23 28 17                0.006534760
  -3223031.308 8  -2510567.596 7  22735533.227        2015.070
  -2374746.851 6  -1855674.710 5  25162703.026        1908.151
  -6437431.082 6  -5027533.497 6  24570981.634       -1796.278
  -6909118.594 6  -1129497.364 6  24608332.408        1951.758
 -12638258.341 8  -9851897.675 9  22537672.354         121.975
  -6069181.793 6  -4730377.907 5  25905219.110       -2600.079
  -5511202.840 8  -4157137.608 9  22502798.757        1248.260
 93  5  8  5 51 30.0060000  0  7  3 22 21 26 23 28 17                0.006551690
  -3162330.562 7  -2463268.308 7  22747084.001        2031.576
  -2317286.991 6  -1810900.824 5  25173638.034        1922.747
  -6491214.699 6  -5069442.741 6  24560746.570       -1789.098
  -6850309.933 6  -1083672.431 6  24619523.449        1969.058
 -12634398.732 8  -9848890.178 9  22538407.005         135.407
  -6147145.738 6  -4791128.939 5  25890382.833       -2597.334
  -5473638.196 8  -4127866.450 9  22509946.958        1256.169
 93  5  8  5 52  0.0060000  0  7  3 22 21 26 23 28 17                0.006568600
  -3101129.393 7  -2415579.107 7  22758730.129        2048.252
  -2259378.063 6  -1765777.005 5  25184658.254        1937.844
  -6544765.087 6  -5111170.288 6  24550556.254       -1780.916
  -6790974.210 6  -1037436.775 6  24630814.601        1986.522
 -12630140.554 8  -9845572.092 9  22539217.215         148.350
  -6225023.119 6  -4851812.533 5  25875563.254       -2594.529
  -5435834.656 8  -4098409.138 9  22517140.639        1264.055
 93  5  8  5 52 30.0060000  0  7  3 22 21 26 23 28 17                0.006585490
  -3039431.492 7  -2367502.814 7  22770470.921        2064.518
  -2201026.022 6  -1720307.927 5  25195762.988        1952.238
  -6598076.014 6  -5152711.217 6  24540411.300       -1773.272
  -6731117.604 6   -990795.242 6  24642204.867        2003.550
 -12625493.982 8  -9841951.360 9  22540101.422         161.139
  -6302810.156 6  -4912425.726 5  25860760.890       -2591.371
  -5397798.319 8  -4068770.426 9  22524378.545        1271.307
 93  5  8  5 53  0.0060000  0  7  3 22 21 26 23 28 17                0.006602380
  -2977247.929 7  -2319048.084 7  22782303.927        2080.859
  -2142242.081 6  -1674502.222 5  25206949.649        1966.775
  -6651150.607 6  -5194068.024 6  24530311.529       -1764.929
  -6670760.784 6   -943763.943 6  24653690.416        2020.254
 -12620466.761 8  -9838034.010 9  22541058.130         173.871
  -6380491.260 6  -4972956.350 5  25845978.640       -2587.438
  -5359561.272 8  -4038975.304 9  22531654.862        1277.641
 93  5  8  5 53 30.0060000  0  7  3 22 21 26 23 28 17                0.006619280
  -2914578.027 7  -2270214.398 7  22794229.713        2097.231
  -2083023.002 6  -1628357.539 5  25218218.219        1981.427
  -6703973.111 6  -5235228.414 6  24520259.369       -1756.278
  -6609897.765 6   -896338.198 6  24665272.111        2037.415
 -12615060.294 8  -9833821.169 9  22542086.860         186.767
  -6458061.722 6  -5033400.741 5  25831217.152       -2583.578
  -5321147.703 8  -4009042.658 9  22538964.769        1283.431
 93  5  8  5 54  0.0060000  0  7  3 22 21 26 23 28 17                0.006636200
  -2851410.683 7  -2220993.082 7  22806249.912        2113.740
  -2023376.479 6  -1581879.738 5  25229568.853        1994.998
  -6756532.178 6  -5276183.479 6  24510258.191       -1747.593
  -6548525.124 6   -848515.331 6  24676950.572        2054.203
 -12609263.492 8  -9829304.151 9  22543190.003         199.851
  -6535508.446 6  -5093748.781 5  25816479.399       -2579.374
  -5282558.237 8  -3978972.920 9  22546308.036        1289.436
 93  5  8  5 54 30.0060000  0  7  3 22 21 26 23 28 17                0.006653120
  -2787746.780 7  -2171384.851 7  22818364.874        2130.412
  -1963322.026 6  -1535084.039 5  25240996.332        2008.876
  -6808834.555 6  -5316938.567 6  24500305.572       -1738.875
  -6486638.493 6   -800292.006 6  24688727.449        2071.803
 -12603072.016 8  -9824479.615 9  22544368.189         213.086
  -6612823.090 6  -5153993.851 5  25801766.748       -2574.836
  -5243783.179 8  -3948758.595 9  22553686.689        1295.690
 93  5  8  5 55  0.0060000  0  7  3 22 21 26 23 28 17                0.006670070
  -2723584.160 7  -2121388.003 7  22830574.613        2146.987
  -1902852.957 6  -1487965.333 5  25252502.491        2022.450
  -6860867.279 6  -5357483.491 6  24490403.863       -1729.881
  -6424221.869 6   -751655.637 6  24700605.267        2089.504
 -12596485.980 8  -9819347.599 9  22545621.521         226.246
  -6690002.207 6  -5214133.355 5  25787080.137       -2570.374
  -5204820.663 8  -3918398.172 9  22561100.975        1302.100
 93  5  8  5 55 30.0060000  0  7  3 22 21 26 23 28 17                0.006687030
  -2658922.666 7  -2071002.413 7  22842879.435        2163.643
  -1841974.063 6  -1440527.219 5  25264087.854        2036.050
  -6912632.171 6  -5397819.717 6  24480553.337       -1721.220
  -6361270.261 6   -702602.444 6  24712584.246        2107.262
 -12589495.212 8  -9813900.236 9  22546951.909         239.748
  -6767045.813 6  -5274167.217 5  25772419.026       -2565.740
  -5165652.490 8  -3887877.516 9  22568554.426        1309.214
 93  5  8  5 56  0.0060000  0  7  3 22 21 26 23 28 17                0.006703990
  -2593756.694 7  -2020223.734 7  22855279.799        2180.486
  -1780687.934 6  -1392771.835 5  25275751.519        2049.686
  -6964141.633 6  -5437956.916 6  24470751.171       -1712.843
  -6297781.546 6   -653130.712 6  24724665.671        2125.313
 -12582101.260 8  -9808138.690 9  22548358.846         253.268
  -6843944.131 6  -5334087.885 5  25757785.825       -2560.889
  -5126257.071 8  -3857179.773 9  22576051.225        1317.204
 93  5  8  5 56 30.0060000  0  7  3 22 21 26 23 28 17                0.006720940
  -2528084.709 7  -1969050.751 7  22867776.829        2197.423
  -1718988.631 6  -1344694.429 5  25287492.456        2063.707
  -7015402.902 6  -5477900.745 6  24460996.515       -1704.592
  -6233757.245 6   -603241.618 6  24736849.508        2142.886
 -12574301.059 8  -9802060.601 9  22549843.020         266.795
  -6920696.122 6  -5393894.550 5  25743180.277       -2555.912
  -5086621.478 8  -3826294.880 9  22583593.711        1325.086
 93  5  8  5 57  0.0060000  0  7  3 22 21 26 23 28 17                0.006737870
  -2461900.928 7  -1917478.979 7  22880371.129        2214.615
  -1656871.102 6  -1296291.162 5  25299312.951        2077.426
  -7066417.549 6  -5517652.350 6  24451288.794       -1696.424
  -6169212.473 6   -552946.967 6  24749131.956        2160.139
 -12566085.017 8  -9795658.467 9  22551406.425         281.040
  -6997294.563 6  -5453581.551 5  25728604.185       -2550.577
  -5046743.553 8  -3795221.159 9  22591182.189        1333.514
 93  5  8  5 57 30.0060000  0  7  3 22 21 26 23 28 17                0.006754750
  -2395207.423 7  -1865509.995 7  22893062.632        2231.504
  -1594346.060 6  -1247570.358 5  25311211.266        2091.072
  -7117199.231 6  -5557222.458 6  24441625.375       -1688.892
  -6104167.150 6   -502262.297 6  24761509.344        2176.307
 -12557445.356 8  -9788926.245 9  22553050.789         295.020
  -7073741.817 6  -5513150.775 5  25714056.978       -2545.757
  -5006618.864 8  -3763955.159 9  22598817.723        1341.483
 93  5  8  5 58  0.0060000  0  7  3 22 21 26 23 28 17                0.006771580
  -2328006.539 7  -1813145.680 7  22905850.599        2248.402
  -1531416.958 6  -1198534.722 5  25323185.762        2104.456
  -7167749.702 6  -5596612.361 6  24432005.667       -1680.963
  -6038644.298 6   -451205.522 6  24773977.903        2191.839
 -12548387.561 8  -9781868.190 9  22554774.484         309.054
  -7150042.177 6  -5572605.493 5  25699537.210       -2540.851
  -4966259.662 8  -3732506.424 9  22606497.817        1349.119
 93  5  8  5 58 30.0060000  0  7  3 22 21 26 23 28 17                0.006788360
  -2260294.808 7  -1760383.281 7  22918735.670        2265.693
  -1468075.800 6  -1149177.990 5  25335239.700        2118.595
  -7218045.128 6  -5635803.512 6  24422435.008       -1671.932
  -5972657.064 6   -399786.880 6  24786535.229        2207.552
 -12538902.888 8  -9774477.520 9  22556579.464         323.208
  -7226184.047 6  -5631936.740 5  25685047.659       -2535.149
  -4925673.236 8  -3700880.624 9  22614221.171        1356.757
 93  5  8  5 59  0.0060000  0  7  3 22 21 26 23 28 17                0.006805130
  -2192070.598 7  -1707221.553 7  22931718.404        2282.512
  -1404319.277 6  -1099497.575 5  25347371.992        2131.976
  -7268071.743 6  -5674785.217 6  24412915.171       -1663.019
  -5906191.961 6   -347995.877 6  24799182.963        2223.551
 -12529007.546 8  -9766766.843 9  22558462.412         336.543
  -7302167.894 6  -5691144.852 5  25670588.560       -2530.261
  -4884864.987 8  -3669081.982 9  22621986.564        1363.889
 93  5  8  5 59 30.0060000  0  7  3 22 21 26 23 28 17                0.006821870
  -2123337.076 7  -1653662.971 7  22944797.886        2299.603
  -1340153.810 6  -1049498.519 5  25359582.149        2145.900
  -7317822.436 6  -5713551.899 6  24403447.625       -1653.640
  -5839243.226 6   -295828.030 6  24811922.783        2239.873
 -12518711.632 8  -9758744.034 9  22560421.455         349.734
  -7377996.390 6  -5750231.915 5  25656158.682       -2524.966
  -4843843.231 8  -3637116.973 9  22629792.771        1370.903
 93  5  8  6  0  0.0060000  0  7  3 22 21 26 23 28 17                0.006838620
  -2054094.225 7  -1599707.495 7  22957974.365        2316.704
  -1275578.029 6   -999179.766 5  25371869.689        2159.517
  -7367289.758 6  -5752097.791 6  24394034.251       -1643.747
  -5771793.714 6   -243269.956 6  24824757.989        2257.240
 -12508038.169 8  -9750427.038 9  22562452.568         362.212
  -7453663.779 6  -5809193.453 5  25641759.486       -2519.251
  -4802612.666 8  -3604989.249 9  22637638.630        1378.282
 93  5  8  6  0 30.0060000  0  7  3 22 21 26 23 28 17                0.006855420
  -1984334.228 7  -1545349.049 7  22971249.316        2333.774
  -1210587.730 6   -948537.957 5  25384236.868        2173.251
  -7416462.838 6  -5790414.385 6  24384677.318       -1634.351
  -5703814.015 6   -190298.745 6  24837694.222        2274.975
 -12496995.222 8  -9741822.113 9  22564553.834         373.983
  -7529158.457 6  -5868020.397 5  25627393.135       -2513.577
  -4761157.606 8  -3572686.595 9  22645527.018        1385.632
 93  5  8  6  1  0.0060000  0  7  3 22 21 26 23 28 17                0.006872240
  -1914072.393 7  -1490599.562 7  22984619.848        2350.377
  -1145199.802 6   -897586.350 5  25396680.514        2186.247
  -7465364.186 6  -5828519.236 6  24375371.641       -1625.413
  -5635309.377 6   -136918.505 6  24850730.278        2292.121
 -12485600.339 8  -9732942.955 9  22566722.164         386.082
  -7604485.569 6  -5926716.758 5  25613058.910       -2507.721
  -4719484.671 8  -3540214.176 9  22653457.229        1392.939
 93  5  8  6  1 30.0060000  0  7  3 22 21 26 23 28 17                0.006889070
  -1843308.339 7  -1435458.738 7  22998085.796        2367.133
  -1079409.061 6   -846320.858 5  25409200.158        2199.884
  -7513999.389 6  -5866416.747 6  24366116.469       -1616.774
  -5566289.330 6    -83136.636 6  24863864.197        2309.361
 -12473828.804 8  -9723770.334 9  22568962.033         398.674
  -7679627.680 6  -5985268.979 5  25598759.770       -2501.596
  -4677580.900 8  -3507561.876 9  22661431.278        1400.855
 93  5  8  6  2  0.0060000  0  7  3 22 21 26 23 28 17                0.006905910
  -1772040.083 7  -1379925.022 7  23011647.638        2383.944
  -1013205.492 6   -794733.681 5  25421797.554        2213.630
  -7562371.061 6  -5904108.855 6  24356911.772       -1608.039
  -5496751.719 6    -28951.463 6  24877096.773        2326.429
 -12461675.597 8  -9714300.266 9  22571274.643         411.815
  -7754581.099 6  -6043674.142 5  25584496.701       -2495.263
  -4635432.805 8  -3474719.184 9  22669452.004        1409.076
 93  5  8  6  2 30.0060000  0  7  3 22 21 26 23 28 17                0.006922720
  -1700268.642 7  -1323999.237 7  23025305.524        2400.835
   -946595.475 6   -742829.771 5  25434472.721        2227.228
  -7610485.884 6  -5941600.804 6  24347755.240       -1599.300
  -5426712.957 6     25624.211 6  24890424.738        2343.033
 -12449117.399 8  -9704514.645 9  22573664.408         425.657
  -7829349.660 6  -6101935.325 5  25570268.432       -2488.924
  -4593044.523 8  -3441689.357 9  22677518.159        1417.079
 93  5  8  6  3  0.0060000  0  7  3 22 21 26 23 28 17                0.006939510
  -1627997.218 7  -1267683.818 7  23039058.003        2417.065
   -879589.270 6   -690617.160 5  25447223.092        2239.751
  -7658341.938 6  -5978891.185 6  24338648.443       -1591.158
  -5356183.162 6     80582.480 6  24903846.095        2359.021
 -12436146.146 8  -9694407.132 9  22576133.028         439.117
  -7903936.798 6  -6160055.088 5  25556075.162       -2483.628
  -4550417.803 8  -3408473.724 9  22685629.776        1424.662
 93  5  8  6  3 30.0060000  0  7  3 22 21 26 23 28 17                0.006956270
  -1555231.650 7  -1210983.391 7  23052904.976        2433.828
   -812208.223 6   -638112.462 5  25460046.339        2252.204
  -7705953.055 6  -6015990.714 6  24329588.318       -1582.749
  -5285165.065 6    135921.272 6  24917360.500        2375.605
 -12422775.858 8  -9683988.726 9  22578677.367         452.145
  -7978368.656 6  -6218053.904 5  25541911.241       -2478.413
  -4507563.975 8  -3375081.111 9  22693784.570        1432.170
 93  5  8  6  4  0.0060000  0  7  3 22 21 26 23 28 17                0.006972990
  -1481975.585 7  -1153900.736 7  23066845.286        2449.930
   -744469.002 6   -585328.686 5  25472936.520        2263.864
  -7753318.333 6  -6052898.695 6  24320575.047       -1574.781
  -5213668.628 6    191632.771 6  24930965.759        2390.997
 -12409032.284 8  -9673279.433 9  22581292.725         464.293
  -8052653.673 6  -6275938.286 5  25527775.248       -2473.697
  -4464511.162 8  -3341533.473 9  22701977.399        1438.170
 93  5  8  6  4 30.0060000  0  7  3 22 21 26 23 28 17                0.006989710
  -1408220.407 7  -1096429.165 7  23080880.429        2466.637
   -676362.503 6   -532258.711 5  25485897.242        2276.453
  -7800433.507 6  -6089611.734 6  24311609.162       -1566.448
  -5141695.149 6    247716.027 6  24944661.772        2407.039
 -12394910.160 8  -9662275.152 9  22583979.925         476.750
  -8126779.519 6  -6333698.651 5  25513669.486       -2468.098
  -4421259.470 8  -3307830.835 9  22710207.839        1445.147
 93  5  8  6  5  0.0070000  0  7  3 22 21 26 23 28 17                0.007006410
  -1333963.709 7  -1038566.810 7  23095010.966        2483.454
   -607877.181 6   -478893.499 5  25498929.877        2289.300
  -7847305.796 6  -6126135.578 6  24302689.919       -1558.337
  -5069237.762 6    304176.329 6  24958450.155        2423.395
 -12380420.109 8  -9650984.179 9  22586737.268         489.456
  -8200741.196 6  -6391331.036 5  25499594.963       -2462.286
  -4377796.899 8  -3273963.893 9  22718478.514        1452.286
 93  5  8  6  5 30.0070000  0  7  3 22 21 26 23 28 17                0.007023100
  -1259215.739 7   -980321.639 7  23109235.130        2499.746
   -539009.370 6   -425230.254 5  25512034.263        2302.124
  -7893945.526 6  -6162478.181 6  24293814.492       -1550.572
  -4996311.775 6    361001.778 6  24972327.418        2438.521
 -12365551.171 8  -9639397.986 9  22589566.647         502.134
  -8274523.728 6  -6448823.852 5  25485554.457       -2456.162
  -4334137.094 8  -3239943.256 9  22726786.552        1458.646
 93  5  8  6  6  0.0070000  0  7  3 22 21 26 23 28 17                0.007039770
  -1183973.443 7   -921691.270 7  23123553.116        2516.183
   -469745.943 6   -371258.769 5  25525214.989        2315.334
  -7940336.685 6  -6198627.065 6  24284986.582       -1542.187
  -4922928.207 6    418183.791 6  24986291.881        2453.773
 -12350292.196 8  -9627507.843 9  22592470.577         515.220
  -8348109.380 6  -6506163.251 5  25471551.650       -2449.481
  -4290268.549 8  -3205759.971 9  22735134.415        1466.024
 93  5  8  6  6 30.0070000  0  7  3 22 21 26 23 28 17                0.007056410
  -1108233.315 7   -862673.001 7  23137965.932        2532.995
   -400091.339 6   -316982.465 5  25538469.826        2328.232
  -7986470.244 6  -6234575.263 6  24276207.460       -1533.192
  -4849073.572 6    475732.861 6  25000345.980        2470.043
 -12334632.081 8  -9615305.137 9  22595450.476         528.831
  -8421486.583 6  -6563340.271 5  25457588.131       -2442.163
  -4246167.202 8  -3171395.277 9  22743526.703        1474.219
 93  5  8  6  7  0.0070000  0  7  3 22 21 26 23 28 17                0.007073030
  -1031984.354 7   -803258.237 7  23152475.466        2550.004
   -330057.920 6   -262410.931 5  25551796.441        2340.616
  -8032320.308 6  -6270302.544 6  24267482.610       -1523.649
  -4774725.009 6    533666.816 6  25014493.995        2486.432
 -12318561.473 8  -9602782.562 9  22598508.576         542.405
  -8494637.340 6  -6620340.784 5  25443667.945       -2434.545
  -4201815.509 8  -3136835.510 9  22751966.451        1482.339
 93  5  8  6  7 30.0070000  0  7  3 22 21 26 23 28 17                0.007089640
   -955224.357 7   -743445.255 7  23167082.443        2567.104
   -259660.984 6   -207556.231 5  25565192.576        2352.457
  -8077877.608 6  -6305801.684 6  24258813.793       -1513.613
  -4699896.241 6    591974.948 6  25028733.426        2502.259
 -12302098.246 8  -9589954.060 9  22601641.207         554.840
  -8567562.593 6  -6677165.613 5  25429791.011       -2427.223
  -4157224.726 8  -3102089.440 9  22760451.788        1490.366
 93  5  8  6  8  0.0070000  0  7  3 22 21 26 23 28 17                0.007106250
   -877953.919 7   -683234.520 7  23181786.363        2583.792
   -188917.573 6   -152431.461 5  25578654.401        2363.549
  -8123143.412 6  -6341073.690 6  24250199.948       -1504.408
  -4624581.900 6    650661.441 6  25043065.288        2518.459
 -12285273.545 8  -9576843.891 9  22604842.892         566.562
  -8640277.166 6  -6733826.258 5  25415953.763       -2420.656
  -4112391.713 8  -3067154.618 9  22768983.180        1498.153
 93  5  8  6  8 30.0070000  0  7  3 22 21 26 23 28 17                0.007122840
   -800187.966 7   -622637.665 7  23196584.788        2600.346
   -117850.232 6    -97054.312 5  25592177.889        2374.324
  -8168143.991 6  -6376139.048 6  24241636.694       -1495.738
  -4548784.760 6    709724.173 6  25057488.932        2534.519
 -12268097.970 8  -9563460.304 9  22608111.560         578.456
  -8712808.000 6  -6790343.740 5  25402151.219       -2414.794
  -4067333.651 8  -3032044.424 9  22777557.525        1505.659
 93  5  8  6  9  0.0070000  0  7  3 22 21 26 23 28 17                0.007139420
   -721925.544 7   -561653.968 7  23211477.837        2616.868
    -46444.302 6    -41413.313 5  25605766.056        2385.991
  -8212886.860 7  -6411003.576 6  24233122.411       -1487.296
  -4472513.797 6    769156.088 6  25072002.286        2549.971
 -12250566.814 8  -9549799.643 9  22611447.400         590.270
  -8785166.323 6  -6846726.771 5  25388382.154       -2409.125
  -4022053.795 8  -2996761.416 9  22786173.949        1512.777
 93  5  8  6  9 30.0070000  0  7  3 22 21 26 23 28 17                0.007155970
   -643171.048 7   -500286.832 7  23226464.154        2633.580
     25308.608 6     14498.025 5  25619419.759        2397.799
  -8257380.345 7  -6445673.795 6  24224655.339       -1478.508
  -4395781.935 6    828947.147 6  25086603.876        2565.924
 -12232677.749 8  -9535860.122 9  22614851.485         602.902
  -8857359.409 6  -6902981.090 5  25374644.143       -2403.297
  -3976568.109 8  -2961318.019 9  22794829.728        1520.097
 93  5  8  6 10  0.0070000  0  7  3 22 21 26 23 28 17                0.007172520
   -563913.628 7   -438527.812 7  23241546.493        2650.224
     97421.545 6     70689.891 5  25633142.277        2409.926
  -8301605.449 7  -6480134.881 6  24216239.586       -1469.532
  -4318559.814 6    889120.228 6  25101298.625        2582.329
 -12214390.505 8  -9521610.305 9  22618331.633         616.484
  -8929374.849 6  -6959096.951 5  25360940.008       -2397.401
  -3930853.636 8  -2925696.347 9  22803528.995        1527.768
 93  5  8  6 10 30.0070000  0  7  3 22 21 26 23 28 17                0.007189050
   -484144.221 7   -376369.841 7  23256726.215        2667.460
    169909.708 6    127174.194 5  25646937.047        2422.679
  -8345548.240 7  -6514376.002 6  24207877.436       -1459.960
  -4240844.241 6    949677.824 6  25116087.464        2598.668
 -12195689.997 8  -9507038.465 9  22621890.222         630.061
  -9001192.000 6  -7015058.311 5  25347273.568       -2390.260
  -3884903.342 8  -2889890.911 9  22812272.901        1535.641
 93  5  8  6 11  0.0070000  0  7  3 22 21 26 23 28 17                0.007205600
   -403856.925 7   -313808.316 7  23272004.228        2684.873
    242787.149 6    183961.802 5  25660805.851        2435.675
  -8389201.669 7  -6548391.619 6  24199570.237       -1450.240
  -4162640.888 6   1010615.527 6  25130969.164        2614.887
 -12176593.360 8  -9492157.961 9  22625523.807         643.056
  -9072779.184 6  -7070840.485 5  25333650.897       -2382.105
  -3838715.871 8  -2853900.674 9  22821062.008        1543.519
 93  5  8  6 11 30.0070000  0  7  3 22 21 26 23 28 17                0.007222160
   -323050.123 7   -250841.986 7  23287381.322        2702.179
    316050.273 5    241049.931 5  25674747.624        2448.617
  -8432562.683 7  -6582179.406 6  24191318.688       -1440.392
  -4083952.374 6   1071931.252 6  25145943.055        2631.080
 -12157108.566 8  -9476974.999 9  22629231.608         656.051
  -9144116.204 6  -7126427.741 5  25320076.064       -2373.524
  -3792291.893 8  -2817726.136 9  22829896.153        1551.717
 93  5  8  6 12  0.0070000  0  7  3 22 21 26 23 28 17                0.007238720
   -241737.915 7   -187481.817 7  23302854.220        2718.810
    389690.423 5    298431.832 5  25688761.013        2461.190
  -8475650.080 7  -6615753.960 6  24183119.404       -1431.672
  -4004798.238 6   1133609.804 6  25161005.641        2646.150
 -12137254.457 8  -9461504.238 9  22633009.713         667.816
  -9215204.615 6  -7181821.235 5  25306548.490       -2365.163
  -3745627.970 8  -2781364.637 9  22838776.014        1559.437
 93  5  8  6 12 30.0070000  0  7  3 22 21 26 23 28 17                0.007255300
   -159912.771 7   -123721.966 7  23318424.770        2735.918
    463720.899 6    356117.893 5  25702847.560        2474.026
  -8518464.088 7  -6649115.508 6  24174972.345       -1422.529
  -3925188.314 6   1195643.508 6  25176155.073        2661.103
 -12117039.083 8  -9445751.999 9  22636856.410         679.863
  -9286024.545 6  -7237005.579 5  25293071.821       -2356.130
  -3698728.688 8  -2744819.743 9  22847700.595        1567.146
 93  5  8  6 13  0.0070000  0  7  3 22 21 26 23 28 17                0.007271880
    -77577.826 7    -59564.881 7  23334092.853        2752.932
    538124.152 6    414094.442 5  25717007.125        2486.230
  -8560998.373 7  -6682259.077 6  24166878.108       -1413.011
  -3845135.191 6   1258022.559 6  25191388.344        2675.966
 -12096455.727 8  -9429713.005 9  22640773.709         692.700
  -9356580.854 6  -7291984.469 5  25279645.375       -2347.591
  -3651600.586 8  -2708096.547 9  22856668.777        1574.776
 93  5  8  6 13 30.0070000  0  7  3 22 21 26 23 28 17                0.007288450
      5265.050 7      4987.998 7  23349857.380        2769.883
    612884.595 6    472349.306 5  25731233.107        2497.879
  -8603248.360 7  -6715181.118 6  24158838.544       -1403.339
  -3764637.227 6   1320748.252 6  25206707.169        2690.888
 -12075481.923 8  -9413369.777 9  22644764.795         705.760
  -9426888.189 6  -7346769.348 5  25266266.537       -2339.378
  -3604249.096 8  -2671199.271 9  22865679.480        1582.216
 93  5  8  6 14  0.0070000  0  7  3 22 21 26 23 28 17                0.007305000
     88615.398 7     69936.318 7  23365718.608        2786.847
    687983.710 6    530868.054 5  25745523.719        2508.896
  -8645203.008 7  -6747873.014 6  24150854.261       -1393.289
  -3683685.462 6   1383827.564 6  25222112.008        2706.248
 -12054124.522 7  -9396727.618 9  22648828.773         718.256
  -9496953.053 6  -7401365.306 5  25252933.317       -2331.335
  -3556675.780 8  -2634129.161 9  22874732.413        1589.412
 93  5  8  6 14 30.0070000  0  7  3 22 21 26 23 28 17                0.007321550
    172481.402 7    135286.455 7  23381678.021        2803.728
    763410.525 5    589642.174 5  25759876.747        2519.391
  -8686844.589 7  -6780320.987 6  24142930.637       -1383.113
  -3602265.717 6   1447271.505 6  25237605.502        2721.553
 -12032384.639 8  -9379787.448 9  22652965.756         730.844
  -9566766.155 6  -7455765.075 5  25239647.893       -2323.079
  -3508882.489 8  -2596887.625 9  22883827.207        1596.661
 93  5  8  6 15  0.0070000  0  7  3 22 21 26 23 28 17                0.007338090
    256862.533 7    201037.971 7  23397735.075        2821.068
    839156.818 5    648665.223 5  25774290.008        2530.297
  -8728177.173 7  -6812528.183 6  24135065.251       -1372.927
  -3520368.803 6   1511087.281 6  25253189.989        2737.956
 -12010260.674 8  -9362547.985 9  22657175.703         743.751
  -9636322.438 6  -7509964.746 5  25226411.776       -2314.292
  -3460859.047 8  -2559466.763 9  22892965.860        1604.549
 93  5  8  6 15 30.0070000  0  7  3 22 21 26 23 28 17                0.007354630
    341759.215 7    267191.229 7  23413890.220        2838.291
    915232.167 5    707944.705 5  25788767.240        2541.272
  -8769211.851 7  -6844503.237 6  24127256.766       -1362.890
  -3437980.741 6   1575285.803 6  25268867.990        2754.324
 -11987760.118 8  -9345015.078 9  22661457.460         756.009
  -9705614.251 6  -7563958.322 5  25213226.284       -2305.329
  -3412595.942 8  -2521859.142 9  22902150.051        1612.859
 93  5  8  6 16  0.0070000  0  7  3 22 21 26 23 28 17                0.007371180
    427171.052 7    333745.909 7  23430143.599        2855.798
    991641.553 5    767484.499 5  25803305.833        2553.053
  -8809953.571 7  -6876250.012 6  24119503.834       -1353.294
  -3355109.638 6   1639860.669 6  25284638.139        2770.534
 -11964891.961 8  -9327195.721 9  22665809.058         768.866
  -9774633.723 6  -7617739.674 5  25200092.423       -2295.740
  -3364079.138 8  -2484053.838 9  22911382.370        1621.757
 93  5  8  6 16 30.0070000  0  7  3 22 21 26 23 28 17                0.007387740
    513103.224 7    400706.025 7  23446496.337        2872.887
   1068409.748 5    827303.846 5  25817914.359        2565.009
  -8850423.312 7  -6907784.841 6  24111802.835       -1344.651
  -3271761.896 6   1704806.961 6  25300498.508        2786.050
 -11941629.827 8  -9309069.388 9  22670235.852         782.171
  -9843366.694 6  -7671297.782 5  25187013.124       -2286.483
  -3315296.571 8  -2446041.437 9  22920665.374        1630.556
 93  5  8  6 17  0.0070000  0  7  3 22 21 26 23 28 17                0.007404290
    599550.908 7    468067.848 7  23462946.842        2890.103
   1145537.864 5    887403.616 5  25832591.946        2577.089
  -8890635.459 7  -6939118.955 6  24104150.285       -1335.926
  -3187944.612 6   1770119.132 6  25316447.957        2801.767
 -11917966.397 8  -9290630.336 9  22674738.964         795.571
  -9911827.692 6  -7724644.011 5  25173985.055       -2277.643
  -3266250.111 8  -2407823.419 9  22929998.582        1639.330
 93  5  8  6 17 30.0070000  0  7  3 22 21 26 23 28 17                0.007420850
    686517.121 7    535833.727 6  23479495.653        2907.428
   1223032.881 5    947789.301 5  25847339.591        2589.133
  -8930571.784 7  -6970238.145 6  24096550.893       -1326.412
  -3103660.783 6   1835794.840 6  25332486.623        2816.963
 -11893899.546 8  -9271876.936 9  22679318.904         808.857
  -9980024.703 6  -7777784.498 5  25161007.376       -2268.847
  -3216931.530 8  -2369393.345 9  22939383.634        1648.503
 93  5  8  6 18  0.0070000  0  7  3 22 21 26 23 28 17                0.007437390
    773999.812 7    604002.061 6  23496143.020        2924.417
   1300885.043 5   1008453.265 5  25862153.965        2600.874
  -8970231.996 7  -7001142.169 6  24089003.749       -1317.576
  -3018922.530 6   1901824.644 6  25348611.752        2832.207
 -11869437.226 8  -9252815.360 9  22683974.022         821.883
 -10047960.795 6  -7830721.681 5  25148079.917       -2260.361
  -3167347.775 8  -2330756.642 9  22948819.044        1656.960
 93  5  8  6 18 30.0070000  0  7  3 22 21 26 23 28 17                0.007453940
    861994.053 7    672568.990 6  23512887.865        2941.440
   1379077.339 5   1069382.258 5  25877033.415        2611.721
  -9009609.738 7  -7031826.115 6  24081510.669       -1307.490
  -2933721.558 6   1968214.999 6  25364824.961        2847.592
 -11844590.835 8  -9233454.537 9  22688702.079         834.224
 -10115646.561 6  -7883463.795 5  25135199.772       -2252.213
  -3117511.504 8  -2291923.193 9  22958302.547        1665.198
 93  5  8  6 19  0.0070000  0  7  3 22 21 26 23 28 17                0.007470490
    950497.714 7    741532.864 6  23529729.705        2958.573
   1457585.567 5   1130557.478 5  25891972.346        2622.158
  -9048673.372 7  -7062265.285 6  24074076.673       -1296.644
  -2848058.933 6   2034965.088 6  25381126.489        2863.099
 -11819381.083 8  -9213810.559 9  22693499.458         846.443
 -10183090.763 6  -7936017.689 5  25122365.726       -2243.931
  -3067434.775 8  -2252902.363 9  22967831.820        1673.258
 93  5  8  6 19 30.0070000  0  7  3 22 21 26 23 28 17                0.007487040
   1039516.385 7    810898.035 6  23546669.221        2975.719
   1536408.197 5   1191977.680 5  25906972.874        2632.555
  -9087403.318 7  -7092444.437 7  24066706.595       -1285.605
  -2761938.533 6   2102071.883 6  25397514.827        2878.137
 -11793806.812 8  -9193882.569 9  22698366.028         858.423
 -10250273.550 6  -7988367.885 5  25109581.262       -2234.784
  -3017113.044 8  -2213690.627 9  22977407.871        1681.372
 93  5  8  6 20  0.0070000  0  7  3 22 21 26 23 28 17                0.007503600
   1129048.109 7    880663.017 6  23563706.526        2992.698
   1615535.974 5   1253635.662 5  25922030.702        2642.562
  -9125814.700 7  -7122375.333 7  24059397.025       -1275.167
  -2675361.596 6   2169534.425 6  25413989.721        2893.560
 -11767871.281 8  -9173673.036 9  22703301.214         870.480
 -10317174.320 6  -8040498.336 5  25096850.384       -2225.167
  -2966557.896 8  -2174297.002 9  22987028.272        1688.928
 93  5  8  6 20 30.0070000  0  7  3 22 21 26 23 28 17                0.007520150
   1219090.572 7    950825.953 6  23580841.131        3009.778
   1694967.508 5   1315530.314 5  25937146.400        2652.739
  -9163901.541 7  -7152053.363 7  24052149.204       -1264.160
  -2588328.047 6   2237352.773 6  25430551.508        2908.478
 -11741573.198 8  -9153181.020 9  22708305.437         882.589
 -10383776.639 6  -8092396.219 5  25084176.339       -2215.022
  -2915770.314 8  -2134722.252 9  22996692.891        1696.863
 93  5  8  6 21  0.0070000  0  7  3 22 21 26 23 28 17                0.007536700
   1309645.643 7   1021388.341 6  23598073.244        3026.808
   1774712.808 6   1377669.461 5  25952320.354        2663.389
  -9201670.498 7  -7181483.706 7  24044961.840       -1254.024
  -2500851.360 6   2305516.428 6  25447197.694        2923.044
 -11714906.579 8  -9132401.833 9  22713379.904         894.969
 -10450063.406 6  -8144048.226 5  25071562.329       -2204.243
  -2864741.760 8  -2094959.757 9  23006403.409        1705.019
 93  5  8  6 21 30.0070000  0  7  3 22 21 26 23 28 17                0.007553260
   1400698.337 7   1092338.478 6  23615399.778        3043.259
   1854774.089 5   1440054.846 5  25967556.041        2674.063
  -9239149.035 7  -7210687.732 7  24037829.877       -1244.618
  -2412945.012 6   2374014.851 6  25463925.747        2937.526
 -11687885.694 8  -9111346.589 9  22718522.064         906.422
 -10516032.052 6  -8195452.331 5  25059009.019       -2193.688
  -2813469.490 8  -2055007.326 9  23016160.175        1713.190
 93  5  8  6 22  0.0070000  0  7  3 22 21 26 23 28 17                0.007569820
   1492240.894 7   1163670.329 6  23632819.799        3059.466
   1935155.079 5   1502689.332 5  25982852.363        2684.545
  -9276350.951 7  -7239676.201 7  24030750.349       -1235.385
  -2324606.448 6   2442850.092 6  25480736.117        2951.716
 -11660520.568 8  -9090023.108 9  22723729.450         918.064
 -10581695.306 6  -8246618.476 5  25046513.640       -2183.920
  -2761956.740 8  -2014867.528 9  23025962.607        1721.084
 93  5  8  6 22 30.0070000  0  7  3 22 21 26 23 28 17                0.007586360
   1584266.053 7   1235378.238 6  23650331.577        3075.397
   2015836.888 5   1565558.230 5  25998205.630        2694.230
  -9313281.599 7  -7268453.328 7  24023722.725       -1226.695
  -2235852.734 6   2512008.829 6  25497625.653        2965.181
 -11632805.274 8  -9068426.772 9  22729003.428         929.788
 -10647081.319 6  -8297568.583 5  25034071.074       -2175.157
  -2710201.726 8  -1974538.956 9  23035811.130        1729.266
 93  5  8  6 23  0.0070000  0  7  3 22 21 26 23 28 17                0.007602870
   1676762.877 7   1307453.670 6  23667933.199        3090.835
   2096808.630 5   1628653.100 5  26013615.138        2703.714
  -9349961.962 7  -7297035.393 7  24016742.576       -1218.643
  -2146702.046 6   2581476.882 6  25514590.278        2978.205
 -11604733.362 8  -9046552.530 9  22734345.410         941.717
 -10712210.221 6  -8348318.352 6  25021677.307       -2166.735
  -2658215.071 8  -1934029.857 9  23045703.792        1736.579
 93  5  8  6 23 30.0070000  0  7  3 22 21 26 23 28 17                0.007619340
   1769719.752 7   1379887.600 6  23685622.315        3106.225
   2178052.149 5   1691959.700 5  26029074.777        2712.608
  -9386403.350 7  -7325431.258 7  24009808.296       -1210.562
  -2057159.116 6   2651250.581 6  25531629.378        2991.473
 -11576309.455 8  -9024404.032 9  22739754.134         953.552
 -10777089.565 6  -8398873.679 6  25009331.124       -2158.387
  -2606015.057 8  -1893354.519 9  23055637.144        1743.599
 93  5  8  6 24  0.0070000  0  7  3 22 21 26 23 28 17                0.007635760
   1863136.966 7   1452680.210 6  23703399.208        3121.370
   2259550.553 5   1755464.916 5  26044584.101        2720.605
  -9422603.792 7  -7353639.390 7  24002919.625       -1202.740
  -1967225.613 6   2721328.621 6  25548743.223        3004.140
 -11547515.218 8  -9001966.963 9  22745233.322         966.091
 -10841716.737 6  -8449232.495 6  24997032.815       -2149.956
  -2553613.043 8  -1852521.782 9  23065608.830        1749.938
 93  5  8  6 24 30.0070000  0  7  3 22 21 26 23 28 17                0.007652120
   1957010.677 7   1525828.555 6  23721262.642        3136.593
   2341289.796 5   1819157.811 5  26060137.694        2728.855
  -9458563.515 7  -7381659.939 7  23996076.282       -1194.549
  -1876909.776 6   2791704.575 6  25565929.875        3017.007
 -11518352.928 8  -8979243.103 9  22750782.641         977.940
 -10906082.212 6  -8499387.395 6  24984784.443       -2141.000
  -2501015.191 8  -1811536.443 9  23075618.011        1756.599
 93  5  8  6 25  0.0070000  0  7  3 22 21 26 23 28 17                0.007668450
   2051344.591 7   1599335.508 6  23739213.773        3151.841
   2423292.374 5   1883055.927 5  26075742.827        2737.624
  -9494262.645 7  -7409477.425 7  23989283.293       -1185.605
  -1786192.432 6   2862393.399 5  25583192.952        3030.585
 -11488840.219 8  -8956246.174 9  22756398.822         989.061
 -10970162.332 6  -8549319.924 6  24972590.397       -2131.233
  -2448218.839 8  -1770396.429 9  23085665.098        1763.024
 93  5  8  6 25 30.0070000  0  7  3 22 21 26 23 28 17                0.007684760
   2146130.542 7   1673194.692 6  23757251.028        3167.032
   2505545.812 5   1947149.522 5  26091395.316        2746.146
  -9529693.833 7  -7437086.115 7  23982540.961       -1176.418
  -1695074.208 6   2933394.608 5  25600532.470        3044.042
 -11459014.480 8  -8933005.323 9  22762074.532         999.410
 -11033958.290 6  -8599031.041 6  24960450.422       -2121.793
  -2395224.693 8  -1729102.281 9  23095749.666        1769.966
 93  5  8  6 26  0.0070000  0  7  3 22 21 26 23 28 17                0.007701060
   2241370.734 7   1747407.807 6  23775374.902        3182.142
   2588058.388 5   2011445.015 5  26107095.896        2754.718
  -9564852.270 7  -7464482.270 7  23975850.614       -1167.543
  -1603554.452 6   3004708.706 5  25617948.063        3057.349
 -11428882.340 8  -8909525.732 9  22767808.324        1009.297
 -11097475.167 6  -8648524.684 6  24948363.567       -2112.651
  -2342022.450 8  -1687645.997 9  23105873.528        1776.953
 93  5  8  6 26 30.0070000  0  7  3 22 21 26 23 28 17                0.007717360
   2337065.266 7   1821974.976 6  23793584.712        3197.114
   2670830.780 5   2075942.971 5  26122846.339        2763.242
  -9599743.444 7  -7491670.192 7  23969210.930       -1158.751
  -1511631.150 6   3076337.256 5  25635440.760        3070.625
 -11398466.884 8  -8885825.363 9  22773596.277        1018.205
 -11160716.948 6  -8697803.977 6  24936328.948       -2103.511
  -2288602.518 8  -1646020.065 9  23116038.909        1784.210
 93  5  8  6 27  0.0070000  0  7  3 22 21 26 23 28 17                0.007733660
   2433209.698 7   1896892.701 6  23811880.568        3212.221
   2753858.513 5   2140639.910 5  26138646.145        2771.600
  -9634375.627 7  -7518656.298 7  23962620.303       -1150.249
  -1419311.522 6   3148274.604 5  25653008.140        3083.688
 -11367779.257 8  -8861912.933 9  22779435.945        1027.464
 -11223680.447 6  -8746866.440 6  24924347.164       -2094.187
  -2234965.464 8  -1604224.979 9  23126245.623        1791.512
 93  5  8  6 27 30.0070000  0  7  3 22 21 26 23 28 17                0.007749950
   2529802.433 7   1972159.769 6  23830261.674        3227.038
   2837123.633 5   2205521.779 5  26154490.871        2779.467
  -9668768.234 7  -7545455.712 7  23956075.923       -1142.511
  -1326617.849 6   3220503.424 5  25670647.100        3095.783
 -11336815.062 8  -8837784.981 9  22785328.365        1036.982
 -11286377.739 6  -8795721.444 6  24912416.283       -2085.661
  -2181107.933 8  -1562258.071 9  23136494.319        1798.898
 93  5  8  6 28  0.0070000  0  7  3 22 21 26 23 28 17                0.007766210
   2626843.375 7   2047776.088 6  23848727.839        3241.848
   2920621.761 5   2270585.221 5  26170380.732        2786.792
  -9702924.167 7  -7572070.703 7  23949576.325       -1134.878
  -1233557.100 6   3293018.291 5  25688355.882        3107.950
 -11305554.089 8  -8813425.777 9  22791277.108        1046.587
 -11348807.281 6  -8844367.818 6  24900536.436       -2076.572
  -2127030.373 8  -1520119.715 9  23146784.884        1805.894
 93  5  8  6 28 30.0070000  0  7  3 22 21 26 23 28 17                0.007782430
   2724325.708 7   2123736.329 6  23867278.088        3256.566
   3004335.666 5   2335816.826 5  26186310.958        2794.008
  -9736847.207 7  -7598504.230 7  23943120.702       -1126.830
  -1140138.980 6   3365811.618 5  25706132.738        3119.638
 -11274011.311 8  -8788846.981 9  22797279.542        1056.073
 -11410959.782 6  -8892798.308 6  24888709.316       -2067.141
  -2072750.588 8  -1477823.771 9  23157113.964        1812.573
 93  5  8  6 29  0.0070000  0  7  3 22 21 26 23 28 17                0.007798610
   2822240.661 7   2200033.697 6  23885910.718        3271.112
   3088256.150 5   2401209.402 5  26202281.009        2800.793
  -9770538.714 7  -7624757.312 7  23936709.713       -1119.001
  -1046380.588 6   3438870.104 5  25723974.580        3131.027
 -11242186.688 8  -8764048.559 9  22803335.790        1065.800
 -11472846.875 6  -8941022.000 6  24876932.436       -2058.558
  -2018284.664 8  -1435382.797 9  23167478.627        1818.614
 93  5  8  6 29 30.0070000  0  7  3 22 21 26 23 28 17                0.007814730
   2920591.714 7   2276670.862 6  23904625.764        3285.787
   3172380.234 5   2466760.669 5  26218288.364        2807.823
  -9803988.136 7  -7650821.778 7  23930344.258       -1110.376
   -952281.335 6   3512194.197 5  25741880.875        3142.643
 -11210062.575 8  -8739016.776 9  22809448.787        1076.239
 -11534472.197 6  -8989041.719 6  24865205.416       -2049.328
  -1963638.487 8  -1392801.362 9  23177877.678        1824.799
 93  5  8  6 30  0.0070000  0  7  3 22 21 26 23 28 17                0.007830820
   3019387.239 7   2353654.399 6  23923426.027        3300.438
   3256712.678 5   2532474.259 5  26234338.125        2814.427
  -9837168.511 7  -7676676.613 7  23924029.998       -1101.574
   -857827.331 6   3585794.705 5  25759854.877        3154.400
 -11177628.205 8  -8713743.245 9  22815620.774        1086.043
 -11595807.864 6  -9036835.723 6  24853533.647       -2039.627
  -1908806.965 8  -1350075.515 9  23188311.786        1830.750
 93  5  8  6 30 30.0070000  0  7  3 22 21 26 23 28 17                0.007846850
   3118617.675 7   2430976.806 6  23942308.835        3314.630
   3341241.570 5   2598340.927 5  26250423.097        2820.815
  -9870086.998 7  -7702327.348 7  23917765.976       -1092.927
   -763035.037 6   3659658.827 5  25777893.451        3165.104
 -11144901.204 8  -8688241.677 9  22821848.543        1095.858
 -11656859.087 6  -9084408.092 6  24841916.130       -2030.536
  -1853793.945 8  -1307208.228 9  23198780.427        1836.829
 93  5  8  6 31  0.0070000  0  7  3 22 21 26 23 28 17                0.007862820
   3218271.640 7   2508629.235 6  23961272.556        3328.700
   3425958.695 5   2664354.301 5  26266544.427        2827.012
  -9902744.962 7  -7727775.103 7  23911551.737       -1084.271
   -667921.005 6   3733773.657 5  25795993.086        3175.753
 -11111873.321 8  -8662505.660 9  22828133.460        1106.010
 -11717638.260 6  -9131768.461 6  24830350.085       -2021.223
  -1798592.945 8  -1264194.458 9  23209284.839        1843.322
 93  5  8  6 31 30.0070000  0  7  3 22 21 26 23 28 17                0.007878720
   3318345.539 7   2586608.868 6  23980315.913        3342.737
   3510867.646 5   2730517.112 5  26282702.299        2833.561
  -9935141.179 7  -7753018.900 7  23905387.044       -1075.452
   -572487.882 6   3808137.099 5  25814153.617        3186.614
 -11078540.700 8  -8636532.194 9  22834476.221        1116.198
 -11778124.145 6  -9178900.312 6  24818840.066       -2011.022
  -1743185.407 8  -1221019.763 9  23219828.387        1850.603
 93  5  8  6 32  0.0070000  0  7  3 22 21 26 23 28 17                0.007894570
   3418841.295 7   2664917.249 6  23999439.829        3356.773
   3595971.982 5   2796832.144 5  26298896.290        2840.045
  -9967280.138 7  -7778062.232 7  23899271.060       -1067.420
   -476716.586 6   3882764.067 5  25832378.176        3198.205
 -11044906.411 8  -8610323.651 9  22840876.481        1126.208
 -11838302.218 6  -9225792.304 6  24807388.561       -2000.794
  -1687565.424 8  -1177679.520 9  23230412.399        1857.274
 93  5  8  6 32 30.0070000  0  7  3 22 21 26 23 28 17                0.007910380
   3519762.401 7   2743557.066 6  24018644.219        3371.083
   3681276.445 5   2863303.141 5  26315129.191        2846.893
  -9999184.126 7  -7802922.468 7  23893199.962       -1059.528
   -380593.947 6   3957664.825 5  25850669.420        3210.174
 -11010959.691 8  -8583871.651 9  22847336.279        1137.016
 -11898168.488 6  -9272441.310 6  24795996.459       -1990.182
  -1631747.871 8  -1134185.319 9  23241034.077        1863.834
 93  5  8  6 33  0.0070000  0  7  3 22 21 26 23 28 17                0.007926160
   3621111.671 7   2822530.505 6  24037930.198        3385.445
   3766784.907 5   2929933.064 5  26331401.146        2853.685
 -10030864.433 7  -7827608.381 7  23887171.345       -1052.398
   -284107.395 6   4032849.132 5  25869030.372        3222.415
 -10976693.220 8  -8557170.501 9  22853857.074        1147.514
 -11957709.297 6  -9318836.739 6  24784666.045       -1979.086
  -1575742.097 8  -1090544.467 9  23251691.508        1869.986
 93  5  8  6 33 30.0070000  0  7  3 22 21 26 23 28 17                0.007941930
   3722891.197 7   2901839.217 6  24057298.348        3399.736
   3852496.883 5   2996721.609 5  26347711.312        2860.320
 -10062335.080 7  -7852130.954 7  23881182.801       -1045.481
   -187247.834 6   4108324.108 5  25887462.031        3234.981
 -10942115.457 8  -8530226.792 9  22860437.128        1157.692
 -12016919.637 6  -9364974.654 6  24773398.552       -1968.250
  -1519561.704 8  -1046767.542 9  23262382.346        1875.309
 93  5  8  6 34  0.0070000  0  7  3 22 21 26 23 28 17                0.007957680
   3825101.377 7   2981483.511 6  24076748.235        3414.123
   3938406.889 5   3063664.508 5  26364058.688        2867.158
 -10093590.515 7  -7876485.814 7  23875235.128       -1037.973
    -90018.693 6   4184087.077 5  25905964.165        3246.833
 -10907238.751 8  -8503050.121 9  22867073.974        1167.593
 -12075808.946 6  -9410862.398 6  24762192.183       -1957.576
  -1463228.922 8  -1002871.863 9  23273102.238        1880.423
 93  5  8  6 34 30.0070000  0  7  3 22 21 26 23 28 17                0.007973410
   3927749.617 7   3061469.147 6  24096281.681        3428.800
   4024531.581 5   3130774.652 5  26380448.612        2874.460
 -10124597.792 7  -7900647.302 7  23869334.561       -1029.018
      7559.128 6   4260121.735 5  25924532.339        3258.284
 -10872059.801 8  -8475637.952 9  22873768.230        1177.485
 -12134369.902 7  -9456494.316 6  24751048.616       -1946.497
  -1406716.823 8   -958836.467 9  23283856.171        1887.128
 93  5  8  6 35  0.0070000  0  8  1  3 22 21 26 23 28 17             0.007989170
    -99249.07615    -89293.15112  26997301.189       -2919.696
   4030832.367 7   3141793.346 6  24115897.501        3443.367
   4110877.834 5   3198057.421 5  26396879.902        2882.028
 -10155330.454 7  -7924594.822 7  23863486.193       -1019.415
    105475.251 6   4336419.975 5  25943164.921        3269.673
 -10836597.544 8  -8448005.029 9  22880516.389        1186.880
 -12192607.136 7  -9501873.965 6  24739966.308       -1935.775
  -1349996.333 8   -914638.693 9  23294649.638        1894.508
 93  5  8  6 35 30.0080000  0  8  1  3 22 21 26 23 28 17             0.008004870
   -186878.913 5   -157576.110 4  26980626.887       -2921.987
   4134349.789 7   3222456.266 6  24135596.454        3457.713
   4197445.919 5   3265513.021 5  26413353.103        2889.191
 -10185771.265 7  -7948314.892 7  23857693.363       -1009.466
    203727.801 6   4412980.380 5  25961861.756        3280.511
 -10800856.292 8  -8420154.692 9  22887317.719        1196.081
 -12250535.849 7  -9547013.193 6  24728943.090       -1925.574
  -1293054.668 8   -870268.566 9  23305485.298        1901.970
 93  5  8  6 36  0.0080000  0  8  1  3 22 21 26 23 28 17             0.008020520
   -274569.731 5   -225906.574 5  26963939.456       -2924.046
   4238296.339 7   3303453.566 6  24155377.021        3471.702
   4284221.997 5   3333130.720 5  26429865.991        2895.794
 -10215910.637 7  -7971800.116 7  23851958.004       -1000.160
    302295.698 6   4489786.505 5  25980618.829        3290.465
 -10764842.357 8  -8392091.891 9  22894170.984        1204.778
 -12308149.193 7  -9591906.718 6  24717979.919       -1915.388
  -1235876.940 8   -825714.506 9  23316365.927        1909.796
 93  5  8  6 36 30.0080000  0  8  1  3 22 21 26 23 28 17             0.008036130
   -362305.833 5   -294272.314 5  26947243.823       -2924.871
   4342667.366 7   3384781.632 6  24175237.999        3486.240
   4371190.242 5   3400898.154 5  26446417.317        2902.243
 -10245778.443 7  -7995073.702 7  23846274.458        -991.048
    401171.225 6   4566832.376 5  25999434.680        3301.484
 -10728560.573 8  -8363820.367 9  22901075.235        1214.201
 -12365449.671 6  -9636556.411 6  24707076.007       -1904.486
  -1178458.610 8   -780972.952 9  23327292.031        1918.102
 93  5  8  6 37  0.0080000  0  8  1  3 22 21 26 23 28 17             0.008051700
   -450072.501 5   -362661.897 5  26930541.778       -2926.164
   4447467.628 7   3466444.154 6  24195180.735        3500.184
   4458340.934 5   3468807.768 5  26463000.600        2907.601
 -10275390.832 7  -8018148.273 7  23840639.429        -983.209
    500368.390 6   4644128.854 5  26018311.046        3311.603
 -10691996.589 8  -8335328.945 9  22908033.269        1223.435
 -12422431.819 7  -9680958.069 6  24696232.494       -1894.246
  -1120806.298 8   -736049.084 9  23338262.897        1925.238
 93  5  8  6 37 30.0080000  0  8  1  3 22 21 26 23 28 17             0.008067230
   -537874.941 5   -431079.363 5  26913834.206       -2927.651
   4552694.300 7   3548438.954 6  24215204.703        3514.386
   4545656.585 5   3536845.901 5  26479615.633        2913.149
 -10304759.585 7  -8041033.001 7  23835050.488        -975.109
    599873.583 6   4721665.362 5  26037246.477        3321.801
 -10655141.936 8  -8306611.040 9  22915046.583        1233.149
 -12479086.773 7  -9725104.784 6  24685451.429       -1883.013
  -1062937.666 8   -690956.642 9  23349275.002        1932.359
 93  5  8  6 38  0.0080000  0  8  1  3 22 21 26 23 28 17             0.008082720
   -625716.623 5   -499527.390 5  26897118.476       -2928.605
   4658342.524 7   3630762.234 6  24235309.226        3528.326
   4633127.024 5   3605004.667 5  26496261.641        2917.969
 -10333890.579 7  -8063732.444 7  23829506.926        -967.153
    699684.851 6   4799440.349 5  26056240.160        3332.283
 -10618003.118 8  -8277671.701 9  22922113.881        1242.523
 -12535404.557 7  -9768988.771 6  24674734.156       -1871.723
  -1004864.280 8   -645704.664 9  23360326.032        1938.902
 93  5  8  6 38 30.0080000  0  8  1  3 22 21 26 23 28 17             0.008098190
   -713582.870 5   -567994.547 5  26880397.740       -2929.426
   4764414.920 7   3713416.036 6  24255493.980        3542.653
   4720750.003 5   3673282.357 5  26512935.331        2923.311
 -10362764.841 7  -8086231.847 7  23824012.546        -957.949
    799831.763 6   4877476.898 5  26075297.500        3343.983
 -10580570.774 8  -8248503.627 9  22929237.019        1252.704
 -12591376.392 7  -9812603.142 6  24664083.031       -1860.051
   -946590.684 8   -600296.661 9  23371415.177        1945.770
 93  5  8  6 39  0.0080000  0  8  1  3 22 21 26 23 28 17             0.008113620
   -801484.498 5   -636489.264 5  26863670.951       -2930.863
   4870910.428 7   3796399.538 6  24275759.311        3556.714
   4808535.845 5   3741686.885 5  26529640.352        2928.891
 -10391361.277 7  -8108514.761 7  23818570.797        -948.503
    900324.841 6   4955783.166 5  26094420.360        3355.524
 -10542843.640 8  -8219105.864 9  22936416.061        1262.270
 -12647004.618 7  -9855949.821 6  24653497.518       -1848.453
   -888116.641 8   -554732.487 9  23382542.363        1952.440
 93  5  8  6 39 30.0080000  0  8  1  3 22 21 26 23 28 17             0.008129030
   -889418.452 5   -705009.249 5  26846937.978       -2931.542
   4977833.577 7   3879716.283 6  24296106.094        3571.214
   4896485.668 5   3810219.228 5  26546375.625        2934.467
 -10419669.216 7  -8130572.868 7  23813183.797        -938.606
   1001175.934 6   5034368.438 5  26113611.698        3367.948
 -10504830.535 8  -8189485.265 9  22943649.651        1271.915
 -12702275.741 7  -9899018.220 6  24642979.961       -1836.444
   -829435.611 8   -509007.016 9  23393709.253        1959.582
 93  5  8  6 40  0.0080000  0  8  1  3 22 21 26 23 28 17             0.008144440
   -977366.391 5   -773540.047 5  26830202.762       -2931.652
   5085189.651 7   3963370.347 6  24316535.732        3585.698
   4984600.433 5   3878880.084 5  26563144.062        2940.080
 -10447681.643 7  -8152400.712 7  23807853.275        -928.840
   1102400.830 6   5113244.954 5  26132874.269        3380.361
 -10466528.432 8  -8159639.463 9  22950938.426        1281.599
 -12757192.028 7  -9941810.115 6  24632529.547       -1824.441
   -770534.321 8   -463109.906 9  23404917.851        1967.264
 93  5  8  6 40 30.0080000  0  8  1  3 22 21 26 23 28 17             0.008159830
  -1065326.009 5   -842079.971 5  26813464.366       -2932.367
   5192974.304 7   4047358.375 6  24337046.423        3599.851
   5072893.615 5   3947679.975 5  26579944.964        2946.356
 -10475408.209 7  -8174005.828 7  23802577.159        -919.546
   1203979.836 6   5192397.425 5  26152204.148        3391.637
 -10427937.705 8  -8129568.769 9  22958281.872        1291.214
 -12811747.899 7  -9984321.190 6  24622147.810       -1812.493
   -711408.199 8   -417037.604 9  23416169.091        1974.600
 93  5  8  6 41  0.0080000  0  8  1  3 22 21 26 23 28 17             0.008175200
  -1153304.055 5   -910634.256 5  26796721.498       -2932.902
   5301194.647 7   4131685.905 6  24357640.166        3614.466
   5161383.532 5   4016633.139 5  26596785.232        2952.743
 -10502858.285 7  -8195395.488 7  23797353.386        -910.606
   1305896.194 6   5271812.743 5  26171598.121        3402.759
 -10389055.348 8  -8099270.831 9  22965680.939        1300.975
 -12865929.231 7 -10026540.395 6  24611837.609       -1799.592
   -652048.332 8   -370783.165 9  23427464.724        1982.695
 93  5  8  6 41 30.0080000  0  8  1  3 22 21 26 23 28 17             0.008190560
  -1241288.745 5   -979193.701 5  26779977.541       -2932.815
   5409854.348 7   4216355.798 6  24378317.381        3629.046
   5250058.179 5   4085730.288 5  26613659.317        2958.938
 -10530042.616 7  -8216578.065 7  23792180.755        -901.739
   1408141.890 6   5351484.710 5  26191055.089        3413.571
 -10349871.571 8  -8068738.014 9  22973137.469        1311.143
 -12919720.623 7 -10068455.751 6  24601601.447       -1786.703
   -592442.155 8   -324336.791 9  23438807.302        1990.932
 93  5  8  6 42  0.0080000  0  8  1  3 22 21 26 23 28 17             0.008205900
  -1329272.369 5  -1047752.338 5  26763234.334       -2932.643
   5518949.407 7   4301364.919 6  24399077.350        3643.751
   5338936.034 5   4154985.745 5  26630571.596        2966.341
 -10556959.796 7  -8237552.461 8  23787058.882        -892.760
   1510715.029 6   5431411.831 5  26210574.307        3424.590
 -10310381.978 8  -8037966.890 9  22980652.204        1321.472
 -12973118.037 7 -10110064.123 6  24591440.101       -1772.972
   -532586.275 8   -277695.845 9  23450197.644        1999.501
 93  5  8  6 42 30.0080000  0  8  1  3 22 21 26 23 28 17             0.008221250
  -1417252.936 5  -1116308.623 5  26746492.423       -2932.656
   5628486.181 7   4386718.234 6  24419921.560        3658.599
   5428029.592 5   4224409.275 5  26647525.708        2973.252
 -10583608.636 7  -8258317.785 8  23781987.792        -883.611
   1613622.048 6   5511599.087 5  26230156.888        3436.055
 -10270585.822 8  -8006956.913 9  22988225.293        1331.787
 -13026104.466 7 -10151352.240 6  24581357.101       -1759.436
   -472476.688 8   -230857.225 9  23461636.137        2007.942
 93  5  8  6 43  0.0080000  0  8  1  3 22 21 26 23 28 17             0.008236600
  -1505214.158 5  -1184849.807 5  26729754.147       -2931.149
   5738475.184 6   4472423.955 6  24440851.681        3673.926
   5517325.248 5   4293990.307 5  26664518.269        2980.063
 -10609972.555 7  -8278861.068 8  23776970.886        -873.732
   1716883.826 6   5592062.836 5  26249806.978        3448.274
 -10230470.293 8  -7975698.049 9  22995858.957        1342.759
 -13078680.047 7 -10192320.214 6  24571352.407       -1745.427
   -412099.183 8   -183809.813 9  23473125.724        2017.319
 93  5  8  6 43 30.0080000  0  8  1  3 22 21 26 23 28 17             0.008251950
  -1593137.282 5  -1253361.305 5  26713022.776       -2930.107
   5848908.867 7   4558476.150 6  24461866.242        3688.380
   5606825.393 5   4363730.638 5  26681548.963        2986.928
 -10636041.747 7  -8299174.720 8  23772009.961        -863.816
   1820499.786 6   5672802.491 5  26269524.220        3459.783
 -10190041.184 8  -7944194.860 9  23003552.330        1352.763
 -13130854.296 7 -10232975.472 6  24561423.890       -1732.482
   -351467.579 8   -136564.420 9  23484663.475        2025.063
 93  5  8  6 44  0.0080000  0  8  1  3 22 21 26 23 28 17             0.008267310
  -1681024.344 5  -1321844.712 5  26696298.525       -2929.056
   5959784.154 6   4644872.464 6  24482965.526        3703.052
   5696535.077 5   4433634.279 5  26698620.110        2993.469
 -10661800.688 7  -8319246.603 8  23767108.094        -853.627
   1924467.914 6   5753816.604 5  26289308.751        3471.015
 -10149305.168 8  -7912452.496 9  23011304.025        1362.892
 -13182625.393 7 -10273316.564 6  24551572.150       -1719.032
   -290593.234 8    -89129.856 9  23496247.647        2033.085
 93  5  8  6 44 30.0080000  0  8  1  3 22 21 26 23 28 17             0.008282650
  -1768879.655 5  -1390303.336 5  26679580.333       -2927.825
   6071097.363 6   4731610.026 6  24504147.169        3717.636
   5786421.997 5   4503675.973 5  26715725.223        2998.999
 -10687256.422 7  -8339082.202 8  23762263.898        -843.248
   2028754.082 6   5835078.568 5  26309153.522        3481.276
 -10108266.849 8  -7880474.585 9  23019113.549        1373.100
 -13233997.174 7 -10313346.517 7  24541796.349       -1705.718
   -229483.198 8    -41511.657 9  23507876.558        2040.896
 93  5  8  6 45  0.0080000  0  8  1  3 22 21 26 23 28 17             0.008297980
  -1856687.748 5  -1458725.217 5  26662870.853       -2926.344
   6182845.920 7   4818686.804 6  24525412.441        3731.789
   5876479.221 5   4573850.391 5  26732862.671        3004.556
 -10712396.111 7  -8358671.571 8  23757479.750        -833.011
   2133338.442 6   5916572.856 5  26329055.443        3490.775
 -10066918.661 8  -7848255.231 9  23026981.523        1383.183
 -13284964.702 7 -10353061.475 7  24532097.654       -1692.232
   -168141.620 8      6286.965 9  23519549.447        2048.248
 93  5  8  6 45 30.0080000  0  8  1  3 22 21 26 23 28 17             0.008313270
  -1944456.299 5  -1527116.291 5  26646169.609       -2924.946
   6295023.696 7   4906098.059 6  24546759.068        3746.322
   5966705.154 5   4644156.333 5  26750032.205        3009.857
 -10737224.965 7  -8378018.705 8  23752754.811        -822.590
   2238209.405 6   5998290.475 5  26349011.517        3500.466
 -10025262.861 8  -7815796.168 9  23034908.314        1393.750
 -13335518.956 7 -10392454.388 7  24522477.514       -1677.983
   -106579.811 8     54257.191 9  23531264.305        2055.982
 93  5  8  6 46  0.0080000  0  8  1  3 22 21 26 23 28 17             0.008328520
  -2032194.022 5  -1595483.346 5  26629473.662       -2923.835
   6407627.662 6   4993841.390 6  24568187.307        3760.500
   6057060.478 5   4714563.033 5  26767225.787        3014.010
 -10761761.407 7  -8397137.989 8  23748085.912        -813.049
   2343354.132 6   6080221.417 5  26369019.804        3509.373
  -9983297.039 8  -7783095.527 9  23042894.257        1404.115
 -13385648.568 7 -10431516.409 7  24512938.243       -1663.927
    -44780.635 8    102412.405 9  23543024.033        2064.070
 93  5  8  6 46 30.0080000  0  8  1  3 22 21 26 23 28 17             0.008343730
  -2119895.938 5  -1663822.439 5  26612784.809       -2922.582
   6520655.610 6   5081915.086 6  24589695.895        3774.683
   6147542.712 5   4785068.672 5  26784444.262        3018.548
 -10786012.406 7  -8416034.864 8  23743471.145        -803.301
   2448777.528 6   6162369.482 5  26389080.828        3519.272
  -9941018.077 8  -7750150.890 9  23050939.636        1414.834
 -13435360.861 7 -10470253.268 7  24503478.244       -1649.873
     17258.567 8    150754.619 9  23554829.571        2072.221
 93  5  8  6 47  0.0080000  0  8  1  3 22 21 26 23 28 17             0.008358930
  -2207559.181 5  -1732131.456 5  26596102.923       -2921.724
   6634103.590 6   5170316.102 6  24611284.392        3788.323
   6238163.196 5   4855682.000 5  26801690.212        3022.845
 -10809975.920 7  -8434707.715 8  23738911.084        -794.351
   2554508.455 5   6244757.235 5  26409201.032        3529.639
  -9898423.477 8  -7716960.291 9  23059045.036        1424.851
 -13484654.241 7 -10508663.673 7  24494098.040       -1636.245
     79545.060 8    199289.552 9  23566682.435        2080.382
 93  5  8  6 47 30.0080000  0  8  1  3 22 21 26 23 28 17             0.008374100
  -2295196.180 5  -1800420.004 5  26579426.193       -2920.609
   6747966.462 6   5259040.408 6  24632951.510        3802.370
   6328911.303 5   4926394.792 5  26818958.371        3027.031
 -10833669.525 7  -8453170.262 8  23734402.305        -785.117
   2660560.749 5   6327395.383 5  26429382.040        3540.686
  -9855528.522 8  -7683535.656 9  23067207.535        1434.837
 -13533535.226 7 -10546752.750 7  24484796.237       -1622.344
    142087.302 8    248023.750 9  23578583.946        2089.291
 93  5  8  6 48  0.0080000  0  8  1  3 22 21 26 23 28 17             0.008389270
  -2382788.899 5  -1868674.048 5  26562758.554       -2919.170
   6862252.629 6   5348094.555 6  24654699.726        3816.340
   6419799.588 5   4997216.804 5  26836254.679        3032.275
 -10857081.435 7  -8471413.286 8  23729947.218        -775.677
   2766955.283 5   6410300.170 5  26449628.321        3552.056
  -9812338.613 8  -7649881.187 9  23075426.404        1444.261
 -13582000.188 7 -10584517.643 7  24475573.773       -1608.885
    204902.608 8    296970.751 9  23590537.369        2098.049
 93  5  8  6 48 30.0080000  0  8  1  3 22 21 26 23 28 17             0.008404440
  -2470337.825 5  -1936893.989 5  26546098.726       -2917.775
   6976954.305 6   5437472.468 6  24676526.687        3829.916
   6510846.107 5   5068162.151 5  26853580.434        3037.367
 -10880214.873 7  -8489439.314 8  23725544.977        -766.701
   2873688.684 5   6493469.056 5  26469939.100        3563.053
  -9768874.152 8  -7616012.767 9  23083697.399        1453.006
 -13630060.321 7 -10621967.098 7  24466428.154       -1595.176
    267972.881 8    346116.416 9  23602539.161        2106.388
 93  5  8  6 49  0.0080000  0  8  1  3 22 21 26 23 28 17             0.008419620
  -2557855.268 5  -2005089.377 5  26529444.248       -2916.662
   7092062.646 6   5527167.270 6  24698431.233        3843.688
   6602042.537 5   5139224.298 5  26870934.721        3042.304
 -10903073.148 7  -8507250.923 8  23721195.050        -757.327
   2980742.753 5   6576887.788 5  26490310.771        3573.642
  -9725161.991 8  -7581951.346 9  23092015.722        1461.082
 -13677699.877 7 -10659088.822 7  24457362.560       -1580.842
    331294.674 8    395458.067 9  23614588.820        2114.853
 93  5  8  6 49 30.0080000  0  8  1  3 22 21 26 23 28 17             0.008434790
  -2645338.946 5  -2073258.478 5  26512796.589       -2915.599
   7207579.280 6   5617180.215 6  24720413.194        3857.081
   6693384.060 5   5210399.526 5  26888315.706        3047.036
 -10925655.725 7  -8524847.729 8  23716897.566        -748.260
   3088099.648 5   6660542.501 5  26510739.665        3583.288
  -9681214.190 8  -7547706.307 9  23100378.750        1468.727
 -13724913.591 7 -10695878.721 7  24448378.111       -1566.768
    394857.866 8    444987.823 9  23626684.388        2122.524
 93  5  8  6 50  0.0080000  0  8  1  3 22 21 26 23 28 17             0.008449960
  -2732784.600 5  -2141397.902 5  26496156.482       -2914.355
   7323501.891 6   5707509.521 6  24742472.370        3870.649
   6784873.823 5   5281690.232 5  26905726.025        3052.113
 -10947963.970 7  -8542230.761 8  23712652.434        -739.070
   3195735.022 5   6744414.224 5  26531222.515        3592.130
  -9637030.077 8  -7513277.133 9  23108786.779        1476.616
 -13771696.247 7 -10732332.730 7  24439475.573       -1552.198
    458653.019 8    494698.344 9  23638824.192        2130.257
 93  5  8  6 50 30.0080000  0  8  1  3 22 21 26 23 28 17             0.008465100
  -2820198.539 5  -2209512.672 5  26479522.179       -2913.167
   7439823.305 6   5798149.579 5  24764607.522        3884.081
   6876507.474 5   5353093.072 5  26923162.526        3056.953
 -10969996.713 7  -8559399.103 8  23708459.775        -729.562
   3303629.313 5   6828487.648 5  26551753.884        3601.040
  -9592612.741 8  -7478666.219 9  23117239.119        1484.826
 -13818041.739 7 -10768446.100 7  24430656.418       -1537.299
    522673.058 8    544584.083 9  23651006.809        2137.973
 93  5  8  6 51  0.0080000  0  8  1  3 22 21 26 23 28 17             0.008480220
  -2907579.353 5  -2277601.588 5  26462894.038       -2912.085
   7556545.293 6   5889101.766 5  24786819.310        3897.299
   6968275.195 5   5424600.408 5  26940624.438        3060.898
 -10991741.428 7  -8576343.008 8  23704321.937        -720.114
   3411787.280 5   6912766.556 5  26572335.525        3609.810
  -9547943.897 8  -7443859.335 9  23125739.205        1493.375
 -13863956.282 7 -10804223.643 7  24421919.108       -1523.603
    586920.066 8    594646.686 9  23663232.683        2145.281
 93  5  8  6 51 30.0080000  0  8  1  3 22 21 26 23 28 17             0.008495310
  -2994917.255 5  -2345657.093 5  26446273.716       -2910.474
   7673662.377 6   5980361.814 5  24809106.074        3910.382
   7060161.286 5   5496199.925 5  26958110.147        3064.820
 -11013210.229 7  -8593071.904 8  23700236.497        -711.025
   3520216.141 6   6997256.570 5  26592969.140        3618.965
  -9503003.443 8  -7408840.788 9  23134291.084        1502.729
 -13909466.804 7 -10839686.388 7  24413258.814       -1510.246
    651385.569 7    644879.522 9  23675499.965        2152.573
 93  5  8  6 52  0.0080000  0  8  1  3 22 21 26 23 28 17             0.008510390
  -3082203.470 5  -2413672.298 5  26429664.144       -2908.592
   7791175.100 6   6071930.160 5  24831467.832        3923.641
   7152166.633 5   5567892.350 5  26975618.600        3068.804
 -11034401.200 7  -8609584.347 8  23696204.029        -701.530
   3628931.118 6   7081969.509 5  26613657.217        3628.892
  -9457778.422 8  -7373600.536 9  23142897.035        1512.341
 -13954573.076 7 -10874834.136 7  24404675.345       -1496.653
    716076.883 7    695288.329 9  23687810.480        2160.194
 93  5  8  6 52 30.0080000  0  8  1  3 22 21 26 23 28 17             0.008525450
  -3169432.376 5  -2481642.858 5  26413065.221       -2906.607
   7909083.974 6   6163807.209 5  24853905.130        3936.744
   7244281.427 5   5639670.193 5  26993147.510        3072.158
 -11055306.035 7  -8625873.818 8  23692225.775        -692.235
   3737956.027 6   7166923.937 5  26634404.069        3639.325
  -9412255.290 8  -7338127.941 9  23151559.847        1522.625
 -13999273.388 7 -10909665.541 7  24396169.033       -1483.295
    780994.708 7    745873.659 9  23700163.867        2167.624
 93  5  8  6 53  0.0080000  0  8  1  3 22 21 26 23 28 17             0.008540500
  -3256593.559 5  -2549560.641 5  26396479.169       -2904.277
   8027388.461 6   6255992.498 5  24876417.654        3949.889
   7336494.873 5   5711524.873 5  27010694.601        3075.409
 -11075933.122 7  -8641946.825 8  23688300.730        -683.114
   3847292.585 6   7252121.237 5  26655210.062        3649.706
  -9366419.766 8  -7302411.970 9  23160282.141        1532.842
 -14043566.163 7 -10944179.390 7  24387740.510       -1469.440
    846133.886 7    796631.451 9  23712559.578        2175.027
 93  5  8  6 53 30.0080000  0  8  1  3 22 21 26 23 28 17             0.008555540
  -3343681.290 5  -2617421.166 5  26379906.899       -2901.963
   8146089.705 6   6348486.958 5  24899005.796        3963.142
   7428809.719 5   5783458.567 5  27028261.018        3078.879
 -11096289.001 7  -8657808.525 8  23684427.113        -673.999
   3956940.560 6   7337561.179 5  26676075.361        3659.805
  -9320280.190 8  -7266459.036 9  23169062.081        1542.856
 -14087422.720 7 -10978353.330 7  24379394.769       -1454.387
    911504.537 7    847569.619 9  23724998.956        2183.033
 93  5  8  6 54  0.0080000  0  8  1  3 22 21 26 23 28 17             0.008570560
  -3430704.527 5  -2685231.521 5  26363346.625       -2899.509
   8265183.971 6   6441287.659 5  24921668.836        3976.311
   7521227.823 5   5855472.659 5  27045847.640        3082.266
 -11116369.575 7  -8673455.717 8  23680605.858        -664.543
   4066877.066 6   7423225.951 5  26696995.428        3669.209
  -9273852.338 8  -7230281.504 9  23177897.017        1552.433
 -14130822.761 7 -11012171.542 7  24371136.045       -1438.806
    977119.601 7    898698.236 9  23737485.230        2191.315
 93  5  8  6 54 30.0080000  0  8  1  3 22 21 26 23 28 17             0.008585570
  -3517659.271 5  -2752988.446 5  26346800.070       -2897.521
   8384669.078 6   6534392.944 5  24944405.760        3988.956
   7613746.099 5   5927564.844 5  27063453.177        3085.458
 -11136166.779 7  -8688882.082 8  23676838.574        -655.518
   4177080.584 6   7509098.821 5  26717966.467        3677.443
  -9227140.764 8  -7193882.872 9  23186786.092        1561.446
 -14173750.934 7 -11045622.058 7  24362966.969       -1423.272
   1042976.783 8    950015.512 9  23750017.434        2199.076
 93  5  8  6 55  0.0080000  0  8  1  3 22 21 26 23 28 17             0.008600540
  -3604554.877 5  -2820699.302 5  26330264.930       -2895.504
   8504527.619 6   6627789.190 5  24967213.958        4001.423
   7706353.939 5   5999726.852 5  27081076.704        3088.202
 -11155700.791 7  -8704103.362 8  23673121.260        -646.787
   4287513.487 6   7595150.393 5  26738981.221        3684.897
  -9180182.689 8  -7157292.170 9  23195722.026        1569.002
 -14216220.187 7 -11078714.971 7  24354885.323       -1408.004
   1109065.988 7   1001513.584 9  23762593.808        2207.004
 93  5  8  6 55 30.0080000  0  7  1  3 21 26 23 28 17                0.008615430
  -3691382.766 5  -2888357.360 5  26313742.014       -2893.051
   8624765.194 6   6721480.800 5  24990094.576        4014.132
 -11174966.669 7  -8719115.711 8  23669455.089        -637.600
   4398173.366 6   7681378.845 5  26760039.289        3692.205
  -9132993.164 8  -7120521.103 9  23204702.019        1576.912
 -14258223.971 7 -11111445.188 7  24346892.266       -1392.495
   1175407.468 7   1053208.244 9  23775218.191        2215.602
 93  5  8  6 56  0.0080000  0  7  1  3 21 26 23 28 17                0.008630340
  -3778128.820 5  -2955951.684 5  26297234.573       -2889.987
   8745387.289 6   6815472.035 5  25013048.496        4027.127
 -11193947.430 7  -8733905.903 8  23665842.949        -627.872
   4509055.651 6   7767780.586 5  26781139.372        3699.911
  -9085565.049 8  -7083564.142 9  23213726.992        1585.053
 -14299769.315 7 -11143818.194 7  24338986.601       -1377.195
   1241998.692 7   1105097.517 9  23787890.247        2223.602
 93  5  8  6 56 30.0080000  0  7  1  3 21 26 23 28 17                0.008645240
  -3864772.143 5  -3023465.965 5  26280746.508       -2886.237
   8866399.856 6   6909767.516 5  25036076.214        4040.322
 -11212635.101 7  -8748467.700 8  23662287.159        -617.919
   4620180.679 6   7854371.484 5  26802286.173        3708.557
  -9037888.108 8  -7046413.291 9  23222799.760        1593.542
 -14340855.852 7 -11175833.668 7  24331168.222       -1361.837
   1308830.176 7   1157173.980 9  23800607.936        2232.151
 93  5  8  6 57  0.0080000  0  7  1  3 21 26 23 28 17                0.008660120
  -3951312.888 6  -3090900.312 5  26264277.611       -2883.121
   8987806.908 6   7004370.443 5  25059179.508        4053.261
 -11231029.910 7  -8762801.297 8  23658786.654        -608.335
   4731564.884 6   7941164.331 5  26823482.080        3717.004
  -8989960.977 8  -7009067.464 9  23231919.996        1601.761
 -14381485.607 7 -11207493.210 7  24323436.584       -1346.615
   1375923.567 7   1209454.554 9  23813375.064        2240.729
 93  5  8  6 57 30.0080000  0  7  1  3 21 26 23 28 17                0.008674990
  -4037765.179 6  -3158265.704 5  26247825.658       -2880.139
   9109597.648 6   7099272.272 5  25082355.655        4066.074
 -11249138.588 7  -8776911.931 8  23655340.628        -598.592
   4843201.211 6   8028153.663 5  26844725.865        3725.606
  -8941771.082 8  -6971516.892 9  23241090.077        1611.098
 -14421650.281 7 -11238790.356 7  24315793.605       -1330.928
   1443267.770 7   1261930.550 9  23826190.280        2249.049
 93  5  8  6 58  0.0080000  0  7  1  3 21 26 23 28 17                0.008689840
  -4124126.967 6  -3225560.633 5  26231391.692       -2877.469
   9231770.802 6   7194472.120 5  25105604.223        4078.549
 -11266954.204 7  -8790794.224 8  23651950.336        -589.150
   4955106.952 6   8115352.907 5  26866020.487        3734.741
  -8893306.249 8  -6933752.100 9  23250312.753        1619.911
 -14461344.207 7 -11269720.703 7  24308240.335       -1315.157
   1510859.494 7   1314599.418 9  23839052.528        2257.149
 93  5  8  6 58 30.0080000  0  7  1  3 21 26 23 28 17                0.008704690
  -4210401.265 6  -3292787.323 5  26214974.902       -2874.326
   9354329.935 6   7289972.731 5  25128926.424        4091.708
 -11284480.734 7  -8804451.240 8  23648615.205        -579.385
   5067297.251 5   8202773.881 5  26887369.539        3744.512
  -8844566.052 8  -6895772.708 9  23259587.634        1629.331
 -14500541.792 7 -11300264.256 7  24300781.329       -1298.036
   1578716.894 7   1367475.329 8  23851965.359        2266.684
 93  5  8  6 59  0.0080000  0  7  1  3 21 26 23 28 17                0.008719530
  -4296586.743 6  -3359944.824 5  26198573.857       -2871.244
   9477275.740 6   7385774.647 5  25152322.441        4104.619
 -11301722.595 7  -8817886.428 8  23645334.225        -569.808
   5179769.067 6   8290414.225 5  26908772.242        3753.800
  -8795548.139 8  -6857576.935 9  23268915.384        1638.733
 -14539230.846 7 -11330411.538 7  24293419.068       -1281.006
   1646848.535 7   1420564.923 8  23864930.606        2275.554
 93  5  8  6 59 30.0080000  0  7  1  3 21 26 23 28 17                0.008734380
  -4382676.786 6  -3427027.973 5  26182191.515       -2868.156
   9600609.547 6   7481878.901 5  25175792.154        4117.384
 -11318669.451 7  -8831091.772 8  23642109.117        -559.891
   5292526.948 5   8378277.483 5  26930229.279        3763.405
  -8746244.971 8  -6819158.889 9  23278297.520        1647.976
 -14577410.696 7 -11360162.096 7  24286153.606       -1264.411
   1715246.326 7   1473861.888 8  23877946.389        2284.318
 93  5  8  7  0  0.0080000  0  7  1  3 21 26 23 28 17                0.008749230
  -4468664.721 6  -3494031.549 5  26165828.645       -2864.402
   9724329.344 6   7578283.908 5  25199335.143        4130.330
 -11335313.306 7  -8844060.982 8  23638941.721        -549.673
   5405571.533 5   8466364.128 5  26951740.802        3772.653
  -8696674.013 8  -6780532.177 9  23287730.608        1656.851
 -14615088.870 7 -11389521.711 7  24278983.469       -1247.412
   1783909.100 7   1527365.343 8  23891012.296        2293.188
 93  5  8  7  0 30.0080000  0  7  1  3 21 26 23 28 17                0.008764070
  -4554531.491 6  -3560940.684 5  26149488.627       -2859.984
   9848435.297 6   7674989.813 5  25222951.813        4143.168
 -11351647.937 7  -8856789.252 8  23635833.174        -539.268
   5518877.550 5   8554654.483 5  26973302.463        3781.184
  -8646830.338 8  -6741692.951 9  23297215.683        1666.042
 -14652263.178 7 -11418488.699 7  24271909.045       -1231.006
   1852837.085 7   1581075.464 8  23904128.857        2301.968
 93  5  8  7  1  0.0080000  0  7  1  3 21 26 23 28 17                0.008778920
  -4640257.952 6  -3627740.499 5  26133175.518       -2855.046
   9972931.567 6   7771999.883 5  25246642.643        4156.289
 -11367658.620 7  -8869265.091 8  23632786.584        -528.040
   5632451.603 5   8643153.746 5  26994914.811        3790.360
  -8596710.300 8  -6702638.374 9  23306753.221        1675.253
 -14688949.326 7 -11447075.299 7  24264927.861       -1214.696
   1922025.519 7   1634988.536 8  23917295.040        2310.577
 93  5  8  7  1 30.0080000  0  7  1  3 21 26 23 28 17                0.008793780
  -4725822.274 6  -3694414.017 5  26116892.881       -2849.181
  10097823.182 6   7869318.034 5  25270408.939        4169.486
 -11383326.977 7  -8881474.180 8  23629805.067        -516.699
   5746301.581 5   8731867.991 5  27016580.001        3799.301
  -8546316.135 8  -6663370.196 9  23316343.010        1684.255
 -14725137.388 7 -11475273.795 7  24258041.547       -1197.812
   1991477.325 7   1689106.834 8  23930511.172        2319.462
 93  5  8  7  2  0.0080000  0  7  1  3 21 26 23 28 17                0.008808660
  -4811204.523 6  -3760945.612 5  26100645.151       -2842.902
  10223110.122 6   7966944.183 5  25294249.846        4182.756
 -11398656.681 7  -8893419.407 8  23626887.976        -505.394
   5860409.208 5   8820782.970 5  27038293.500        3807.857
  -8495651.470 8  -6623891.244 9  23325984.029        1693.433
 -14760812.332 7 -11503072.465 7  24251252.944       -1180.511
   2061198.397 7   1743434.923 8  23943778.457        2328.639
 93  5  8  7  2 30.0080000  0  7  1  3 21 26 23 28 17                0.008823570
  -4896397.197 5  -3827329.503 5  26084434.348       -2836.975
  10348797.680 6   8064882.510 5  25318167.416        4195.996
 -11413653.609 7  -8905105.290 9  23624034.121        -494.583
   5974783.175 5   8909905.548 5  27060058.259        3817.066
  -8444706.888 8  -6584194.164 9  23335678.386        1702.571
 -14795967.205 7 -11530465.855 7  24244563.408       -1163.400
   2131198.412 7   1797980.403 8  23957099.074        2337.776
 93  5  8  7  3  0.0080000  0  8  1  3 21 26 23 31 28 17             0.008838560
  -4981413.707 6  -3893576.136 5  26068255.812       -2830.768
  10474880.724 6   8163129.023 5  25342160.119        4209.421
 -11428324.050 7  -8916536.795 9  23621242.364        -483.278
   6089437.386 5   8999246.458 5  27081876.235        3826.553
  -8393490.878 8  -6544285.587 9  23345424.709        1712.154
  -1416022.52615  -1149869.79115  27264755.072       -2482.737
 -14830598.886 7 -11557451.575 7  24237973.001       -1145.188
   2201473.666 7   1852740.328 8  23970472.099        2347.378
 93  5  8  7  3 30.0080000  0  8  1  3 21 26 23 31 28 17             0.008853490
  -5066247.548 6  -3959680.396 5  26052112.400       -2824.882
  10601361.014 6   8261685.085 5  25366228.546        4222.611
 -11442665.046 7  -8927711.556 9  23618513.463        -472.605
   6204357.022 5   9088794.208 5  27103744.558        3835.063
  -8341979.068 8  -6504146.509 9  23355227.043        1722.233
  -1490391.297 6  -1207819.408 5  27250603.169       -2474.860
 -14864682.300 7 -11584010.100 7  24231487.072       -1126.765
   2272038.059 7   1907725.559 8  23983899.941        2357.224
 93  5  8  7  4  0.0080000  0  8  1  3 21 26 23 31 28 17             0.008868440
  -5150903.260 6  -4025645.866 5  26036002.941       -2819.407
  10728242.829 6   8360554.027 5  25390373.339        4235.607
 -11456684.263 7  -8938635.604 9  23615845.822        -462.308
   6319548.578 5   9178553.823 5  27125664.504        3844.167
  -8290157.495 8  -6463766.064 9  23365088.386        1732.268
  -1564515.708 5  -1265578.675 5  27236498.036       -2466.991
 -14898211.007 7 -11610136.345 7  24225106.619       -1108.804
   2342903.083 7   1962945.061 8  23997385.097        2366.828
 93  5  8  7  4 30.0080000  0  8  1  3 21 26 23 31 28 17             0.008883390
  -5235400.134 6  -4091487.595 5  26019923.083       -2813.788
  10855521.940 6   8459732.522 5  25414594.227        4249.285
 -11470387.255 7  -8949313.236 9  23613238.185        -451.266
   6435024.616 5   9268535.123 5  27147639.168        3854.076
  -8238026.776 8  -6423144.733 9  23375008.378        1743.069
  -1638395.014 5  -1323146.920 5  27222439.038       -2458.425
 -14931195.253 7 -11635838.360 7  24218829.974       -1090.320
   2414057.726 7   2018390.230 8  24010925.560        2376.824
 93  5  8  7  5  0.0080000  0  8  1  3 21 26 23 31 28 17             0.008898370
  -5319723.276 6  -4157193.937 5  26003877.518       -2807.987
  10983211.326 6   8559230.724 5  25438892.727        4262.852
 -11483754.247 7  -8959729.050 9  23610694.377        -440.226
   6550786.302 5   9358739.024 5  27169667.961        3863.057
  -8185566.721 8  -6382266.771 9  23384991.197        1754.059
  -1712011.745 5  -1380510.504 5  27208430.517       -2449.651
 -14963623.336 7 -11661107.000 7  24212659.114       -1071.770
   2485519.812 7   2074074.960 8  24024524.127        2387.014
 93  5  8  7  5 30.0080000  0  8  1  3 21 26 23 31 28 17             0.008913350
  -5403877.078 6  -4222768.337 5  25987863.604       -2802.398
  11111303.316 6   8659042.658 5  25463267.709        4276.395
 -11496807.679 7  -8969900.534 9  23608210.445        -430.009
   6666810.448 5   9449147.397 5  27191746.807        3871.981
  -8132788.111 8  -6341140.587 9  23395034.535        1764.305
  -1785368.048 5  -1437671.233 5  27194471.312       -2440.677
 -14995496.400 7 -11685943.154 7  24206593.913       -1053.101
   2557287.719 7   2129997.993 8  24038180.875        2397.480
 93  5  8  7  6  0.0080000  0  8  1  3 21 26 23 31 28 17             0.008928360
  -5487871.162 6  -4288218.278 5  25971880.069       -2797.209
  11239797.980 6   8759168.344 5  25487719.563        4289.636
 -11509553.886 7  -8979832.625 9  23605785.026        -419.603
   6783099.455 5   9539762.181 5  27213875.804        3880.515
  -8079720.930 8  -6299789.524 9  23405133.074        1773.542
  -1858458.871 5  -1494625.065 5  27180562.366       -2432.006
 -15026813.143 7 -11710345.806 7  24200634.590       -1034.801
   2629363.087 7   2186160.609 8  24051896.548        2407.609
 93  5  8  7  6 30.0080000  0  8  1  3 21 26 23 31 28 17             0.008943370
  -5571701.145 6  -4353540.362 5  25955927.604       -2791.262
  11368687.204 6   8859601.480 5  25512246.089        4302.751
 -11521980.977 7  -8989516.077 9  23603420.110        -408.899
   6899636.258 5   9630570.081 5  27236052.350        3888.741
  -8026379.731 8  -6258224.982 9  23415283.598        1782.623
  -1931288.201 5  -1551375.176 5  27166703.574       -2423.191
 -15057580.956 7 -11734320.749 7  24194779.703       -1016.235
   2701746.536 7   2242563.270 8  24065670.581        2418.084
 93  5  8  7  7  0.0080000  0  8  1  3 21 26 23 31 28 17             0.008958410
  -5655342.958 6  -4418715.809 5  25940011.172       -2784.914
  11497972.995 6   8960343.623 5  25536848.856        4315.884
 -11534083.419 7  -8998946.515 9  23601117.206        -397.978
   7016424.009 5   9721573.486 5  27258276.362        3897.088
  -7972766.793 8  -6216448.656 9  23425485.674        1791.329
  -2003848.649 5  -1607915.702 5  27152895.488       -2414.258
 -15087775.935 7 -11757849.281 7  24189033.961        -996.727
   2774450.851 7   2299215.979 8  24079506.084        2428.807
 93  5  8  7  7 30.0080000  0  8  1  3 21 26 23 31 28 17             0.008973470
  -5738794.065 6  -4483742.645 5  25924131.067       -2778.529
  11627647.552 6   9061388.726 5  25561525.003        4328.856
 -11545855.511 7  -9008119.546 9  23598877.036        -386.530
   7133471.688 5   9812779.438 5  27280549.831        3906.228
  -7918903.156 8  -6174477.007 9  23435735.629        1799.661
  -2076142.813 5  -1664248.813 5  27139138.553       -2405.305
 -15117388.114 7 -11780923.696 7  24183398.891        -977.439
   2847472.949 7   2356116.319 8  24093401.974        2439.379
 93  5  8  7  8  0.0080000  0  8  1  3 21 26 23 31 28 17             0.008988540
  -5822064.806 6  -4548628.957 5  25908285.588       -2772.640
  11757691.614 6   9162721.730 5  25586271.462        4340.666
 -11557283.982 7  -9017024.852 9  23596702.123        -375.224
   7250784.809 5   9904192.232 5  27302873.921        3914.835
  -7864798.389 8  -6132317.442 9  23446031.250        1807.634
  -2148185.757 5  -1720386.084 5  27125429.273       -2397.488
 -15146441.773 7 -11803562.926 7  24177870.228        -959.469
   2920792.272 7   2413248.243 8  24107354.147        2448.667
 93  5  8  7  8 30.0090000  0  8  1  3 21 26 23 31 28 17             0.009003630
  -5905145.980 6  -4613367.545 5  25892475.984       -2766.226
  11888104.504 6   9264342.159 5  25611087.972        4352.735
 -11568365.386 7  -9025659.687 9  23594593.402        -363.984
   7368369.365 5   9995816.553 5  27325249.751        3923.597
  -7810431.531 8  -6089953.655 9  23456377.057        1816.407
  -2219979.002 5  -1776328.891 5  27111767.797       -2388.896
 -15174946.907 7 -11825774.703 7  24172446.013        -940.972
   2994399.187 7   2470604.300 8  24121361.130        2457.929
 93  5  8  7  9  0.0090000  0  8  1  3 21 26 23 31 28 17             0.009018720
  -5988049.151 6  -4677967.416 5  25876699.933       -2760.547
  12018865.908 6   9366234.134 5  25635970.478        4364.605
 -11579119.447 7  -9034039.458 9  23592547.098        -352.799
   7486196.370 5  10087629.777 5  27347671.183        3931.574
  -7755808.245 8  -6047390.050 9  23466771.592        1825.203
  -2291525.072 5  -1832078.991 5  27098152.130       -2380.652
 -15202901.152 7 -11847557.245 8  24167126.376        -922.711
   3068271.329 7   2528166.996 8  24135418.207        2466.997
 93  5  8  7  9 30.0090000  0  8  1  3 21 26 23 31 28 17             0.009033810
  -6070777.567 6  -4742431.103 5  25860956.862       -2754.611
  12149982.617 6   9468402.978 5  25660921.646        4376.354
 -11589540.773 7  -9042159.956 9  23590563.983        -341.972
   7604262.444 5  10179629.309 5  27370138.470        3939.269
  -7700916.086 8  -6004616.939 9  23477217.161        1834.353
  -2362818.950 6  -1887632.631 5  27084585.469       -2372.285
 -15230315.929 7 -11868919.403 8  24161909.478        -904.882
   3142411.939 7   2585938.893 8  24149526.759        2475.658
 93  5  8  7 10  0.0090000  0  8  1  3 21 26 23 31 28 17             0.009048900
  -6153325.870 6  -4806754.482 5  25845248.384       -2748.762
  12281448.022 6   9570843.527 5  25685938.964        4387.668
 -11599651.895 7  -9050038.726 9  23588639.563        -332.361
   7722540.265 5  10271793.867 5  27392646.174        3945.553
  -7645753.818 8  -5961633.350 9  23487714.334        1843.001
  -2433862.092 5  -1942990.862 5  27071066.373       -2363.979
 -15257198.251 7 -11889866.651 8  24156793.929        -887.309
   3216809.073 7   2643910.680 7  24163683.966        2484.165
 93  5  8  7 10 30.0090000  0  8  1  3 21 26 23 31 28 17             0.009063980
  -6235692.772 6  -4870936.476 5  25829574.168       -2742.378
  12413261.231 6   9673555.124 5  25711022.301        4399.526
 -11609478.581 7  -9057695.878 9  23586769.730        -322.829
   7841001.409 5  10364101.249 5  27415188.513        3951.950
  -7590330.055 8  -5918446.011 9  23498261.053        1851.890
  -2504650.004 5  -1998150.287 5  27057596.377       -2355.101
 -15283536.828 7 -11910390.229 8  24151781.819        -868.497
   3291474.134 7   2702091.248 7  24177892.104        2493.453
 93  5  8  7 11  0.0090000  0  8  1  3 21 26 23 31 28 17             0.009079060
  -6317872.154 6  -4934972.343 5  25813936.020       -2736.117
  12545421.212 6   9776536.875 5  25736171.107        4410.901
 -11619033.365 7  -9065141.117 9  23584951.477        -314.083
   7959651.585 5  10456555.894 5  27437766.856        3958.269
  -7534650.245 8  -5875059.141 9  23508856.456        1860.059
  -2575179.037 5  -2053107.865 5  27044174.939       -2346.650
 -15309318.968 7 -11930480.196 8  24146875.705        -850.256
   3366413.789 7   2760485.788 7  24192152.741        2502.578
 93  5  8  7 11 30.0090000  0  8  1  3 21 26 23 31 28 17             0.009094140
  -6399865.895 6  -4998863.566 5  25798333.168       -2730.392
  12677912.964 6   9879777.191 5  25761383.554        4421.388
 -11628333.693 7  -9072388.123 9  23583181.664        -306.137
   8078496.048 5  10549161.982 5  27460382.230        3964.254
  -7478737.113 8  -5831490.480 9  23519496.363        1867.218
  -2645459.253 6  -2107871.695 5  27030801.215       -2338.795
 -15334553.015 7 -11950143.107 8  24142073.949        -832.211
   3441617.760 7   2819086.264 7  24206463.893        2510.836
 93  5  8  7 12  0.0090000  0  8  1  3 21 26 23 31 28 17             0.009109210
  -6481681.696 6  -5062616.185 5  25782764.522       -2724.719
  12810730.057 6   9983271.006 5  25786658.066        4432.215
 -11637380.349 7  -9079437.430 9  23581460.024        -297.547
   8197526.662 5  10641913.103 5  27483032.802        3970.654
  -7422598.095 8  -5787745.782 9  23530179.506        1874.784
  -2715491.908 5  -2162442.547 5  27017473.732       -2330.604
 -15359234.565 7 -11969375.483 8  24137377.102        -813.813
   3517085.962 7   2877892.664 7  24220824.885        2519.742
 93  5  8  7 12 30.0090000  0  8  1  3 21 26 23 31 28 17             0.009124270
  -6563342.490 6  -5126247.962 6  25767224.951       -2719.285
  12943855.400 6  10087005.024 5  25811991.141        4442.507
 -11646172.952 7  -9086288.789 9  23579786.953        -288.509
   8316743.578 5  10734809.364 5  27505719.567        3977.193
  -7366242.196 8  -5743832.110 9  23540903.671        1882.242
  -2785288.677 5  -2216829.610 5  27004191.996       -2322.575
 -15383373.204 7 -11988184.819 8  24132783.562        -795.435
   3592798.083 7   2936889.103 7  24235232.278        2527.579
 93  5  8  7 13  0.0090000  0  8  1  3 21 26 23 31 28 17             0.009139320
  -6644832.150 6  -5189746.408 6  25751718.017       -2713.525
  13077293.445 6  10190982.711 5  25837383.371        4452.911
 -11654680.873 7  -9092918.336 9  23578167.733        -278.666
   8436160.386 5  10827861.408 5  27528443.568        3983.797
  -7309662.720 8  -5699744.192 9  23551670.507        1889.534
  -2854840.637 5  -2271025.863 5  26990956.567       -2314.377
 -15406960.700 7 -12006564.684 8  24128295.138        -777.185
   3668746.594 7   2996069.767 7  24249684.513        2535.568
 93  5  8  7 13 30.0090000  0  8  1  3 21 26 23 31 28 17             0.009154350
  -6726160.732 6  -5253119.310 5  25736242.102       -2708.217
  13211029.755 6  10295192.786 5  25862832.326        4462.755
 -11662890.638 7  -9099315.546 9  23576605.685        -268.473
   8555752.964 5  10921050.458 5  27551201.030        3989.183
  -7252876.094 8  -5655494.878 9  23562476.528        1896.454
  -2924156.717 5  -2325038.374 5  26977766.111       -2306.467
 -15430015.578 7 -12024529.528 8  24123908.066        -759.647
   3744914.424 7   3055421.309 7  24264179.117        2542.542
 93  5  8  7 14  0.0090000  0  8  1  3 21 26 23 31 28 17             0.009169350
  -6807320.392 6  -5316360.601 5  25720797.333       -2702.402
  13345067.989 6  10399638.122 5  25888338.988        4472.834
 -11670786.967 7  -9105468.506 9  23575103.346        -258.204
   8675518.871 5  11014374.503 5  27573991.634        3995.300
  -7195865.431 8  -5611070.988 9  23573324.997        1904.216
  -2993228.709 5  -2378860.656 5  26964621.931       -2298.332
 -15452542.140 7 -12042082.687 8  24119621.602        -742.057
   3821307.022 7   3114947.993 7  24278716.123        2550.179
 93  5  8  7 14 30.0090000  0  8  1  3 21 26 23 31 28 17             0.009184340
  -6888302.464 6  -5379463.522 5  25705386.882       -2696.493
  13479400.931 6  10504313.154 5  25913901.848        4482.305
 -11678384.773 7  -9111388.857 9  23573657.657        -248.553
   8795463.896 5  11107838.205 5  27596816.062        4000.864
  -7138629.025 8  -5566471.204 9  23584216.796        1911.367
  -3062058.359 6  -2432494.083 5  26951524.120       -2290.379
 -15474543.605 7 -12059226.698 8  24115434.903        -724.884
   3897923.746 7   3174649.333 7  24293296.324        2557.536
 93  5  8  7 15  0.0090000  0  8  1  3 21 26 23 31 28 17             0.009199310
  -6969103.826 6  -5442425.640 5  25690010.666       -2690.371
  13614026.931 6  10609216.473 5  25939519.897        4492.385
 -11685696.654 7  -9117086.423 9  23572266.238        -239.122
   8915585.873 5  11201439.703 5  27619674.419        4007.184
  -7081175.388 8  -5521702.122 9  23595149.848        1918.842
  -3130641.988 5  -2485935.863 5  26938473.281       -2281.877
 -15496031.618 7 -12075970.584 8  24111345.624        -707.739
   3974780.709 7   3234537.852 7  24307921.224        2566.271
 93  5  8  7 15 30.0090000  0  8  1  3 21 26 23 31 28 17             0.009214260
  -7049725.386 6  -5505247.601 5  25674669.199       -2684.222
  13748948.894 6  10714350.467 5  25965194.777        4502.270
 -11692735.515 7  -9122571.220 9  23570926.667        -230.065
   9035895.429 5  11295187.469 5  27642568.668        4013.464
  -7023499.185 8  -5476759.632 9  23606125.089        1926.410
  -3198972.348 5  -2539180.240 5  26925470.501       -2273.255
 -15517009.141 7 -12092316.723 8  24107353.617        -690.498
   4051897.656 7   3294628.974 7  24322595.848        2575.144
 93  5  8  7 16  0.0090000  0  8  1  3 21 26 23 31 28 17             0.009229200
  -7130167.243 6  -5567929.584 5  25659361.026       -2678.630
  13884161.294 6  10819710.726 5  25990924.946        4511.496
 -11699521.037 7  -9127858.630 9  23569635.263        -222.402
   9156383.897 5  11389074.611 5  27665496.989        4018.947
  -6965603.793 8  -5431646.338 9  23617142.272        1933.104
  -3267049.124 5  -2592227.000 5  26912515.525       -2265.272
 -15537472.899 7 -12108262.513 8  24103459.612        -673.734
   4129281.922 7   3354928.391 7  24337321.752        2583.605
 93  5  8  7 16 30.0090000  0  8  1  3 21 26 23 31 28 17             0.009244120
  -7210430.301 6  -5630472.207 5  25644087.658       -2672.265
  14019653.050 6  10925288.714 5  26016708.770        4521.127
 -11706064.619 8  -9132957.520 9  23568389.952        -213.649
   9277028.124 5  11483083.117 5  27688454.916        4024.165
  -6907514.088 8  -5386381.632 9  23628196.321        1939.494
  -3334878.575 5  -2645081.094 5  26899608.307       -2256.545
 -15557429.703 7 -12123813.251 8  24099661.973        -656.650
   4206919.000 7   3415424.811 7  24352095.162        2592.351
 93  5  8  7 17  0.0090000  0  7  1  3 21 23 31 28 17                0.009258970
  -7290513.661 6  -5692874.822 6  25628848.298       -2666.339
  14155424.551 6  11031084.670 5  26042545.259        4530.224
 -11712350.896 7  -9137855.901 9  23567193.963        -205.309
  -6849245.729 8  -5340977.714 9  23639284.523        1945.298
  -3402455.240 5  -2697738.197 5  26886748.698       -2248.319
 -15576880.455 7 -12138969.680 8  24095960.523        -639.685
   4284810.092 7   3476119.147 7  24366918.294        2600.480
 93  5  8  7 17 30.0090000  0  7  1  3 21 23 31 28 17                0.009273840
  -7370398.211 6  -5755122.516 6  25613646.696       -2659.359
  14291474.588 6  11137097.659 5  26068434.718        4539.504
 -11718373.714 8  -9142548.987 9  23566047.705        -196.223
  -6790792.723 8  -5295429.921 9  23650408.024        1951.560
  -3469775.001 5  -2750195.098 5  26873937.928       -2239.723
 -15595799.703 7 -12153711.955 8  24092360.336        -621.539
   4362939.059 7   3536998.866 7  24381785.671        2608.149
 93  5  8  7 18  0.0090000  0  7  1  3 21 23 31 28 17                0.009288710
  -7450063.422 6  -5817199.277 6  25598486.568       -2651.918
  14427809.988 6  11243333.002 5  26094378.536        4549.034
 -11724123.622 8  -9147029.417 9  23564953.481        -187.305
  -6732144.504 8  -5249730.009 9  23661568.278        1958.096
  -3536826.183 5  -2802442.745 5  26861178.502       -2230.551
 -15614161.802 7 -12168020.076 8  24088866.105        -602.750
   4441313.338 7   3598069.704 7  24396700.038        2616.525
 93  5  8  7 18 30.0090000  0  7  1  3 21 23 31 28 17                0.009303560
  -7529510.685 6  -5879106.235 6  25583368.641       -2644.599
  14564424.844 6  11349786.109 5  26120375.502        4558.349
 -11729608.173 8  -9151303.081 9  23563909.795        -178.371
  -6673310.707 8  -5203885.498 9  23672763.777        1964.273
  -3603609.622 6  -2854481.754 5  26848470.386       -2221.486
 -15631958.836 7 -12181887.907 8  24085479.401        -583.564
   4519931.773 7   3659330.804 7  24411660.252        2624.877
 93  5  8  7 19  0.0090000  0  7  1  3 21 23 31 28 17                0.009318400
  -7608736.298 6  -5940840.468 6  25568292.739       -2636.925
  14701320.925 6  11456458.369 5  26146425.809        4567.894
 -11734825.886 8  -9155368.815 9  23562916.824        -169.352
  -6614275.312 8  -5157883.883 9  23683997.899        1971.720
  -3670118.203 5  -2906306.572 5  26835813.979       -2212.099
 -15649161.820 7 -12195292.817 8  24082205.737        -562.992
   4598804.567 7   3720790.123 7  24426669.238        2633.488
 93  5  8  7 19 30.0090000  0  7  1  3 21 23 31 28 17                0.009333230
  -7687734.527 6  -6002397.516 6  25553259.827       -2629.586
  14838501.830 6  11563352.558 5  26172530.318        4577.280
 -11739773.833 7  -9159224.345 9  23561975.105        -160.276
  -6555021.793 8  -5111712.315 9  23695273.564        1978.631
  -3736342.579 6  -2957909.947 5  26823212.073       -2202.733
 -15665749.092 7 -12208217.978 8  24079049.411        -542.844
   4677934.238 7   3782449.579 7  24441727.383        2642.139
 93  5  8  7 20  0.0090000  0  7  1  3 21 23 31 28 17                0.009348040
  -7766524.557 6  -6063792.342 6  25538266.664       -2623.040
  14975961.002 6  11670463.573 5  26198688.291        4586.385
 -11744452.809 7  -9162870.299 9  23561084.722        -151.678
  -6495562.560 8  -5065380.444 9  23706588.280        1985.252
  -3802284.921 5  -3009293.528 5  26810663.749       -2193.548
 -15681741.706 7 -12220679.748 8  24076006.097        -523.405
   4757328.130 7   3844314.928 7  24456835.078        2650.554
 93  5  8  7 20 30.0090000  0  7  1  3 21 23 31 28 17                0.009362840
  -7845119.568 6  -6125035.199 6  25523310.350       -2616.480
  15113690.495 6  11777785.227 5  26224897.364        4595.471
 -11748861.904 7  -9166305.950 9  23560245.782        -142.006
  -6435907.073 8  -5018895.651 9  23717940.182        1992.083
  -3867948.002 6  -3060459.539 5  26798168.582       -2183.947
 -15697152.183 7 -12232687.923 8  24073073.468        -503.980
   4836963.802 7   3906368.707 7  24471990.042        2658.659
 93  5  8  7 21  0.0090000  0  7  1  3 21 23 31 28 17                0.009377600
  -7923514.479 6  -6186122.153 6  25508392.578       -2609.967
  15251691.797 6  11885318.652 5  26251157.111        4604.274
 -11752975.148 7  -9169511.047 9  23559463.013        -132.264
  -6376039.695 8  -4972245.744 9  23729332.435        1998.897
  -3933324.439 6  -3111402.172 5  26785727.851       -2174.534
 -15711991.842 7 -12244251.292 8  24070249.604        -485.465
   4916846.906 7   3968615.274 7  24487190.365        2666.849
 93  5  8  7 21 30.0090000  0  7  1  3 21 23 31 28 17                0.009392360
  -8001701.098 6  -6247046.778 6  25493514.279       -2602.443
  15389967.229 6  11993065.727 5  26277470.574        4613.886
 -11756788.893 7  -9172482.783 9  23558737.176        -121.954
  -6315963.582 8  -4925433.190 9  23740764.511        2006.187
  -3998407.376 6  -3162116.100 5  26773343.272       -2164.306
 -15726273.783 7 -12255380.069 8  24067531.784        -466.670
   4996990.428 7   4031064.771 7  24502441.313        2676.088
 93  5  8  7 22  0.0090000  0  7  1  3 21 23 31 28 17                0.009407090
  -8079678.014 6  -6307807.984 6  25478675.800       -2595.556
  15528507.110 6  12101018.857 5  26303834.350        4622.392
 -11760320.621 7  -9175234.755 9  23558065.169        -113.027
  -6255678.760 8  -4878457.997 9  23752236.349        2013.172
  -4063200.819 6  -3212604.459 5  26761013.389       -2154.870
 -15740009.596 7 -12266083.286 8  24064918.014        -448.514
   5077391.878 7   4093715.239 7  24517741.140        2684.388
 93  5  8  7 22 30.0090000  0  7  1  3 21 23 31 28 17                0.009421810
  -8157439.491 6  -6368401.334 6  25463878.196       -2588.629
  15667310.122 6  12209177.015 5  26330247.759        4630.934
 -11763570.580 7  -9177767.176 9  23557446.728        -103.661
  -6195181.775 8  -4831317.499 9  23763748.691        2020.039
  -4127700.829 6  -3262864.187 5  26748739.628       -2145.060
 -15753188.007 7 -12276352.201 8  24062410.350        -430.041
   5158053.352 7   4156568.330 7  24533091.154        2693.149
 93  5  8  7 23  0.0090000  0  7  1  3 21 23 31 28 17                0.009436510
  -8234988.412 6  -6428829.045 6  25449121.269       -2581.428
  15806371.144 6  12317536.248 5  26356710.109        4639.618
 -11766548.374 7  -9180087.518 9  23556880.051         -94.909
  -6134476.746 8  -4784014.874 9  23775300.481        2026.759
  -4191907.804 6  -3312895.539 5  26736520.786       -2135.226
 -15765809.912 7 -12286187.429 8  24060008.365        -411.244
   5238982.708 7   4219630.167 7  24548490.512        2701.957
 93  5  8  7 23 30.0090000  0  7  1  3 21 23 31 28 17                0.009451200
  -8312335.899 6  -6489099.815 6  25434402.342       -2575.088
  15945684.816 6  12426092.305 5  26383220.121        4647.761
 -11769273.895 7  -9182211.303 9  23556361.370         -86.739
  -6073584.768 8  -4736566.582 9  23786887.731        2032.652
  -4255821.780 6  -3362698.603 5  26724358.219       -2125.649
 -15777867.878 7 -12295583.253 8  24057713.931        -392.580
   5320158.707 7   4282884.175 7  24563938.100        2709.649
 93  5  8  7 24  0.0090000  0  7  1  3 21 23 31 28 17                0.009465860
  -8389500.648 6  -6549228.157 6  25419718.167       -2569.337
  16085243.527 6  12534839.328 5  26409777.065        4655.711
 -11771744.083 8  -9184136.113 9  23555891.296         -78.176
  -6012519.338 8  -4688983.128 9  23798508.215        2037.979
  -4319444.726 6  -3412274.922 5  26712250.939       -2116.107
 -15789366.024 7 -12304542.828 8  24055525.978        -374.168
   5401558.887 7   4346312.876 7  24579428.374        2716.884
 93  5  8  7 24 30.0090000  0  7  1  3 21 23 31 28 17                0.009480510
  -8466485.073 6  -6609216.013 6  25405068.650       -2563.027
  16225042.449 6  12643773.507 5  26436379.654        4663.835
 -11773951.909 7  -9185856.477 9  23555471.177         -69.278
  -5951303.728 8  -4641282.658 9  23810157.223        2042.978
  -4382777.105 6  -3461624.787 5  26700199.398       -2106.225
 -15800303.420 7 -12313065.486 8  24053444.457        -355.134
   5483180.349 7   4409914.021 7  24594961.153        2724.311
 93  5  8  7 25  0.0090000  0  7  1  3 21 23 31 28 17                0.009495130
  -8543270.216 6  -6669048.577 6  25390456.593       -2556.028
  16365083.529 6  12752896.402 5  26463028.703        4671.937
 -11775900.524 8  -9187374.901 9  23555100.383         -60.734
  -5889934.107 8  -4593462.174 9  23821835.516        2048.141
  -4445811.248 6  -3510742.270 5  26688204.438       -2096.100
 -15810673.605 7 -12321146.149 8  24051470.995        -336.274
   5565021.779 7   4473686.560 7  24610534.452        2731.703
 93  5  8  7 25 30.0090000  0  7  1  3 21 23 31 28 17                0.009509740
  -8619843.995 6  -6728716.458 6  25375885.190       -2548.700
  16505362.889 6  12862204.965 5  26489723.134        4679.782
 -11777594.537 8  -9188694.898 9  23554777.967         -52.340
  -5828409.817 8  -4545521.167 9  23833543.201        2053.536
  -4508545.738 6  -3559626.264 5  26676266.545       -2086.148
 -15820473.783 7 -12328782.659 9  24049606.084        -317.234
   5647087.626 7   4537633.954 7  24626151.082        2739.516
 93  5  8  7 26  0.0090000  0  7  1  3 21 23 31 28 17                0.009524330
  -8696182.407 6  -6788200.931 6  25361358.566       -2540.393
  16645874.568 6  12971694.561 5  26516462.295        4687.467
 -11779041.855 8  -9189822.664 9  23554502.848         -44.339
  -5766722.878 8  -4497453.414 9  23845281.815        2058.990
  -4570981.354 6  -3608277.395 5  26664385.455       -2076.172
 -15829708.274 7 -12335978.353 9  24047848.950        -298.378
   5729395.226 7   4601769.764 6  24641813.337        2747.827
 93  5  8  7 26 30.0090000  0  7  1  3 21 23 31 28 17                0.009538910
  -8772257.882 6  -6847480.509 6  25346881.659       -2531.054
  16786614.214 6  13081361.754 5  26543244.304        4695.271
 -11780260.840 8  -9190772.516 9  23554270.918         -36.720
  -5704869.843 8  -4449256.253 9  23857051.917        2065.036
  -4633117.811 6  -3656695.363 5  26652561.206       -2065.842
 -15838381.680 7 -12342736.852 9  24046198.504        -279.662
   5811953.469 7   4666100.857 6  24657524.005        2756.182
 93  5  8  7 27  0.0090000  0  7  1  3 21 23 31 28 17                0.009553480
  -8848055.589 6  -6906543.658 6  25332457.834       -2521.876
  16927587.380 6  13191210.941 5  26570070.609        4702.976
 -11781248.026 8  -9191541.759 9  23554082.808         -28.771
  -5642826.266 8  -4400910.599 9  23868858.393        2071.470
  -4694943.461 6  -3704871.161 5  26640796.207       -2055.519
 -15846502.327 7 -12349064.633 9  24044653.084        -261.296
   5894759.339 7   4730624.906 6  24673281.433        2764.510
 93  5  8  7 27 30.0090000  0  7  1  3 21 23 31 28 17                0.009568040
  -8923575.940 6  -6965390.679 6  25318086.601       -2512.801
  17068795.921 6  13301243.544 5  26596941.422        4710.781
 -11781990.739 8  -9192120.477 9  23553941.496         -20.702
  -5580592.065 8  -4352416.406 9  23880701.303        2077.607
  -4756451.560 6  -3752799.528 5  26629091.554       -2044.913
 -15854058.350 7 -12354952.432 9  24043215.237        -242.498
   5977816.182 7   4795344.518 6  24689086.644        2772.717
 93  5  8  7 28  0.0090000  0  7  1  3 21 23 31 28 17                0.009582590
  -8998831.636 6  -7024031.473 6  25303766.128       -2504.336
  17210236.901 6  13411457.284 5  26623856.975        4718.365
 -11782489.235 8  -9192508.923 9  23553846.910         -12.431
  -5518175.637 8  -4303780.249 9  23892578.962        2083.474
  -4817640.033 6  -3800478.838 5  26617447.624       -2034.273
 -15861054.888 7 -12360404.295 9  24041883.799        -223.915
   6061117.261 7   4860254.417 6  24704937.746        2780.555
 93  5  8  7 28 30.0090000  0  7  1  3 21 23 31 28 17                0.009597130
  -9073838.709 6  -7082478.540 6  25289493.070       -2496.073
  17351904.541 6  13521847.592 5  26650815.855        4726.023
 -11782730.024 8  -9192696.556 9  23553800.832          -3.370
  -5455580.062 8  -4255004.466 9  23904490.505        2089.788
  -4878509.237 6  -3847909.369 5  26605864.801       -2023.416
 -15867488.803 7 -12365417.730 9  24040659.467        -204.671
   6144645.604 7   4925341.461 6  24720832.246        2788.149
 93  5  8  7 29  0.0090000  0  7  1  3 21 23 31 28 17                0.009611640
  -9148612.605 6  -7140743.902 6  25275264.200       -2488.140
  17493794.067 6  13632410.839 5  26677816.891        4733.504
 -11782694.445 8  -9192668.803 9  23553807.688           6.413
  -5392798.470 8  -4206083.749 9  23916437.485        2096.106
  -4939058.696 6  -3895090.724 5  26594342.298       -2012.570
 -15873336.687 7 -12369974.516 9  24039546.847        -184.380
   6228402.173 7   4990606.316 6  24736770.210        2796.318
 93  5  8  7 29 30.0090000  0  7  1  3 21 23 31 28 17                0.009626130
  -9223145.432 6  -7198821.420 6  25261080.895       -2480.366
  17635905.973 6  13743147.369 5  26704859.307        4740.639
 -11782365.982 7  -9192412.866 9  23553869.895          15.764
  -5329832.618 8  -4157019.437 9  23928419.260        2101.975
  -4999282.798 6  -3942018.579 5  26582882.264       -2001.992
 -15878570.498 7 -12374052.813 9  24038550.998        -164.396
   6312413.322 7   5056069.555 6  24752757.014        2804.795
 93  5  8  7 30  0.0090000  0  7  1  3 21 23 31 28 17                0.009640590
  -9297413.301 6  -7256692.462 6  25246947.901       -2470.701
  17778247.707 6  13854063.008 5  26731946.031        4748.621
 -11781731.840 8  -9191918.721 9  23553990.612          26.603
  -5266662.963 8  -4107796.332 9  23940440.078        2109.275
  -5059168.774 6  -3988682.916 5  26571486.628       -1990.320
 -15883187.930 7 -12377650.810 9  24037672.226        -143.309
   6396705.360 7   5121751.664 6  24768798.007        2814.538
 93  5  8  7 30 30.0090000  0  7  1  3 21 23 31 28 17                0.009655040
  -9371388.182 6  -7314335.230 6  25232870.766       -2461.002
  17920823.999 6  13965161.386 5  26759077.340        4756.337
 -11780775.112 8  -9191173.230 9  23554172.756          37.199
  -5203280.067 8  -4058407.071 9  23952501.348        2116.308
  -5118706.549 6  -4035076.015 5  26560156.827       -1978.761
 -15887172.091 7 -12380755.366 9  24036914.041        -122.115
   6481279.950 7   5187653.916 6  24784892.796        2823.870
 93  5  8  7 31  0.0090000  0  7  1  3 21 23 31 28 17                0.009669460
  -9445074.027 6  -7371752.733 6  25218848.987       -2451.375
  18063629.090 5  14076438.068 5  26786252.008        4763.782
 -11779509.643 8  -9190187.133 9  23554413.528          47.052
  -5139698.971 8  -4008863.354 9  23964600.333        2122.319
  -5177896.793 6  -4081198.235 5  26548893.143       -1967.305
 -15890525.576 7 -12383368.454 9  24036275.893        -101.570
   6566133.337 7   5253773.440 6  24801040.015        2832.977
 93  5  8  7 31 30.0090000  0  7  1  3 21 23 31 28 17                0.009683880
  -9518470.061 6  -7428944.466 6  25204882.163       -2441.792
  18206664.812 5  14187894.423 5  26813471.631        4771.731
 -11777956.004 8  -9188976.487 9  23554709.175          56.437
  -5075938.887 8  -3959180.170 9  23976733.542        2128.416
  -5236732.672 6  -4127044.374 5  26537696.757       -1955.031
 -15893266.704 7 -12385504.413 9  24035754.133         -81.247
   6651262.792 7   5320108.073 6  24817240.060        2842.221
 93  5  8  7 32  0.0090000  0  7  1  3 21 23 31 28 17                0.009698310
  -9591586.057 6  -7485917.949 6  25190968.745       -2432.514
  18349934.687 5  14299533.286 5  26840735.157        4779.527
 -11776129.582 8  -9187553.307 9  23555056.703          65.374
  -5011997.672 8  -3909355.860 9  23988901.368        2134.356
  -5295205.038 6  -4172607.233 5  26526569.757       -1942.980
 -15895405.091 7 -12387170.690 9  24035347.255         -61.226
   6736648.952 7   5386642.720 6  24833488.036        2850.157
 93  5  8  7 32 30.0090000  0  7  1  3 21 23 31 28 17                0.009712740
  -9664435.557 6  -7542683.766 6  25177105.803       -2424.066
  18493434.286 5  14411351.119 5  26868042.488        4786.950
 -11774040.457 8  -9185925.409 9  23555454.338          73.784
  -4947884.218 8  -3859397.308 9  24001101.664        2139.919
  -5353312.833 6  -4217886.018 5  26515512.160       -1930.797
 -15896948.568 7 -12388373.386 9  24035053.418         -41.597
   6822264.802 7   5453356.376 6  24849780.138        2857.696
 93  5  8  7 33  0.0090000  0  7  1  3 21 23 31 28 17                0.009727170
  -9737021.959 6  -7599244.575 6  25163293.525       -2415.004
  18637161.742 5  14523346.493 5  26895392.596        4794.438
 -11771701.397 8  -9184102.777 9  23555899.531          81.985
  -4883597.942 8  -3809304.127 9  24013334.874        2145.772
  -5411053.905 6  -4262879.067 5  26504524.589       -1918.583
 -15897901.602 7 -12389116.032 9  24034872.065         -22.097
   6908121.568 7   5520257.728 6  24866118.305        2865.889
 93  5  8  7 33 30.0090000  0  7  1  3 21 23 31 28 17                0.009741620
  -9809337.204 6  -7655594.095 6  25149531.992       -2405.836
  18781107.560 5  14635512.038 5  26922784.750        4801.520
 -11769117.972 8  -9182089.719 9  23556390.940          90.304
  -4819130.300 8  -3759069.590 9  24025602.551        2152.007
  -5468431.181 6  -4307588.587 5  26493605.945       -1906.552
 -15898275.149 7 -12389407.098 9  24034800.953          -2.872
   6994215.080 7   5587343.580 6  24882501.070        2873.586
 93  5  8  7 34  0.0090000  0  7  1  3 21 23 31 28 17                0.009756060
  -9881356.899 6  -7711713.322 6  25135827.199       -2395.570
  18925268.538 5  14747845.208 5  26950218.129        4808.606
 -11766271.045 8  -9179871.332 9  23556932.574          99.335
  -4754473.263 8  -3708687.501 9  24037906.463        2158.217
  -5525443.549 6  -4352013.832 5  26482756.861       -1894.375
 -15898066.534 7 -12389244.559 9  24034840.717          16.660
   7080544.811 7   5654613.475 6  24898928.724        2881.628
 93  5  8  7 34 30.0090000  0  7  1  3 21 23 31 28 17                0.009770490
  -9953069.345 7  -7767593.127 6  25122180.673       -2385.113
  19069632.955 5  14860336.965 5  26977689.107        4815.417
 -11763158.556 8  -9177446.010 9  23557524.935         108.211
  -4689641.679 8  -3658169.378 9  24050243.571        2163.959
  -5582096.834 6  -4396159.194 5  26471976.108       -1882.330
 -15897269.292 7 -12388623.330 9  24034992.380          36.638
   7167119.934 7   5722074.598 6  24915403.703        2890.161
 93  5  8  7 35  0.0090000  0  7  1  3 21 23 31 28 17                0.009784900
 -10024467.090 7  -7823227.707 6  25108594.301       -2374.666
  19214197.516 5  14972984.639 5  27005198.533        4821.958
 -11759782.430 8  -9174815.238 9  23558167.449         116.902
  -4624634.935 8  -3607514.778 9  24062613.939        2169.860
  -5638389.272 6  -4440023.418 5  26461264.319       -1870.328
 -15895868.067 7 -12387531.464 9  24035259.116          56.716
   7253956.450 7   5789739.413 6  24931928.036        2898.864
 93  5  8  7 35 30.0090000  0  7  1  3 21 23 31 28 17                0.009799310
 -10095550.394 7  -7878617.276 6  25095067.677       -2364.383
  19358955.326 5  15085782.923 5  27032745.218        4828.374
 -11756141.974 8  -9171978.526 9  23558860.250         125.719
  -4559454.224 8  -3556724.615 9  24075017.242        2175.593
  -5694322.630 6  -4483607.849 5  26450620.354       -1858.394
 -15893870.137 7 -12385974.634 9  24035639.354          76.729
   7341050.600 7   5857604.972 6  24948501.087        2907.691
 93  5  8  7 36  0.0090000  0  7  1  3 21 23 31 28 17                0.009813700
 -10166323.763 7  -7933765.344 6  25081599.590       -2354.169
  19503911.228 5  15198735.514 5  27060329.408        4834.932
 -11752241.184 8  -9168938.957 9  23559602.477         134.151
  -4494103.862 8  -3505802.274 9  24087452.983        2181.127
  -5749887.132 6  -4526904.843 5  26440046.793       -1846.086
 -15891259.179 7 -12383940.131 9  24036136.199          97.333
   7428424.167 7   5925688.253 6  24965128.121        2917.085
 93  5  8  7 36 30.0090000  0  7  1  3 21 23 31 28 17                0.009828080
 -10236814.268 7  -7988692.993 7  25068185.668       -2345.230
  19649052.479 5  15311832.583 5  27087948.364        4840.927
 -11748095.806 8  -9165708.779 9  23560391.530         142.132
  -4428587.394 8  -3454750.480 9  24099920.563        2186.595
  -5805090.474 6  -4569920.426 5  26429542.168       -1834.208
 -15888030.909 7 -12381424.605 9  24036750.245         117.782
   7516067.965 7   5993982.106 6  24981806.096        2925.802
 93  5  8  7 37  0.0090000  0  7  1  3 21 23 31 28 17                0.009842450
 -10307024.423 7  -8043402.179 7  25054825.585       -2335.417
  19794376.571 6  15425072.110 5  27115602.084        4847.307
 -11743705.925 8  -9162288.074 9  23561226.642         150.822
  -4362898.723 8  -3403564.495 9  24112420.689        2192.659
  -5859929.265 6  -4612651.913 5  26419106.612       -1821.653
 -15884192.630 7 -12378433.735 9  24037480.946         138.320
   7603981.135 7   6062485.868 6  24998535.516        2935.244
 93  5  8  7 37 30.0090000  0  7  1  3 21 23 31 28 17                0.009856810
 -10376956.152 7  -8097894.434 7  25041517.977       -2326.328
  19939885.633 5  15538455.750 5  27143291.859        4853.493
 -11739056.967 8  -9158665.516 9  23562111.440         159.531
  -4297045.676 8  -3352250.443 9  24124952.124        2198.010
  -5914396.458 6  -4655093.858 5  26408741.717       -1809.155
 -15879742.931 7 -12374966.445 9  24038327.831         158.916
   7692166.388 7   6131201.642 6  25015317.284        2944.282
 93  5  8  7 38  0.0090000  0  7  1  3 21 23 31 28 17                0.009871170
 -10446607.136 7  -8152167.904 7  25028263.865       -2316.810
  20085582.751 5  15651985.967 5  27171017.573        4859.615
 -11734136.854 8  -9154831.650 9  23563047.791         168.788
  -4231032.726 8  -3300811.767 9  24137514.006        2203.177
  -5968483.891 6  -4697239.885 5  26398449.457       -1796.513
 -15874664.461 7 -12371009.197 9  24039294.184         179.789
   7780619.557 7   6200126.179 6  25032149.475        2952.586
 93  5  8  7 38 30.0090000  0  7  1  3 21 23 31 28 17                0.009885510
 -10515964.803 7  -8206212.833 7  25015065.309       -2307.030
  20231462.894 5  15765658.759 5  27198777.788        4865.490
 -11728926.435 8  -9150771.593 9  23564039.245         178.452
  -4164852.523 8  -3249242.794 9  24150107.678        2208.648
  -6022191.664 6  -4739090.083 5  26388229.282       -1783.950
 -15868959.634 7 -12366563.891 9  24040380.022         200.375
   7869316.090 7   6269240.338 6  25049027.457        2960.586
 93  5  8  7 39  0.0090000  0  7  1  3 21 23 31 28 17                0.009899830
 -10585015.596 7  -8260018.608 7  25001924.978       -2296.684
  20377524.117 5  15879472.683 5  27226572.428        4871.433
 -11723422.375 8  -9146482.708 9  23565087.031         188.081
  -4098503.754 8  -3197542.454 9  24162733.448        2214.189
  -6075516.026 6  -4780641.528 5  26378081.813       -1771.257
 -15862636.454 7 -12361636.735 9  24041582.888         221.059
   7958258.675 7   6338546.230 6  25065952.531        2968.595
 93  5  8  7 39 30.0090000  0  7  1  3 21 23 31 28 17                0.009914120
 -10653759.766 7  -8313585.480 7  24988843.593       -2285.988
  20523757.135 5  15993420.452 5  27254399.343        4877.385
 -11717642.447 8  -9141978.868 9  23566186.806         197.330
  -4031999.593 8  -3145721.035 9  24175388.767        2219.695
  -6128461.482 6  -4821897.696 5  26368006.361       -1758.266
 -15855697.607 7 -12356229.838 9  24042903.595         241.583
   8047429.044 7   6408029.628 6  25082921.156        2976.275
 93  5  8  7 40  0.0090000  0  7  1  3 21 23 31 28 17                0.009928400
 -10722176.053 7  -8366896.858 7  24975824.117       -2274.986
  20670162.079 5  16107502.154 5  27282259.333        4882.807
 -11711586.947 8  -9137260.298 9  23567339.181         206.435
  -3965326.128 8  -3093767.684 9  24188076.132        2225.391
  -6181022.376 6  -4862854.224 5  26358004.236       -1745.651
 -15848146.794 7 -12350346.089 9  24044340.410         261.853
   8136831.259 6   6477693.691 6  25099933.579        2984.041
 93  5  8  7 40 30.0090000  0  7  1  3 21 23 31 28 17                0.009942670
 -10790254.481 7  -8419944.955 7  24962869.215       -2263.802
  20816742.346 5  16221720.530 5  27310153.255        4888.821
 -11705257.282 8  -9132328.086 9  23568543.805         215.252
  -3898472.243 8  -3041673.746 9  24200798.186        2231.159
  -6233190.567 6  -4903504.744 5  26348077.237       -1732.462
 -15839980.662 7 -12343982.872 9  24045894.233         282.301
   8226488.041 7   6547556.105 6  25116994.912        2992.981
 93  5  8  7 41  0.0090000  0  7  1  3 21 23 31 28 17                0.009956930
 -10858006.057 7  -8472738.371 7  24949976.561       -2252.948
  20963491.440 5  16336070.438 5  27338079.012        4894.262
 -11698678.833 8  -9127202.019 9  23569795.529         223.282
  -3831461.101 8  -2989457.277 9  24213549.859        2236.152
  -6284966.675 6  -4943849.735 5  26338224.317       -1719.231
 -15831210.714 7 -12337149.146 9  24047563.128         302.536
   8316410.438 6   6617625.500 6  25134106.917        3001.866
 93  5  8  7 41 30.0090000  0  7  1  3 21 23 31 28 17                0.009971190
 -10925436.149 7  -8525281.297 7  24937145.154       -2242.122
  21110401.301 5  16450545.609 5  27366034.853        4899.778
 -11691858.326 8  -9121887.338 9  23571093.461         231.784
  -3764309.830 8  -2937131.604 9  24226328.383        2241.055
  -6336353.932 6  -4983891.751 5  26328445.633       -1706.194
 -15821841.756 7 -12329848.672 9  24049345.936         322.408
   8406600.047 6   6687903.121 6  25151268.148        3011.151
 93  5  8  7 42  0.0090000  0  7  1  3 21 23 31 28 17                0.009985440
 -10992544.542 7  -8577573.530 7  24924375.044       -2231.941
  21257479.387 5  16565151.870 5  27394022.387        4905.102
 -11684773.033 8  -9116366.309 9  23572441.869         240.388
  -3697001.154 8  -2884683.290 9  24239136.895        2246.086
  -6387340.173 6  -5023621.257 5  26318743.252       -1693.016
 -15811862.322 7 -12322072.479 9  24051244.992         342.777
   8497074.216 6   6758402.473 6  25168485.103        3020.208
 93  5  8  7 42 30.0090000  0  7  1  3 21 23 31 28 17                0.009999690
 -11059343.616 7  -8629624.747 7  24911663.285       -2221.501
  21404718.999 5  16679884.022 5  27422041.056        4910.331
 -11677430.591 8  -9110644.945 9  23573839.200         248.932
  -3629544.115 8  -2832119.363 9  24251973.487        2250.705
  -6437926.659 6  -5063039.287 5  26309116.980       -1679.696
 -15801269.354 7 -12313818.229 9  24053260.694         363.075
   8587814.154 6   6829108.916 6  25185752.594        3028.648
 93  5  8  7 43  0.0100000  0  7  1  3 21 23 31 28 17                0.010013920
 -11125829.289 7  -8681431.759 7  24899011.852       -2210.506
  21552119.499 5  16794741.521 5  27450090.240        4915.894
 -11669827.770 8  -9104720.662 9  23575285.850         258.036
  -3561940.688 8  -2779441.369 9  24264837.962        2256.151
  -6488115.349 6  -5102147.364 5  26299566.661       -1665.984
 -15790068.779 7 -12305090.516 9  24055392.208         383.846
   8678799.432 6   6900006.526 6  25203066.339        3036.967
 93  5  8  7 43 30.0100000  0  7  1  3 21 23 31 28 17                0.010028150
 -11191980.341 7  -8732977.994 7  24886423.867       -2199.542
  21699674.611 5  16909719.486 5  27478169.019        4920.884
 -11661953.788 8  -9098585.100 9  23576784.291         266.898
  -3494179.788 8  -2726640.685 9  24277732.445        2261.231
  -6537894.236 6  -5140936.092 5  26290094.048       -1652.631
 -15778246.503 7 -12295878.366 9  24057641.762         404.233
   8770026.133 6   6971092.266 6  25220427.294        3044.712
 93  5  8  7 44  0.0100000  0  7  1  3 21 23 31 28 17                0.010042370
 -11257788.839 7  -8784257.315 7  24873901.036       -2187.859
  21847387.477 5  17024820.399 5  27506277.262        4926.104
 -11653816.274 8  -9092244.167 9  23578332.739         275.360
  -3426257.293 8  -2673714.049 9  24290657.747        2266.628
  -6587261.849 6  -5179404.321 5  26280699.577       -1638.855
 -15765801.566 7 -12286181.003 9  24060010.043         425.084
   8861484.495 6   7042358.537 6  25237831.043        3052.230
 93  5  8  7 44 30.0100000  0  7  1  3 21 23 31 28 17                0.010056580
 -11323246.405 7  -8835263.199 7  24861444.650       -2175.700
  21995248.122 5  17140036.455 5  27534413.848        4931.327
 -11645438.135 8  -9085715.757 9  23579926.966         283.484
  -3358187.602 8  -2620672.744 9  24303611.270        2271.598
  -6636223.111 6  -5217555.964 5  26271382.438       -1625.041
 -15752743.459 7 -12276005.863 9  24062495.091         445.643
   8953163.604 6   7113796.790 6  25255276.335        3060.056
 93  5  8  7 45  0.0100000  0  7  1  3 21 23 31 28 17                0.010070780
 -11388329.828 7  -8885977.536 7  24849059.704       -2163.538
  22143265.170 5  17255374.366 5  27562580.872        4936.347
 -11636811.854 8  -9078993.971 9  23581568.469         291.401
  -3289957.416 8  -2567506.361 9  24316594.971        2276.765
  -6684764.175 6  -5255380.140 5  26262145.303       -1611.145
 -15739056.840 7 -12265340.973 9  24065099.649         466.688
   9045095.618 6   7185432.129 6  25272770.417        3068.594
 93  5  8  7 45 30.0100000  0  7  1  3 21 23 31 28 17                0.010084970
 -11453053.467 7  -8936411.524 7  24836742.800       -2151.433
  22291426.122 5  17370824.444 5  27590776.205        4941.129
 -11627948.902 8  -9072087.774 9  23583255.002         299.733
  -3221582.201 8  -2514226.965 9  24329606.155        2281.706
  -6732892.515 6  -5292882.736 5  26252986.665       -1597.224
 -15724740.632 7 -12254185.494 9  24067823.863         487.772
   9137279.070 6   7257263.389 6  25290311.963        3077.015
 93  5  8  7 46  0.0100000  0  7  1  3 21 23 31 28 17                0.010099160
 -11517424.657 7  -8986570.862 7  24824493.352       -2140.040
  22439733.859 5  17486388.815 5  27618998.445        4945.925
 -11618834.745 8  -9064985.835 9  23584989.323         308.035
  -3153056.194 8  -2460830.074 9  24342646.196        2286.804
  -6780600.167 6  -5330057.526 5  26243908.417       -1583.284
 -15709792.406 7 -12242537.528 9  24070668.402         508.828
   9229707.189 6   7329285.292 6  25307900.705        3084.935
 93  5  8  7 46 30.0100000  0  7  1  3 21 23 31 28 17                0.010113340
 -11581453.610 7  -9036463.537 7  24812309.087       -2128.616
  22588183.857 5  17602064.113 5  27647247.429        4950.522
 -11609453.439 8  -9057675.723 9  23586774.527         317.502
  -3084373.673 8  -2407311.239 9  24355716.008        2291.963
  -6827886.319 6  -5366903.845 5  26234910.202       -1569.176
 -15694215.040 7 -12230399.324 9  24073632.530         529.554
   9322385.016 6   7401501.779 6  25325536.738        3093.419
 93  5  8  7 47  0.0100000  0  7  1  3 21 23 31 28 17                0.010127500
 -11645139.802 7  -9086089.118 7  24800189.915       -2117.543
  22736776.975 5  17717850.947 5  27675523.334        4955.118
 -11599777.901 8  -9050136.342 9  23588615.642         327.125
  -3015531.833 8  -2353668.246 9  24368816.308        2297.002
  -6874745.108 6  -5403417.207 5  26225993.402       -1555.019
 -15678012.589 7 -12217774.056 9  24076715.876         550.079
   9415315.973 6   7473915.502 6  25343221.394        3101.637
 93  5  8  7 47 30.0100000  0  7  1  3 21 23 31 28 17                0.010141660
 -11708503.422 7  -9135463.352 7  24788132.463       -2106.730
  22885499.527 5  17833738.582 5  27703824.792        4959.426
 -11589820.216 8  -9042377.093 9  23590510.539         336.559
  -2946549.417 8  -2299915.711 9  24381943.291        2301.795
  -6921184.980 6  -5439604.085 5  26217156.371       -1541.020
 -15661210.998 7 -12204681.896 9  24079913.271         569.800
   9508485.338 6   7546514.995 6  25360951.566        3109.623
 93  5  8  7 48  0.0100000  0  7  1  3 21 23 31 28 17                0.010155800
 -11771537.349 7  -9184580.673 7  24776137.397       -2095.049
  23034345.076 5  17949722.052 5  27732148.706        4963.805
 -11579593.507 8  -9034408.233 9  23592456.562         345.586
  -2877421.824 8  -2246050.061 9  24395097.815        2307.120
  -6967207.468 6  -5475465.761 5  26208398.383       -1526.766
 -15643827.342 7 -12191136.230 9  24083221.205         589.523
   9601897.010 6   7619303.301 6  25378727.294        3118.240
 93  5  8  7 48 30.0100000  0  7  1  3 21 23 31 28 17                0.010169930
 -11834216.066 7  -9233421.193 7  24764210.095       -2083.498
  23183319.257 5  18065805.847 5  27760497.246        4967.655
 -11569096.466 8  -9026228.702 9  23594454.151         354.147
  -2808138.874 8  -2192063.336 9  24408281.949        2311.768
  -7012802.292 6  -5510994.183 5  26199721.791       -1512.762
 -15625853.670 7 -12177130.754 9  24086641.415         608.966
   9695571.977 6   7692296.806 6  25396552.402        3126.834
 93  5  8  7 49  0.0100000  0  7  1  3 21 23 31 28 17                0.010184050
 -11896541.287 7  -9281986.287 7  24752350.066       -2071.677
  23332418.216 5  18181986.778 5  27788870.060        4971.921
 -11558352.432 8  -9017856.731 9  23596498.893         361.902
  -2738715.100 8  -2137966.891 9  24421492.973        2316.561
  -7057968.092 6  -5546188.306 5  26191126.982       -1498.382
 -15607274.270 7 -12162653.319 9  24090177.017         629.676
   9789511.769 6   7765496.618 6  25414428.516        3135.821
 93  5  8  7 49 30.0100000  0  7  1  3 21 23 31 28 17                0.010198180
 -11958517.403 7  -9330279.336 7  24740556.249       -2059.952
  23481640.762 5  18298264.052 4  27817265.689        4975.919
 -11547379.627 8  -9009306.491 9  23598586.920         369.669
  -2669140.319 8  -2083752.779 9  24434732.528        2321.843
  -7102700.994 6  -5581045.120 5  26182614.384       -1483.891
 -15588071.830 7 -12147690.388 9  24093831.100         650.639
   9883712.907 6   7838900.109 6  25432354.236        3144.172
 93  5  8  7 50  0.0100000  0  6  1 21 23 31 28 17                   0.010212310
 -12020146.857 7  -9378302.263 7  24728828.307       -2048.808
 -11536180.025 8  -9000579.520 9  23600717.863         377.132
  -2599419.048 8  -2029424.516 9  24447999.992        2326.179
  -7147012.224 6  -5615573.316 5  26174182.299       -1470.158
 -15568243.465 7 -12132239.713 9  24097604.344         671.372
   9978144.865 6   7912483.449 6  25450323.843        3151.340
 93  5  8  7 50 30.0100000  0  6  1 21 23 31 28 17                   0.010226390
 -12081437.544 7  -9426061.216 7  24717165.292       -2037.132
 -11524738.686 8  -8991664.187 9  23602894.957         385.617
  -2529565.651 8  -1974993.294 9  24461292.719        2330.791
  -7190902.762 6  -5649773.748 5  26165830.519       -1455.740
 -15547780.853 7 -12116294.835 9  24101498.191         692.806
  10072803.716 6   7986243.591 6  25468337.100        3159.394
 93  5  8  7 51  0.0100000  0  6  1 21 23 31 28 17                   0.010240450
 -12142368.124 7  -9473539.589 7  24705570.390       -2024.979
 -11513041.756 8  -8982549.691 9  23605120.865         394.073
  -2459567.953 8  -1920449.633 9  24474612.778        2335.646
  -7234354.856 6  -5683632.510 5  26157561.858       -1441.326
 -15526674.687 7 -12099848.480 9  24105514.599         713.911
  10167709.951 6   8060196.469 6  25486397.064        3167.473
 93  5  8  7 51 30.0100000  0  6  1 21 23 31 28 17                   0.010254490
 -12202927.699 7  -9520728.843 7  24694046.167       -2012.563
 -11501084.910 8  -8973232.669 9  23607396.239         402.756
  -2389429.678 8  -1865796.440 9  24487959.767        2339.738
  -7277373.480 6  -5717153.513 5  26149375.492       -1427.016
 -15504950.896 7 -12082920.861 9  24109648.689         734.052
  10262848.309 6   8134330.264 6  25504501.082        3174.910
 93  5  8  7 52  0.0100000  0  6  1 21 23 31 28 17                   0.010268510
 -12263113.709 7  -9567627.006 7  24682593.085       -2000.000
 -11488874.783 8  -8963718.277 9  23609719.760         410.997
  -2319178.689 8  -1811055.405 9  24501328.086        2343.449
  -7319962.129 6  -5750339.441 5  26141270.983       -1412.457
 -15482623.668 7 -12065523.018 9  24113897.396         754.172
  10358219.704 6   8208645.627 6  25522649.267        3183.090
 93  5  8  7 52 30.0100000  0  6  1 21 23 31 28 17                   0.010282530
 -12322921.849 7  -9614230.710 7  24671212.305       -1987.251
 -11476421.177 8  -8954014.155 9  23612089.600         419.021
  -2248813.721 8  -1756225.551 9  24514717.762        2347.545
  -7362111.378 6  -5783183.011 5  26133250.318       -1397.508
 -15459695.928 7 -12047657.256 9  24118260.443         774.248
  10453841.665 6   8283156.251 6  25540845.933        3191.489
